<?xml version="1.0" encoding="UTF-8" standalone="no" ?>
<gpx xmlns="http://www.topografix.com/GPX/1/1" xmlns:xsi="http://www.w3.org/2001/XMLSchema-instance" xsi:schemaLocation="http://www.topografix.com/GPX/1/1 http://www.topografix.com/GPX/1/1/gpx.xsd" version="1.1" creator="VisuGPX - https://www.visugpx.com">
  <metadata>
    <name>Rando vtt nantoin</name>
    <desc><![CDATA[rando vtt du 27 juin 2010 "rally des étangs" avec l'équipe du ventoux]]></desc>
  </metadata>
  <trk>
    <name><![CDATA[ACTIVE LOG]]></name>
    <trkseg>
      <trkpt lat="45.4356" lon="5.26921">
        <ele>489.4483643</ele>
        <time>2010-06-27T05:45:06Z</time>
      </trkpt>
      <trkpt lat="45.43563" lon="5.26914">
        <ele>483.1998291</ele>
        <time>2010-06-27T05:45:14Z</time>
      </trkpt>
      <trkpt lat="45.43556" lon="5.26933">
        <ele>482.7192383</ele>
        <time>2010-06-27T05:45:20Z</time>
      </trkpt>
      <trkpt lat="45.43557" lon="5.26946">
        <ele>480.315918</ele>
        <time>2010-06-27T05:45:23Z</time>
      </trkpt>
      <trkpt lat="45.43571" lon="5.26956">
        <ele>479.835083</ele>
        <time>2010-06-27T05:45:27Z</time>
      </trkpt>
      <trkpt lat="45.43586" lon="5.26957">
        <ele>478.3931885</ele>
        <time>2010-06-27T05:45:33Z</time>
      </trkpt>
      <trkpt lat="45.436" lon="5.26977">
        <ele>488.9677734</ele>
        <time>2010-06-27T05:45:43Z</time>
      </trkpt>
      <trkpt lat="45.43615" lon="5.27006">
        <ele>488.9677734</ele>
        <time>2010-06-27T05:45:54Z</time>
      </trkpt>
      <trkpt lat="45.43634" lon="5.2704">
        <ele>488.4871826</ele>
        <time>2010-06-27T05:46:03Z</time>
      </trkpt>
      <trkpt lat="45.43658" lon="5.27058">
        <ele>490.8903809</ele>
        <time>2010-06-27T05:46:12Z</time>
      </trkpt>
      <trkpt lat="45.43689" lon="5.27064">
        <ele>493.774292</ele>
        <time>2010-06-27T05:46:23Z</time>
      </trkpt>
      <trkpt lat="45.43703" lon="5.27066">
        <ele>494.7355957</ele>
        <time>2010-06-27T05:46:30Z</time>
      </trkpt>
      <trkpt lat="45.43715" lon="5.27088">
        <ele>492.3323975</ele>
        <time>2010-06-27T05:46:37Z</time>
      </trkpt>
      <trkpt lat="45.43733" lon="5.27128">
        <ele>489.4483643</ele>
        <time>2010-06-27T05:46:43Z</time>
      </trkpt>
      <trkpt lat="45.43757" lon="5.27177">
        <ele>487.5256348</ele>
        <time>2010-06-27T05:46:49Z</time>
      </trkpt>
      <trkpt lat="45.43792" lon="5.27218">
        <ele>487.0450439</ele>
        <time>2010-06-27T05:46:56Z</time>
      </trkpt>
      <trkpt lat="45.43817" lon="5.27234">
        <ele>488.4871826</ele>
        <time>2010-06-27T05:47:02Z</time>
      </trkpt>
      <trkpt lat="45.43853" lon="5.27253">
        <ele>489.9290771</ele>
        <time>2010-06-27T05:47:11Z</time>
      </trkpt>
      <trkpt lat="45.43876" lon="5.27263">
        <ele>489.4483643</ele>
        <time>2010-06-27T05:47:16Z</time>
      </trkpt>
      <trkpt lat="45.43894" lon="5.27286">
        <ele>489.9290771</ele>
        <time>2010-06-27T05:47:22Z</time>
      </trkpt>
      <trkpt lat="45.43887" lon="5.27305">
        <ele>490.40979</ele>
        <time>2010-06-27T05:47:26Z</time>
      </trkpt>
      <trkpt lat="45.43883" lon="5.27308">
        <ele>490.40979</ele>
        <time>2010-06-27T05:47:27Z</time>
      </trkpt>
      <trkpt lat="45.43823" lon="5.27343">
        <ele>488.9677734</ele>
        <time>2010-06-27T05:47:39Z</time>
      </trkpt>
      <trkpt lat="45.43787" lon="5.27367">
        <ele>490.8903809</ele>
        <time>2010-06-27T05:47:49Z</time>
      </trkpt>
      <trkpt lat="45.4376" lon="5.27385">
        <ele>493.774292</ele>
        <time>2010-06-27T05:48:00Z</time>
      </trkpt>
      <trkpt lat="45.43752" lon="5.27393">
        <ele>494.2550049</ele>
        <time>2010-06-27T05:48:04Z</time>
      </trkpt>
      <trkpt lat="45.43756" lon="5.27411">
        <ele>494.2550049</ele>
        <time>2010-06-27T05:48:10Z</time>
      </trkpt>
      <trkpt lat="45.43758" lon="5.27413">
        <ele>494.7355957</ele>
        <time>2010-06-27T05:48:11Z</time>
      </trkpt>
      <trkpt lat="45.43787" lon="5.27441">
        <ele>495.2161865</ele>
        <time>2010-06-27T05:48:24Z</time>
      </trkpt>
      <trkpt lat="45.43818" lon="5.27467">
        <ele>496.6583252</ele>
        <time>2010-06-27T05:48:36Z</time>
      </trkpt>
      <trkpt lat="45.43843" lon="5.27489">
        <ele>498.1003418</ele>
        <time>2010-06-27T05:48:46Z</time>
      </trkpt>
      <trkpt lat="45.43868" lon="5.27517">
        <ele>497.138916</ele>
        <time>2010-06-27T05:48:57Z</time>
      </trkpt>
      <trkpt lat="45.43895" lon="5.27536">
        <ele>499.0615234</ele>
        <time>2010-06-27T05:49:07Z</time>
      </trkpt>
      <trkpt lat="45.43927" lon="5.27557">
        <ele>497.6196289</ele>
        <time>2010-06-27T05:49:18Z</time>
      </trkpt>
      <trkpt lat="45.4395" lon="5.27587">
        <ele>498.1003418</ele>
        <time>2010-06-27T05:49:27Z</time>
      </trkpt>
      <trkpt lat="45.43967" lon="5.27626">
        <ele>498.1003418</ele>
        <time>2010-06-27T05:49:36Z</time>
      </trkpt>
      <trkpt lat="45.43983" lon="5.27674">
        <ele>500.0229492</ele>
        <time>2010-06-27T05:49:47Z</time>
      </trkpt>
      <trkpt lat="45.44001" lon="5.27738">
        <ele>500.0229492</ele>
        <time>2010-06-27T05:50:01Z</time>
      </trkpt>
      <trkpt lat="45.44027" lon="5.27801">
        <ele>499.5422363</ele>
        <time>2010-06-27T05:50:14Z</time>
      </trkpt>
      <trkpt lat="45.44055" lon="5.27827">
        <ele>501.4648438</ele>
        <time>2010-06-27T05:50:23Z</time>
      </trkpt>
      <trkpt lat="45.44089" lon="5.2786">
        <ele>502.9067383</ele>
        <time>2010-06-27T05:50:35Z</time>
      </trkpt>
      <trkpt lat="45.44132" lon="5.27903">
        <ele>503.3874512</ele>
        <time>2010-06-27T05:50:51Z</time>
      </trkpt>
      <trkpt lat="45.44164" lon="5.27935">
        <ele>502.9067383</ele>
        <time>2010-06-27T05:51:03Z</time>
      </trkpt>
      <trkpt lat="45.44182" lon="5.27958">
        <ele>504.348877</ele>
        <time>2010-06-27T05:51:12Z</time>
      </trkpt>
      <trkpt lat="45.44186" lon="5.27962">
        <ele>504.8294678</ele>
        <time>2010-06-27T05:51:14Z</time>
      </trkpt>
      <trkpt lat="45.44189" lon="5.27962">
        <ele>504.8294678</ele>
        <time>2010-06-27T05:51:16Z</time>
      </trkpt>
      <trkpt lat="45.44191" lon="5.27956">
        <ele>505.7908936</ele>
        <time>2010-06-27T05:51:19Z</time>
      </trkpt>
      <trkpt lat="45.4419" lon="5.27942">
        <ele>507.2327881</ele>
        <time>2010-06-27T05:51:25Z</time>
      </trkpt>
      <trkpt lat="45.44191" lon="5.27939">
        <ele>507.713501</ele>
        <time>2010-06-27T05:51:26Z</time>
      </trkpt>
      <trkpt lat="45.44191" lon="5.27916">
        <ele>510.59729</ele>
        <time>2010-06-27T05:51:33Z</time>
      </trkpt>
      <trkpt lat="45.4419" lon="5.27907">
        <ele>513.0007324</ele>
        <time>2010-06-27T05:51:37Z</time>
      </trkpt>
      <trkpt lat="45.44192" lon="5.27892">
        <ele>516.3652344</ele>
        <time>2010-06-27T05:51:42Z</time>
      </trkpt>
      <trkpt lat="45.44194" lon="5.27877">
        <ele>519.7298584</ele>
        <time>2010-06-27T05:51:47Z</time>
      </trkpt>
      <trkpt lat="45.44194" lon="5.27862">
        <ele>519.2492676</ele>
        <time>2010-06-27T05:51:52Z</time>
      </trkpt>
      <trkpt lat="45.44204" lon="5.27835">
        <ele>516.3652344</ele>
        <time>2010-06-27T05:52:00Z</time>
      </trkpt>
      <trkpt lat="45.44209" lon="5.27823">
        <ele>516.8459473</ele>
        <time>2010-06-27T05:52:05Z</time>
      </trkpt>
      <trkpt lat="45.44214" lon="5.27808">
        <ele>518.7685547</ele>
        <time>2010-06-27T05:52:11Z</time>
      </trkpt>
      <trkpt lat="45.44221" lon="5.2781">
        <ele>517.807251</ele>
        <time>2010-06-27T05:52:16Z</time>
      </trkpt>
      <trkpt lat="45.44227" lon="5.27813">
        <ele>517.3266602</ele>
        <time>2010-06-27T05:52:20Z</time>
      </trkpt>
      <trkpt lat="45.44237" lon="5.2782">
        <ele>520.2105713</ele>
        <time>2010-06-27T05:52:28Z</time>
      </trkpt>
      <trkpt lat="45.44244" lon="5.27827">
        <ele>522.6138916</ele>
        <time>2010-06-27T05:52:34Z</time>
      </trkpt>
      <trkpt lat="45.44246" lon="5.27829">
        <ele>522.6138916</ele>
        <time>2010-06-27T05:52:36Z</time>
      </trkpt>
      <trkpt lat="45.44258" lon="5.27839">
        <ele>525.0172119</ele>
        <time>2010-06-27T05:52:45Z</time>
      </trkpt>
      <trkpt lat="45.44265" lon="5.27845">
        <ele>526.9398193</ele>
        <time>2010-06-27T05:52:51Z</time>
      </trkpt>
      <trkpt lat="45.44277" lon="5.27853">
        <ele>530.7851563</ele>
        <time>2010-06-27T05:53:00Z</time>
      </trkpt>
      <trkpt lat="45.44281" lon="5.27858">
        <ele>533.1883545</ele>
        <time>2010-06-27T05:53:05Z</time>
      </trkpt>
      <trkpt lat="45.44288" lon="5.27863">
        <ele>533.1883545</ele>
        <time>2010-06-27T05:53:10Z</time>
      </trkpt>
      <trkpt lat="45.44291" lon="5.27865">
        <ele>533.6689453</ele>
        <time>2010-06-27T05:53:12Z</time>
      </trkpt>
      <trkpt lat="45.44296" lon="5.27868">
        <ele>535.1109619</ele>
        <time>2010-06-27T05:53:16Z</time>
      </trkpt>
      <trkpt lat="45.44305" lon="5.27875">
        <ele>536.5531006</ele>
        <time>2010-06-27T05:53:22Z</time>
      </trkpt>
      <trkpt lat="45.44314" lon="5.27884">
        <ele>535.1109619</ele>
        <time>2010-06-27T05:53:31Z</time>
      </trkpt>
      <trkpt lat="45.44319" lon="5.27889">
        <ele>534.6303711</ele>
        <time>2010-06-27T05:53:36Z</time>
      </trkpt>
      <trkpt lat="45.44328" lon="5.279">
        <ele>533.6689453</ele>
        <time>2010-06-27T05:53:46Z</time>
      </trkpt>
      <trkpt lat="45.44332" lon="5.27904">
        <ele>534.6303711</ele>
        <time>2010-06-27T05:53:52Z</time>
      </trkpt>
      <trkpt lat="45.44338" lon="5.27909">
        <ele>536.0723877</ele>
        <time>2010-06-27T05:54:00Z</time>
      </trkpt>
      <trkpt lat="45.44345" lon="5.27917">
        <ele>540.8789063</ele>
        <time>2010-06-27T05:54:09Z</time>
      </trkpt>
      <trkpt lat="45.44349" lon="5.27922">
        <ele>540.3983154</ele>
        <time>2010-06-27T05:54:14Z</time>
      </trkpt>
      <trkpt lat="45.44354" lon="5.27925">
        <ele>543.2821045</ele>
        <time>2010-06-27T05:54:22Z</time>
      </trkpt>
      <trkpt lat="45.44354" lon="5.27926">
        <ele>543.2821045</ele>
        <time>2010-06-27T05:54:26Z</time>
      </trkpt>
      <trkpt lat="45.44361" lon="5.27932">
        <ele>543.7628174</ele>
        <time>2010-06-27T05:54:32Z</time>
      </trkpt>
      <trkpt lat="45.44378" lon="5.27934">
        <ele>547.1274414</ele>
        <time>2010-06-27T05:54:42Z</time>
      </trkpt>
      <trkpt lat="45.44395" lon="5.27932">
        <ele>549.5307617</ele>
        <time>2010-06-27T05:54:52Z</time>
      </trkpt>
      <trkpt lat="45.44407" lon="5.27933">
        <ele>556.7407227</ele>
        <time>2010-06-27T05:55:00Z</time>
      </trkpt>
      <trkpt lat="45.44421" lon="5.27926">
        <ele>559.144043</ele>
        <time>2010-06-27T05:55:09Z</time>
      </trkpt>
      <trkpt lat="45.44431" lon="5.27918">
        <ele>560.5859375</ele>
        <time>2010-06-27T05:55:17Z</time>
      </trkpt>
      <trkpt lat="45.44438" lon="5.27918">
        <ele>560.5859375</ele>
        <time>2010-06-27T05:55:23Z</time>
      </trkpt>
      <trkpt lat="45.44448" lon="5.27916">
        <ele>558.6633301</ele>
        <time>2010-06-27T05:55:29Z</time>
      </trkpt>
      <trkpt lat="45.44461" lon="5.27918">
        <ele>557.7021484</ele>
        <time>2010-06-27T05:55:35Z</time>
      </trkpt>
      <trkpt lat="45.44478" lon="5.27918">
        <ele>556.2600098</ele>
        <time>2010-06-27T05:55:42Z</time>
      </trkpt>
      <trkpt lat="45.4449" lon="5.27916">
        <ele>555.7792969</ele>
        <time>2010-06-27T05:55:48Z</time>
      </trkpt>
      <trkpt lat="45.445" lon="5.27915">
        <ele>555.298584</ele>
        <time>2010-06-27T05:55:53Z</time>
      </trkpt>
      <trkpt lat="45.44518" lon="5.27916">
        <ele>553.8566895</ele>
        <time>2010-06-27T05:56:00Z</time>
      </trkpt>
      <trkpt lat="45.44529" lon="5.27916">
        <ele>553.3759766</ele>
        <time>2010-06-27T05:56:04Z</time>
      </trkpt>
      <trkpt lat="45.44541" lon="5.27911">
        <ele>553.3759766</ele>
        <time>2010-06-27T05:56:09Z</time>
      </trkpt>
      <trkpt lat="45.44557" lon="5.27912">
        <ele>553.8566895</ele>
        <time>2010-06-27T05:56:17Z</time>
      </trkpt>
      <trkpt lat="45.44565" lon="5.27909">
        <ele>553.3759766</ele>
        <time>2010-06-27T05:56:20Z</time>
      </trkpt>
      <trkpt lat="45.44571" lon="5.27907">
        <ele>551.934082</ele>
        <time>2010-06-27T05:56:22Z</time>
      </trkpt>
      <trkpt lat="45.44582" lon="5.27904">
        <ele>550.9726563</ele>
        <time>2010-06-27T05:56:26Z</time>
      </trkpt>
      <trkpt lat="45.44593" lon="5.27899">
        <ele>549.0500488</ele>
        <time>2010-06-27T05:56:30Z</time>
      </trkpt>
      <trkpt lat="45.44611" lon="5.27888">
        <ele>547.6081543</ele>
        <time>2010-06-27T05:56:38Z</time>
      </trkpt>
      <trkpt lat="45.44629" lon="5.27871">
        <ele>548.5693359</ele>
        <time>2010-06-27T05:56:43Z</time>
      </trkpt>
      <trkpt lat="45.44653" lon="5.27854">
        <ele>551.934082</ele>
        <time>2010-06-27T05:56:48Z</time>
      </trkpt>
      <trkpt lat="45.44679" lon="5.27831">
        <ele>560.5859375</ele>
        <time>2010-06-27T05:56:56Z</time>
      </trkpt>
      <trkpt lat="45.44688" lon="5.27827">
        <ele>562.5085449</ele>
        <time>2010-06-27T05:57:01Z</time>
      </trkpt>
      <trkpt lat="45.44695" lon="5.27823">
        <ele>564.4311523</ele>
        <time>2010-06-27T05:57:05Z</time>
      </trkpt>
      <trkpt lat="45.4471" lon="5.2781">
        <ele>565.873291</ele>
        <time>2010-06-27T05:57:10Z</time>
      </trkpt>
      <trkpt lat="45.44712" lon="5.27801">
        <ele>567.3151855</ele>
        <time>2010-06-27T05:57:14Z</time>
      </trkpt>
      <trkpt lat="45.44712" lon="5.27796">
        <ele>568.7570801</ele>
        <time>2010-06-27T05:57:17Z</time>
      </trkpt>
      <trkpt lat="45.44717" lon="5.27781">
        <ele>570.6796875</ele>
        <time>2010-06-27T05:57:24Z</time>
      </trkpt>
      <trkpt lat="45.4472" lon="5.27774">
        <ele>572.1218262</ele>
        <time>2010-06-27T05:57:29Z</time>
      </trkpt>
      <trkpt lat="45.44725" lon="5.27763">
        <ele>572.1218262</ele>
        <time>2010-06-27T05:57:34Z</time>
      </trkpt>
      <trkpt lat="45.44728" lon="5.27741">
        <ele>575.0058594</ele>
        <time>2010-06-27T05:57:43Z</time>
      </trkpt>
      <trkpt lat="45.44733" lon="5.27723">
        <ele>576.9284668</ele>
        <time>2010-06-27T05:57:49Z</time>
      </trkpt>
      <trkpt lat="45.44736" lon="5.27704">
        <ele>571.6408691</ele>
        <time>2010-06-27T05:57:55Z</time>
      </trkpt>
      <trkpt lat="45.44744" lon="5.27695">
        <ele>569.237793</ele>
        <time>2010-06-27T05:58:00Z</time>
      </trkpt>
      <trkpt lat="45.44767" lon="5.27681">
        <ele>567.3151855</ele>
        <time>2010-06-27T05:58:10Z</time>
      </trkpt>
      <trkpt lat="45.44794" lon="5.27653">
        <ele>567.7956543</ele>
        <time>2010-06-27T05:58:22Z</time>
      </trkpt>
      <trkpt lat="45.44818" lon="5.27624">
        <ele>570.6796875</ele>
        <time>2010-06-27T05:58:34Z</time>
      </trkpt>
      <trkpt lat="45.44838" lon="5.27598">
        <ele>571.1604004</ele>
        <time>2010-06-27T05:58:45Z</time>
      </trkpt>
      <trkpt lat="45.44839" lon="5.27595">
        <ele>570.6796875</ele>
        <time>2010-06-27T05:58:46Z</time>
      </trkpt>
      <trkpt lat="45.44829" lon="5.27573">
        <ele>572.1218262</ele>
        <time>2010-06-27T05:58:53Z</time>
      </trkpt>
      <trkpt lat="45.44808" lon="5.27545">
        <ele>574.0444336</ele>
        <time>2010-06-27T05:59:02Z</time>
      </trkpt>
      <trkpt lat="45.44793" lon="5.27503">
        <ele>573.5639648</ele>
        <time>2010-06-27T05:59:12Z</time>
      </trkpt>
      <trkpt lat="45.44783" lon="5.27467">
        <ele>572.6025391</ele>
        <time>2010-06-27T05:59:20Z</time>
      </trkpt>
      <trkpt lat="45.44791" lon="5.27453">
        <ele>573.5639648</ele>
        <time>2010-06-27T05:59:25Z</time>
      </trkpt>
      <trkpt lat="45.44819" lon="5.27447">
        <ele>574.0444336</ele>
        <time>2010-06-27T05:59:34Z</time>
      </trkpt>
      <trkpt lat="45.44834" lon="5.27443">
        <ele>572.6025391</ele>
        <time>2010-06-27T05:59:39Z</time>
      </trkpt>
      <trkpt lat="45.44851" lon="5.2743">
        <ele>572.6025391</ele>
        <time>2010-06-27T05:59:45Z</time>
      </trkpt>
      <trkpt lat="45.44875" lon="5.27404">
        <ele>572.6025391</ele>
        <time>2010-06-27T05:59:53Z</time>
      </trkpt>
      <trkpt lat="45.44892" lon="5.27387">
        <ele>575.967041</ele>
        <time>2010-06-27T05:59:59Z</time>
      </trkpt>
      <trkpt lat="45.44911" lon="5.2737">
        <ele>577.4091797</ele>
        <time>2010-06-27T06:00:08Z</time>
      </trkpt>
      <trkpt lat="45.44915" lon="5.27369">
        <ele>577.8896484</ele>
        <time>2010-06-27T06:00:11Z</time>
      </trkpt>
      <trkpt lat="45.44922" lon="5.27372">
        <ele>576.9284668</ele>
        <time>2010-06-27T06:00:15Z</time>
      </trkpt>
      <trkpt lat="45.44939" lon="5.27376">
        <ele>575.0058594</ele>
        <time>2010-06-27T06:00:23Z</time>
      </trkpt>
      <trkpt lat="45.44952" lon="5.27376">
        <ele>575.4863281</ele>
        <time>2010-06-27T06:00:29Z</time>
      </trkpt>
      <trkpt lat="45.44975" lon="5.27371">
        <ele>576.4477539</ele>
        <time>2010-06-27T06:00:37Z</time>
      </trkpt>
      <trkpt lat="45.45003" lon="5.27369">
        <ele>578.3703613</ele>
        <time>2010-06-27T06:00:46Z</time>
      </trkpt>
      <trkpt lat="45.45031" lon="5.27367">
        <ele>579.331543</ele>
        <time>2010-06-27T06:00:56Z</time>
      </trkpt>
      <trkpt lat="45.45047" lon="5.27366">
        <ele>580.7736816</ele>
        <time>2010-06-27T06:01:02Z</time>
      </trkpt>
      <trkpt lat="45.4506" lon="5.2737">
        <ele>581.2543945</ele>
        <time>2010-06-27T06:01:08Z</time>
      </trkpt>
      <trkpt lat="45.4508" lon="5.27383">
        <ele>583.1767578</ele>
        <time>2010-06-27T06:01:17Z</time>
      </trkpt>
      <trkpt lat="45.45099" lon="5.27389">
        <ele>585.0996094</ele>
        <time>2010-06-27T06:01:26Z</time>
      </trkpt>
      <trkpt lat="45.45119" lon="5.27387">
        <ele>586.5415039</ele>
        <time>2010-06-27T06:01:34Z</time>
      </trkpt>
      <trkpt lat="45.45126" lon="5.27388">
        <ele>586.5415039</ele>
        <time>2010-06-27T06:01:37Z</time>
      </trkpt>
      <trkpt lat="45.45134" lon="5.27389">
        <ele>587.9833984</ele>
        <time>2010-06-27T06:01:41Z</time>
      </trkpt>
      <trkpt lat="45.45148" lon="5.27386">
        <ele>590.8674316</ele>
        <time>2010-06-27T06:01:49Z</time>
      </trkpt>
      <trkpt lat="45.45153" lon="5.27384">
        <ele>591.3481445</ele>
        <time>2010-06-27T06:01:51Z</time>
      </trkpt>
      <trkpt lat="45.4517" lon="5.27384">
        <ele>594.7126465</ele>
        <time>2010-06-27T06:01:59Z</time>
      </trkpt>
      <trkpt lat="45.45174" lon="5.27383">
        <ele>594.7126465</ele>
        <time>2010-06-27T06:02:01Z</time>
      </trkpt>
      <trkpt lat="45.45194" lon="5.27379">
        <ele>597.1159668</ele>
        <time>2010-06-27T06:02:08Z</time>
      </trkpt>
      <trkpt lat="45.45211" lon="5.27373">
        <ele>598.0773926</ele>
        <time>2010-06-27T06:02:13Z</time>
      </trkpt>
      <trkpt lat="45.45224" lon="5.27372">
        <ele>599.5192871</ele>
        <time>2010-06-27T06:02:18Z</time>
      </trkpt>
      <trkpt lat="45.45233" lon="5.27372">
        <ele>599.5192871</ele>
        <time>2010-06-27T06:02:22Z</time>
      </trkpt>
      <trkpt lat="45.45256" lon="5.27365">
        <ele>600</ele>
        <time>2010-06-27T06:02:29Z</time>
      </trkpt>
      <trkpt lat="45.4526" lon="5.27366">
        <ele>600.4807129</ele>
        <time>2010-06-27T06:02:31Z</time>
      </trkpt>
      <trkpt lat="45.45276" lon="5.27366">
        <ele>600.9611816</ele>
        <time>2010-06-27T06:02:37Z</time>
      </trkpt>
      <trkpt lat="45.4529" lon="5.27364">
        <ele>601.4418945</ele>
        <time>2010-06-27T06:02:42Z</time>
      </trkpt>
      <trkpt lat="45.45307" lon="5.27363">
        <ele>601.9226074</ele>
        <time>2010-06-27T06:02:48Z</time>
      </trkpt>
      <trkpt lat="45.45323" lon="5.27361">
        <ele>600.9611816</ele>
        <time>2010-06-27T06:02:55Z</time>
      </trkpt>
      <trkpt lat="45.45331" lon="5.27361">
        <ele>602.8837891</ele>
        <time>2010-06-27T06:02:59Z</time>
      </trkpt>
      <trkpt lat="45.45351" lon="5.27354">
        <ele>600.4807129</ele>
        <time>2010-06-27T06:03:07Z</time>
      </trkpt>
      <trkpt lat="45.45358" lon="5.27346">
        <ele>600.9611816</ele>
        <time>2010-06-27T06:03:11Z</time>
      </trkpt>
      <trkpt lat="45.45361" lon="5.27342">
        <ele>601.4418945</ele>
        <time>2010-06-27T06:03:13Z</time>
      </trkpt>
      <trkpt lat="45.45375" lon="5.27317">
        <ele>601.4418945</ele>
        <time>2010-06-27T06:03:20Z</time>
      </trkpt>
      <trkpt lat="45.45383" lon="5.27291">
        <ele>601.9226074</ele>
        <time>2010-06-27T06:03:26Z</time>
      </trkpt>
      <trkpt lat="45.45389" lon="5.27272">
        <ele>601.4418945</ele>
        <time>2010-06-27T06:03:32Z</time>
      </trkpt>
      <trkpt lat="45.45399" lon="5.27244">
        <ele>599.5192871</ele>
        <time>2010-06-27T06:03:38Z</time>
      </trkpt>
      <trkpt lat="45.45398" lon="5.27215">
        <ele>602.4030762</ele>
        <time>2010-06-27T06:03:45Z</time>
      </trkpt>
      <trkpt lat="45.45393" lon="5.27172">
        <ele>609.6132813</ele>
        <time>2010-06-27T06:03:54Z</time>
      </trkpt>
      <trkpt lat="45.45395" lon="5.2714">
        <ele>611.0551758</ele>
        <time>2010-06-27T06:04:01Z</time>
      </trkpt>
      <trkpt lat="45.454" lon="5.27114">
        <ele>614.4196777</ele>
        <time>2010-06-27T06:04:08Z</time>
      </trkpt>
      <trkpt lat="45.45398" lon="5.271">
        <ele>614.9003906</ele>
        <time>2010-06-27T06:04:12Z</time>
      </trkpt>
      <trkpt lat="45.45391" lon="5.27082">
        <ele>615.8618164</ele>
        <time>2010-06-27T06:04:18Z</time>
      </trkpt>
      <trkpt lat="45.45379" lon="5.27053">
        <ele>617.7841797</ele>
        <time>2010-06-27T06:04:26Z</time>
      </trkpt>
      <trkpt lat="45.4538" lon="5.27049">
        <ele>616.822998</ele>
        <time>2010-06-27T06:04:27Z</time>
      </trkpt>
      <trkpt lat="45.4538" lon="5.27042">
        <ele>616.3422852</ele>
        <time>2010-06-27T06:04:29Z</time>
      </trkpt>
      <trkpt lat="45.45379" lon="5.27029">
        <ele>617.3037109</ele>
        <time>2010-06-27T06:04:35Z</time>
      </trkpt>
      <trkpt lat="45.45392" lon="5.27012">
        <ele>622.1103516</ele>
        <time>2010-06-27T06:04:41Z</time>
      </trkpt>
      <trkpt lat="45.45399" lon="5.27006">
        <ele>623.5524902</ele>
        <time>2010-06-27T06:04:45Z</time>
      </trkpt>
      <trkpt lat="45.4541" lon="5.26999">
        <ele>625.9555664</ele>
        <time>2010-06-27T06:04:49Z</time>
      </trkpt>
      <trkpt lat="45.45411" lon="5.26999">
        <ele>625.9555664</ele>
        <time>2010-06-27T06:04:50Z</time>
      </trkpt>
      <trkpt lat="45.45428" lon="5.26995">
        <ele>626.9169922</ele>
        <time>2010-06-27T06:04:57Z</time>
      </trkpt>
      <trkpt lat="45.45435" lon="5.26993">
        <ele>626.9169922</ele>
        <time>2010-06-27T06:04:59Z</time>
      </trkpt>
      <trkpt lat="45.45455" lon="5.26982">
        <ele>626.9169922</ele>
        <time>2010-06-27T06:05:04Z</time>
      </trkpt>
      <trkpt lat="45.45482" lon="5.26974">
        <ele>624.9943848</ele>
        <time>2010-06-27T06:05:13Z</time>
      </trkpt>
      <trkpt lat="45.4551" lon="5.26976">
        <ele>619.7070313</ele>
        <time>2010-06-27T06:05:21Z</time>
      </trkpt>
      <trkpt lat="45.45538" lon="5.2699">
        <ele>615.8618164</ele>
        <time>2010-06-27T06:05:29Z</time>
      </trkpt>
      <trkpt lat="45.45561" lon="5.26996">
        <ele>609.6132813</ele>
        <time>2010-06-27T06:05:36Z</time>
      </trkpt>
      <trkpt lat="45.45579" lon="5.26997">
        <ele>606.729248</ele>
        <time>2010-06-27T06:05:41Z</time>
      </trkpt>
      <trkpt lat="45.45595" lon="5.26991">
        <ele>604.8066406</ele>
        <time>2010-06-27T06:05:45Z</time>
      </trkpt>
      <trkpt lat="45.45612" lon="5.26981">
        <ele>603.8452148</ele>
        <time>2010-06-27T06:05:49Z</time>
      </trkpt>
      <trkpt lat="45.45624" lon="5.26973">
        <ele>607.2099609</ele>
        <time>2010-06-27T06:05:51Z</time>
      </trkpt>
      <trkpt lat="45.45635" lon="5.26961">
        <ele>606.2485352</ele>
        <time>2010-06-27T06:05:56Z</time>
      </trkpt>
      <trkpt lat="45.45639" lon="5.26961">
        <ele>605.2873535</ele>
        <time>2010-06-27T06:05:57Z</time>
      </trkpt>
      <trkpt lat="45.45647" lon="5.26961">
        <ele>604.8066406</ele>
        <time>2010-06-27T06:05:59Z</time>
      </trkpt>
      <trkpt lat="45.45663" lon="5.26956">
        <ele>603.8452148</ele>
        <time>2010-06-27T06:06:02Z</time>
      </trkpt>
      <trkpt lat="45.45689" lon="5.26951">
        <ele>600.4807129</ele>
        <time>2010-06-27T06:06:08Z</time>
      </trkpt>
      <trkpt lat="45.45698" lon="5.26948">
        <ele>600</ele>
        <time>2010-06-27T06:06:10Z</time>
      </trkpt>
      <trkpt lat="45.45712" lon="5.26945">
        <ele>598.5578613</ele>
        <time>2010-06-27T06:06:13Z</time>
      </trkpt>
      <trkpt lat="45.4574" lon="5.26931">
        <ele>594.7126465</ele>
        <time>2010-06-27T06:06:20Z</time>
      </trkpt>
      <trkpt lat="45.45759" lon="5.26925">
        <ele>592.7902832</ele>
        <time>2010-06-27T06:06:27Z</time>
      </trkpt>
      <trkpt lat="45.45762" lon="5.26922">
        <ele>592.3095703</ele>
        <time>2010-06-27T06:06:31Z</time>
      </trkpt>
      <trkpt lat="45.45771" lon="5.26908">
        <ele>595.1933594</ele>
        <time>2010-06-27T06:06:41Z</time>
      </trkpt>
      <trkpt lat="45.45771" lon="5.26907">
        <ele>596.1547852</ele>
        <time>2010-06-27T06:06:44Z</time>
      </trkpt>
      <trkpt lat="45.45779" lon="5.26903">
        <ele>598.0773926</ele>
        <time>2010-06-27T06:06:53Z</time>
      </trkpt>
      <trkpt lat="45.45784" lon="5.26901">
        <ele>599.0385742</ele>
        <time>2010-06-27T06:06:59Z</time>
      </trkpt>
      <trkpt lat="45.45798" lon="5.26903">
        <ele>600</ele>
        <time>2010-06-27T06:07:06Z</time>
      </trkpt>
      <trkpt lat="45.45818" lon="5.26901">
        <ele>600.9611816</ele>
        <time>2010-06-27T06:07:16Z</time>
      </trkpt>
      <trkpt lat="45.45832" lon="5.26906">
        <ele>602.8837891</ele>
        <time>2010-06-27T06:07:25Z</time>
      </trkpt>
      <trkpt lat="45.45831" lon="5.26905">
        <ele>603.8452148</ele>
        <time>2010-06-27T06:07:36Z</time>
      </trkpt>
      <trkpt lat="45.45832" lon="5.26904">
        <ele>604.8066406</ele>
        <time>2010-06-27T06:07:43Z</time>
      </trkpt>
      <trkpt lat="45.45841" lon="5.26904">
        <ele>606.2485352</ele>
        <time>2010-06-27T06:07:49Z</time>
      </trkpt>
      <trkpt lat="45.45864" lon="5.26898">
        <ele>611.0551758</ele>
        <time>2010-06-27T06:08:03Z</time>
      </trkpt>
      <trkpt lat="45.45865" lon="5.26898">
        <ele>611.5358887</ele>
        <time>2010-06-27T06:08:04Z</time>
      </trkpt>
      <trkpt lat="45.45868" lon="5.26895">
        <ele>612.4970703</ele>
        <time>2010-06-27T06:08:08Z</time>
      </trkpt>
      <trkpt lat="45.45869" lon="5.26896">
        <ele>613.9389648</ele>
        <time>2010-06-27T06:08:15Z</time>
      </trkpt>
      <trkpt lat="45.45869" lon="5.26898">
        <ele>614.4196777</ele>
        <time>2010-06-27T06:08:24Z</time>
      </trkpt>
      <trkpt lat="45.45869" lon="5.26904">
        <ele>612.0166016</ele>
        <time>2010-06-27T06:08:27Z</time>
      </trkpt>
      <trkpt lat="45.45874" lon="5.26919">
        <ele>610.5744629</ele>
        <time>2010-06-27T06:08:32Z</time>
      </trkpt>
      <trkpt lat="45.45877" lon="5.26941">
        <ele>607.6906738</ele>
        <time>2010-06-27T06:08:38Z</time>
      </trkpt>
      <trkpt lat="45.45883" lon="5.26963">
        <ele>602.8837891</ele>
        <time>2010-06-27T06:08:44Z</time>
      </trkpt>
      <trkpt lat="45.45885" lon="5.26972">
        <ele>602.8837891</ele>
        <time>2010-06-27T06:08:46Z</time>
      </trkpt>
      <trkpt lat="45.45894" lon="5.27001">
        <ele>600</ele>
        <time>2010-06-27T06:08:53Z</time>
      </trkpt>
      <trkpt lat="45.45896" lon="5.27006">
        <ele>600</ele>
        <time>2010-06-27T06:08:54Z</time>
      </trkpt>
      <trkpt lat="45.45906" lon="5.27035">
        <ele>598.5578613</ele>
        <time>2010-06-27T06:08:59Z</time>
      </trkpt>
      <trkpt lat="45.45919" lon="5.2706">
        <ele>599.5192871</ele>
        <time>2010-06-27T06:09:05Z</time>
      </trkpt>
      <trkpt lat="45.45947" lon="5.2708">
        <ele>600.9611816</ele>
        <time>2010-06-27T06:09:13Z</time>
      </trkpt>
      <trkpt lat="45.45956" lon="5.27086">
        <ele>599.5192871</ele>
        <time>2010-06-27T06:09:16Z</time>
      </trkpt>
      <trkpt lat="45.45967" lon="5.2709">
        <ele>598.5578613</ele>
        <time>2010-06-27T06:09:19Z</time>
      </trkpt>
      <trkpt lat="45.45982" lon="5.27101">
        <ele>598.0773926</ele>
        <time>2010-06-27T06:09:23Z</time>
      </trkpt>
      <trkpt lat="45.45986" lon="5.27103">
        <ele>597.5966797</ele>
        <time>2010-06-27T06:09:24Z</time>
      </trkpt>
      <trkpt lat="45.46011" lon="5.27102">
        <ele>595.1933594</ele>
        <time>2010-06-27T06:09:30Z</time>
      </trkpt>
      <trkpt lat="45.46044" lon="5.27102">
        <ele>593.7514648</ele>
        <time>2010-06-27T06:09:34Z</time>
      </trkpt>
      <trkpt lat="45.46074" lon="5.27125">
        <ele>594.2321777</ele>
        <time>2010-06-27T06:09:40Z</time>
      </trkpt>
      <trkpt lat="45.46102" lon="5.27144">
        <ele>593.270752</ele>
        <time>2010-06-27T06:09:48Z</time>
      </trkpt>
      <trkpt lat="45.46119" lon="5.27149">
        <ele>592.3095703</ele>
        <time>2010-06-27T06:09:54Z</time>
      </trkpt>
      <trkpt lat="45.4614" lon="5.27152">
        <ele>591.3481445</ele>
        <time>2010-06-27T06:10:01Z</time>
      </trkpt>
      <trkpt lat="45.46164" lon="5.27164">
        <ele>591.8288574</ele>
        <time>2010-06-27T06:10:08Z</time>
      </trkpt>
      <trkpt lat="45.4618" lon="5.27174">
        <ele>589.90625</ele>
        <time>2010-06-27T06:10:13Z</time>
      </trkpt>
      <trkpt lat="45.46185" lon="5.27186">
        <ele>589.4255371</ele>
        <time>2010-06-27T06:10:17Z</time>
      </trkpt>
      <trkpt lat="45.46174" lon="5.27202">
        <ele>589.4255371</ele>
        <time>2010-06-27T06:10:22Z</time>
      </trkpt>
      <trkpt lat="45.4616" lon="5.27221">
        <ele>587.5026855</ele>
        <time>2010-06-27T06:10:27Z</time>
      </trkpt>
      <trkpt lat="45.46146" lon="5.2725">
        <ele>586.5415039</ele>
        <time>2010-06-27T06:10:32Z</time>
      </trkpt>
      <trkpt lat="45.46138" lon="5.27258">
        <ele>586.060791</ele>
        <time>2010-06-27T06:10:33Z</time>
      </trkpt>
      <trkpt lat="45.46136" lon="5.27294">
        <ele>583.6574707</ele>
        <time>2010-06-27T06:10:37Z</time>
      </trkpt>
      <trkpt lat="45.46143" lon="5.27324">
        <ele>581.7348633</ele>
        <time>2010-06-27T06:10:41Z</time>
      </trkpt>
      <trkpt lat="45.46159" lon="5.27371">
        <ele>579.331543</ele>
        <time>2010-06-27T06:10:49Z</time>
      </trkpt>
      <trkpt lat="45.46167" lon="5.27393">
        <ele>577.8896484</ele>
        <time>2010-06-27T06:10:52Z</time>
      </trkpt>
      <trkpt lat="45.46168" lon="5.2743">
        <ele>578.3703613</ele>
        <time>2010-06-27T06:10:56Z</time>
      </trkpt>
      <trkpt lat="45.46168" lon="5.27463">
        <ele>577.8896484</ele>
        <time>2010-06-27T06:10:59Z</time>
      </trkpt>
      <trkpt lat="45.46162" lon="5.27522">
        <ele>576.9284668</ele>
        <time>2010-06-27T06:11:05Z</time>
      </trkpt>
      <trkpt lat="45.46158" lon="5.27536">
        <ele>575.4863281</ele>
        <time>2010-06-27T06:11:07Z</time>
      </trkpt>
      <trkpt lat="45.46168" lon="5.27576">
        <ele>572.6025391</ele>
        <time>2010-06-27T06:11:12Z</time>
      </trkpt>
      <trkpt lat="45.46183" lon="5.2758">
        <ele>571.1604004</ele>
        <time>2010-06-27T06:11:16Z</time>
      </trkpt>
      <trkpt lat="45.46205" lon="5.27573">
        <ele>568.2763672</ele>
        <time>2010-06-27T06:11:21Z</time>
      </trkpt>
      <trkpt lat="45.4623" lon="5.27571">
        <ele>565.3925781</ele>
        <time>2010-06-27T06:11:27Z</time>
      </trkpt>
      <trkpt lat="45.46255" lon="5.27573">
        <ele>563.4699707</ele>
        <time>2010-06-27T06:11:33Z</time>
      </trkpt>
      <trkpt lat="45.46275" lon="5.27573">
        <ele>564.4311523</ele>
        <time>2010-06-27T06:11:38Z</time>
      </trkpt>
      <trkpt lat="45.46292" lon="5.27582">
        <ele>563.9504395</ele>
        <time>2010-06-27T06:11:42Z</time>
      </trkpt>
      <trkpt lat="45.46299" lon="5.27588">
        <ele>562.5085449</ele>
        <time>2010-06-27T06:11:44Z</time>
      </trkpt>
      <trkpt lat="45.46327" lon="5.276">
        <ele>561.5473633</ele>
        <time>2010-06-27T06:11:50Z</time>
      </trkpt>
      <trkpt lat="45.46341" lon="5.27601">
        <ele>561.5473633</ele>
        <time>2010-06-27T06:11:54Z</time>
      </trkpt>
      <trkpt lat="45.46346" lon="5.276">
        <ele>561.5473633</ele>
        <time>2010-06-27T06:11:56Z</time>
      </trkpt>
      <trkpt lat="45.46355" lon="5.27598">
        <ele>561.0666504</ele>
        <time>2010-06-27T06:11:59Z</time>
      </trkpt>
      <trkpt lat="45.46382" lon="5.27592">
        <ele>560.1052246</ele>
        <time>2010-06-27T06:12:07Z</time>
      </trkpt>
      <trkpt lat="45.46395" lon="5.2759">
        <ele>557.7021484</ele>
        <time>2010-06-27T06:12:10Z</time>
      </trkpt>
      <trkpt lat="45.46408" lon="5.27589">
        <ele>555.7792969</ele>
        <time>2010-06-27T06:12:16Z</time>
      </trkpt>
      <trkpt lat="45.46432" lon="5.27592">
        <ele>557.2214355</ele>
        <time>2010-06-27T06:12:22Z</time>
      </trkpt>
      <trkpt lat="45.46453" lon="5.27599">
        <ele>559.144043</ele>
        <time>2010-06-27T06:12:26Z</time>
      </trkpt>
      <trkpt lat="45.46472" lon="5.2758">
        <ele>560.1052246</ele>
        <time>2010-06-27T06:12:33Z</time>
      </trkpt>
      <trkpt lat="45.4649" lon="5.27552">
        <ele>560.1052246</ele>
        <time>2010-06-27T06:12:39Z</time>
      </trkpt>
      <trkpt lat="45.46495" lon="5.2754">
        <ele>559.144043</ele>
        <time>2010-06-27T06:12:42Z</time>
      </trkpt>
      <trkpt lat="45.46507" lon="5.27529">
        <ele>558.1828613</ele>
        <time>2010-06-27T06:12:46Z</time>
      </trkpt>
      <trkpt lat="45.46525" lon="5.27539">
        <ele>556.7407227</ele>
        <time>2010-06-27T06:12:50Z</time>
      </trkpt>
      <trkpt lat="45.46546" lon="5.2756">
        <ele>552.4145508</ele>
        <time>2010-06-27T06:12:55Z</time>
      </trkpt>
      <trkpt lat="45.46561" lon="5.27563">
        <ele>549.0500488</ele>
        <time>2010-06-27T06:12:58Z</time>
      </trkpt>
      <trkpt lat="45.46586" lon="5.27566">
        <ele>548.0888672</ele>
        <time>2010-06-27T06:13:01Z</time>
      </trkpt>
      <trkpt lat="45.4662" lon="5.27598">
        <ele>552.4145508</ele>
        <time>2010-06-27T06:13:06Z</time>
      </trkpt>
      <trkpt lat="45.46633" lon="5.27638">
        <ele>551.934082</ele>
        <time>2010-06-27T06:13:13Z</time>
      </trkpt>
      <trkpt lat="45.46628" lon="5.27652">
        <ele>552.4145508</ele>
        <time>2010-06-27T06:13:17Z</time>
      </trkpt>
      <trkpt lat="45.46618" lon="5.27666">
        <ele>553.8566895</ele>
        <time>2010-06-27T06:13:23Z</time>
      </trkpt>
      <trkpt lat="45.46609" lon="5.27678">
        <ele>552.4145508</ele>
        <time>2010-06-27T06:13:31Z</time>
      </trkpt>
      <trkpt lat="45.46607" lon="5.27682">
        <ele>552.4145508</ele>
        <time>2010-06-27T06:13:33Z</time>
      </trkpt>
      <trkpt lat="45.46598" lon="5.27716">
        <ele>557.7021484</ele>
        <time>2010-06-27T06:13:46Z</time>
      </trkpt>
      <trkpt lat="45.46599" lon="5.27733">
        <ele>557.2214355</ele>
        <time>2010-06-27T06:13:53Z</time>
      </trkpt>
      <trkpt lat="45.46599" lon="5.27755">
        <ele>556.7407227</ele>
        <time>2010-06-27T06:14:02Z</time>
      </trkpt>
      <trkpt lat="45.46599" lon="5.27773">
        <ele>558.1828613</ele>
        <time>2010-06-27T06:14:09Z</time>
      </trkpt>
      <trkpt lat="45.46602" lon="5.27799">
        <ele>559.144043</ele>
        <time>2010-06-27T06:14:18Z</time>
      </trkpt>
      <trkpt lat="45.46608" lon="5.27802">
        <ele>560.1052246</ele>
        <time>2010-06-27T06:14:22Z</time>
      </trkpt>
      <trkpt lat="45.46627" lon="5.27772">
        <ele>557.2214355</ele>
        <time>2010-06-27T06:14:32Z</time>
      </trkpt>
      <trkpt lat="45.46644" lon="5.27746">
        <ele>557.7021484</ele>
        <time>2010-06-27T06:14:39Z</time>
      </trkpt>
      <trkpt lat="45.46679" lon="5.27696">
        <ele>562.5085449</ele>
        <time>2010-06-27T06:14:52Z</time>
      </trkpt>
      <trkpt lat="45.46697" lon="5.27686">
        <ele>565.3925781</ele>
        <time>2010-06-27T06:15:00Z</time>
      </trkpt>
      <trkpt lat="45.46722" lon="5.27676">
        <ele>565.873291</ele>
        <time>2010-06-27T06:15:09Z</time>
      </trkpt>
      <trkpt lat="45.4675" lon="5.27667">
        <ele>566.3537598</ele>
        <time>2010-06-27T06:15:17Z</time>
      </trkpt>
      <trkpt lat="45.46761" lon="5.27666">
        <ele>566.8344727</ele>
        <time>2010-06-27T06:15:20Z</time>
      </trkpt>
      <trkpt lat="45.46787" lon="5.27657">
        <ele>564.4311523</ele>
        <time>2010-06-27T06:15:26Z</time>
      </trkpt>
      <trkpt lat="45.46825" lon="5.2763">
        <ele>561.5473633</ele>
        <time>2010-06-27T06:15:32Z</time>
      </trkpt>
      <trkpt lat="45.46875" lon="5.27603">
        <ele>559.6247559</ele>
        <time>2010-06-27T06:15:39Z</time>
      </trkpt>
      <trkpt lat="45.46899" lon="5.27583">
        <ele>558.6633301</ele>
        <time>2010-06-27T06:15:43Z</time>
      </trkpt>
      <trkpt lat="45.46924" lon="5.27552">
        <ele>557.2214355</ele>
        <time>2010-06-27T06:15:48Z</time>
      </trkpt>
      <trkpt lat="45.46955" lon="5.2752">
        <ele>554.3374023</ele>
        <time>2010-06-27T06:15:55Z</time>
      </trkpt>
      <trkpt lat="45.46963" lon="5.2751">
        <ele>553.8566895</ele>
        <time>2010-06-27T06:15:57Z</time>
      </trkpt>
      <trkpt lat="45.46974" lon="5.27494">
        <ele>554.3374023</ele>
        <time>2010-06-27T06:16:00Z</time>
      </trkpt>
      <trkpt lat="45.46984" lon="5.2748">
        <ele>554.8178711</ele>
        <time>2010-06-27T06:16:03Z</time>
      </trkpt>
      <trkpt lat="45.47002" lon="5.27456">
        <ele>555.7792969</ele>
        <time>2010-06-27T06:16:09Z</time>
      </trkpt>
      <trkpt lat="45.47027" lon="5.27429">
        <ele>556.2600098</ele>
        <time>2010-06-27T06:16:15Z</time>
      </trkpt>
      <trkpt lat="45.47052" lon="5.27395">
        <ele>558.1828613</ele>
        <time>2010-06-27T06:16:23Z</time>
      </trkpt>
      <trkpt lat="45.47076" lon="5.27361">
        <ele>560.5859375</ele>
        <time>2010-06-27T06:16:34Z</time>
      </trkpt>
      <trkpt lat="45.47101" lon="5.27328">
        <ele>563.4699707</ele>
        <time>2010-06-27T06:16:45Z</time>
      </trkpt>
      <trkpt lat="45.47132" lon="5.27286">
        <ele>564.9118652</ele>
        <time>2010-06-27T06:16:58Z</time>
      </trkpt>
      <trkpt lat="45.47141" lon="5.27268">
        <ele>564.4311523</ele>
        <time>2010-06-27T06:17:04Z</time>
      </trkpt>
      <trkpt lat="45.47153" lon="5.27217">
        <ele>563.4699707</ele>
        <time>2010-06-27T06:17:14Z</time>
      </trkpt>
      <trkpt lat="45.47143" lon="5.272">
        <ele>563.4699707</ele>
        <time>2010-06-27T06:17:18Z</time>
      </trkpt>
      <trkpt lat="45.47139" lon="5.27197">
        <ele>563.4699707</ele>
        <time>2010-06-27T06:17:19Z</time>
      </trkpt>
      <trkpt lat="45.47131" lon="5.27189">
        <ele>562.5085449</ele>
        <time>2010-06-27T06:17:21Z</time>
      </trkpt>
      <trkpt lat="45.47099" lon="5.2714">
        <ele>561.0666504</ele>
        <time>2010-06-27T06:17:29Z</time>
      </trkpt>
      <trkpt lat="45.47062" lon="5.27068">
        <ele>558.6633301</ele>
        <time>2010-06-27T06:17:38Z</time>
      </trkpt>
      <trkpt lat="45.47046" lon="5.27038">
        <ele>559.144043</ele>
        <time>2010-06-27T06:17:42Z</time>
      </trkpt>
      <trkpt lat="45.47024" lon="5.27014">
        <ele>560.1052246</ele>
        <time>2010-06-27T06:17:48Z</time>
      </trkpt>
      <trkpt lat="45.47011" lon="5.26994">
        <ele>562.9892578</ele>
        <time>2010-06-27T06:17:56Z</time>
      </trkpt>
      <trkpt lat="45.47004" lon="5.26968">
        <ele>565.3925781</ele>
        <time>2010-06-27T06:18:07Z</time>
      </trkpt>
      <trkpt lat="45.47003" lon="5.26945">
        <ele>568.7570801</ele>
        <time>2010-06-27T06:18:17Z</time>
      </trkpt>
      <trkpt lat="45.47002" lon="5.26927">
        <ele>569.7185059</ele>
        <time>2010-06-27T06:18:25Z</time>
      </trkpt>
      <trkpt lat="45.47001" lon="5.26915">
        <ele>569.7185059</ele>
        <time>2010-06-27T06:18:31Z</time>
      </trkpt>
      <trkpt lat="45.46998" lon="5.26891">
        <ele>573.083252</ele>
        <time>2010-06-27T06:18:41Z</time>
      </trkpt>
      <trkpt lat="45.46989" lon="5.26855">
        <ele>577.4091797</ele>
        <time>2010-06-27T06:18:56Z</time>
      </trkpt>
      <trkpt lat="45.46977" lon="5.26833">
        <ele>580.7736816</ele>
        <time>2010-06-27T06:19:08Z</time>
      </trkpt>
      <trkpt lat="45.46968" lon="5.26822">
        <ele>582.2155762</ele>
        <time>2010-06-27T06:19:16Z</time>
      </trkpt>
      <trkpt lat="45.46954" lon="5.26807">
        <ele>584.6188965</ele>
        <time>2010-06-27T06:19:28Z</time>
      </trkpt>
      <trkpt lat="45.46947" lon="5.268">
        <ele>584.6188965</ele>
        <time>2010-06-27T06:19:34Z</time>
      </trkpt>
      <trkpt lat="45.46943" lon="5.26797">
        <ele>584.6188965</ele>
        <time>2010-06-27T06:19:37Z</time>
      </trkpt>
      <trkpt lat="45.46938" lon="5.26792">
        <ele>582.6962891</ele>
        <time>2010-06-27T06:19:41Z</time>
      </trkpt>
      <trkpt lat="45.46935" lon="5.26789">
        <ele>583.6574707</ele>
        <time>2010-06-27T06:19:43Z</time>
      </trkpt>
      <trkpt lat="45.46928" lon="5.26782">
        <ele>583.1767578</ele>
        <time>2010-06-27T06:19:48Z</time>
      </trkpt>
      <trkpt lat="45.46906" lon="5.26768">
        <ele>585.0996094</ele>
        <time>2010-06-27T06:19:59Z</time>
      </trkpt>
      <trkpt lat="45.46891" lon="5.26759">
        <ele>587.0219727</ele>
        <time>2010-06-27T06:20:07Z</time>
      </trkpt>
      <trkpt lat="45.46867" lon="5.2674">
        <ele>587.5026855</ele>
        <time>2010-06-27T06:20:17Z</time>
      </trkpt>
      <trkpt lat="45.46832" lon="5.26713">
        <ele>588.9450684</ele>
        <time>2010-06-27T06:20:30Z</time>
      </trkpt>
      <trkpt lat="45.46802" lon="5.26698">
        <ele>591.3481445</ele>
        <time>2010-06-27T06:20:40Z</time>
      </trkpt>
      <trkpt lat="45.46776" lon="5.26694">
        <ele>591.3481445</ele>
        <time>2010-06-27T06:20:49Z</time>
      </trkpt>
      <trkpt lat="45.46757" lon="5.26678">
        <ele>591.3481445</ele>
        <time>2010-06-27T06:20:56Z</time>
      </trkpt>
      <trkpt lat="45.46737" lon="5.26656">
        <ele>590.3869629</ele>
        <time>2010-06-27T06:21:05Z</time>
      </trkpt>
      <trkpt lat="45.46721" lon="5.26636">
        <ele>590.3869629</ele>
        <time>2010-06-27T06:21:13Z</time>
      </trkpt>
      <trkpt lat="45.46691" lon="5.26605">
        <ele>590.8674316</ele>
        <time>2010-06-27T06:21:24Z</time>
      </trkpt>
      <trkpt lat="45.46666" lon="5.26595">
        <ele>589.90625</ele>
        <time>2010-06-27T06:21:31Z</time>
      </trkpt>
      <trkpt lat="45.46635" lon="5.26592">
        <ele>589.4255371</ele>
        <time>2010-06-27T06:21:39Z</time>
      </trkpt>
      <trkpt lat="45.46608" lon="5.26588">
        <ele>589.90625</ele>
        <time>2010-06-27T06:21:46Z</time>
      </trkpt>
      <trkpt lat="45.4657" lon="5.2657">
        <ele>589.4255371</ele>
        <time>2010-06-27T06:21:56Z</time>
      </trkpt>
      <trkpt lat="45.46546" lon="5.26554">
        <ele>588.9450684</ele>
        <time>2010-06-27T06:22:03Z</time>
      </trkpt>
      <trkpt lat="45.46519" lon="5.26535">
        <ele>589.4255371</ele>
        <time>2010-06-27T06:22:11Z</time>
      </trkpt>
      <trkpt lat="45.46494" lon="5.26515">
        <ele>590.3869629</ele>
        <time>2010-06-27T06:22:19Z</time>
      </trkpt>
      <trkpt lat="45.4647" lon="5.26499">
        <ele>590.8674316</ele>
        <time>2010-06-27T06:22:28Z</time>
      </trkpt>
      <trkpt lat="45.4646" lon="5.26496">
        <ele>591.3481445</ele>
        <time>2010-06-27T06:22:32Z</time>
      </trkpt>
      <trkpt lat="45.46444" lon="5.26486">
        <ele>591.3481445</ele>
        <time>2010-06-27T06:22:40Z</time>
      </trkpt>
      <trkpt lat="45.46442" lon="5.26484">
        <ele>591.3481445</ele>
        <time>2010-06-27T06:22:41Z</time>
      </trkpt>
      <trkpt lat="45.4643" lon="5.26476">
        <ele>594.2321777</ele>
        <time>2010-06-27T06:22:48Z</time>
      </trkpt>
      <trkpt lat="45.46413" lon="5.26466">
        <ele>596.1547852</ele>
        <time>2010-06-27T06:22:56Z</time>
      </trkpt>
      <trkpt lat="45.46392" lon="5.26456">
        <ele>598.5578613</ele>
        <time>2010-06-27T06:23:07Z</time>
      </trkpt>
      <trkpt lat="45.46365" lon="5.26438">
        <ele>599.0385742</ele>
        <time>2010-06-27T06:23:18Z</time>
      </trkpt>
      <trkpt lat="45.46339" lon="5.26419">
        <ele>597.5966797</ele>
        <time>2010-06-27T06:23:28Z</time>
      </trkpt>
      <trkpt lat="45.46314" lon="5.26395">
        <ele>597.5966797</ele>
        <time>2010-06-27T06:23:36Z</time>
      </trkpt>
      <trkpt lat="45.46293" lon="5.26387">
        <ele>597.5966797</ele>
        <time>2010-06-27T06:23:42Z</time>
      </trkpt>
      <trkpt lat="45.4628" lon="5.26386">
        <ele>597.1159668</ele>
        <time>2010-06-27T06:23:47Z</time>
      </trkpt>
      <trkpt lat="45.46275" lon="5.26387">
        <ele>597.1159668</ele>
        <time>2010-06-27T06:23:49Z</time>
      </trkpt>
      <trkpt lat="45.46265" lon="5.26389">
        <ele>597.5966797</ele>
        <time>2010-06-27T06:23:53Z</time>
      </trkpt>
      <trkpt lat="45.46246" lon="5.26394">
        <ele>596.635498</ele>
        <time>2010-06-27T06:24:02Z</time>
      </trkpt>
      <trkpt lat="45.46241" lon="5.26393">
        <ele>596.1547852</ele>
        <time>2010-06-27T06:24:08Z</time>
      </trkpt>
      <trkpt lat="45.46236" lon="5.26391">
        <ele>596.635498</ele>
        <time>2010-06-27T06:24:14Z</time>
      </trkpt>
      <trkpt lat="45.46233" lon="5.26388">
        <ele>596.1547852</ele>
        <time>2010-06-27T06:24:21Z</time>
      </trkpt>
      <trkpt lat="45.46232" lon="5.26387">
        <ele>596.1547852</ele>
        <time>2010-06-27T06:24:22Z</time>
      </trkpt>
      <trkpt lat="45.46228" lon="5.26382">
        <ele>596.1547852</ele>
        <time>2010-06-27T06:24:26Z</time>
      </trkpt>
      <trkpt lat="45.4622" lon="5.26377">
        <ele>596.635498</ele>
        <time>2010-06-27T06:24:34Z</time>
      </trkpt>
      <trkpt lat="45.46213" lon="5.26375">
        <ele>597.1159668</ele>
        <time>2010-06-27T06:24:40Z</time>
      </trkpt>
      <trkpt lat="45.46212" lon="5.26375">
        <ele>597.5966797</ele>
        <time>2010-06-27T06:24:41Z</time>
      </trkpt>
      <trkpt lat="45.46202" lon="5.26374">
        <ele>598.5578613</ele>
        <time>2010-06-27T06:24:49Z</time>
      </trkpt>
      <trkpt lat="45.462" lon="5.26375">
        <ele>598.5578613</ele>
        <time>2010-06-27T06:24:50Z</time>
      </trkpt>
      <trkpt lat="45.46191" lon="5.26376">
        <ele>600</ele>
        <time>2010-06-27T06:24:57Z</time>
      </trkpt>
      <trkpt lat="45.46189" lon="5.26377">
        <ele>600</ele>
        <time>2010-06-27T06:24:58Z</time>
      </trkpt>
      <trkpt lat="45.46178" lon="5.26376">
        <ele>600.4807129</ele>
        <time>2010-06-27T06:25:05Z</time>
      </trkpt>
      <trkpt lat="45.46169" lon="5.26375">
        <ele>601.4418945</ele>
        <time>2010-06-27T06:25:10Z</time>
      </trkpt>
      <trkpt lat="45.46168" lon="5.26375">
        <ele>601.9226074</ele>
        <time>2010-06-27T06:25:11Z</time>
      </trkpt>
      <trkpt lat="45.46166" lon="5.26374">
        <ele>601.9226074</ele>
        <time>2010-06-27T06:25:13Z</time>
      </trkpt>
      <trkpt lat="45.46155" lon="5.26375">
        <ele>602.4030762</ele>
        <time>2010-06-27T06:25:20Z</time>
      </trkpt>
      <trkpt lat="45.46144" lon="5.26378">
        <ele>603.8452148</ele>
        <time>2010-06-27T06:25:27Z</time>
      </trkpt>
      <trkpt lat="45.46141" lon="5.26379">
        <ele>604.8066406</ele>
        <time>2010-06-27T06:25:29Z</time>
      </trkpt>
      <trkpt lat="45.46132" lon="5.2639">
        <ele>603.364502</ele>
        <time>2010-06-27T06:25:35Z</time>
      </trkpt>
      <trkpt lat="45.46115" lon="5.26396">
        <ele>602.8837891</ele>
        <time>2010-06-27T06:25:43Z</time>
      </trkpt>
      <trkpt lat="45.46101" lon="5.264">
        <ele>602.8837891</ele>
        <time>2010-06-27T06:25:49Z</time>
      </trkpt>
      <trkpt lat="45.46095" lon="5.26399">
        <ele>601.9226074</ele>
        <time>2010-06-27T06:25:52Z</time>
      </trkpt>
      <trkpt lat="45.46085" lon="5.26393">
        <ele>601.4418945</ele>
        <time>2010-06-27T06:25:56Z</time>
      </trkpt>
      <trkpt lat="45.46077" lon="5.26371">
        <ele>600.4807129</ele>
        <time>2010-06-27T06:26:02Z</time>
      </trkpt>
      <trkpt lat="45.46075" lon="5.26338">
        <ele>599.0385742</ele>
        <time>2010-06-27T06:26:11Z</time>
      </trkpt>
      <trkpt lat="45.46076" lon="5.26317">
        <ele>598.5578613</ele>
        <time>2010-06-27T06:26:17Z</time>
      </trkpt>
      <trkpt lat="45.46074" lon="5.26299">
        <ele>598.0773926</ele>
        <time>2010-06-27T06:26:24Z</time>
      </trkpt>
      <trkpt lat="45.46073" lon="5.26279">
        <ele>597.5966797</ele>
        <time>2010-06-27T06:26:30Z</time>
      </trkpt>
      <trkpt lat="45.4608" lon="5.26257">
        <ele>598.0773926</ele>
        <time>2010-06-27T06:26:39Z</time>
      </trkpt>
      <trkpt lat="45.46085" lon="5.26249">
        <ele>599.0385742</ele>
        <time>2010-06-27T06:26:43Z</time>
      </trkpt>
      <trkpt lat="45.46092" lon="5.26245">
        <ele>600.4807129</ele>
        <time>2010-06-27T06:26:48Z</time>
      </trkpt>
      <trkpt lat="45.46097" lon="5.26239">
        <ele>600.4807129</ele>
        <time>2010-06-27T06:26:52Z</time>
      </trkpt>
      <trkpt lat="45.46096" lon="5.26212">
        <ele>599.5192871</ele>
        <time>2010-06-27T06:27:02Z</time>
      </trkpt>
      <trkpt lat="45.46091" lon="5.2619">
        <ele>600</ele>
        <time>2010-06-27T06:27:10Z</time>
      </trkpt>
      <trkpt lat="45.4609" lon="5.26181">
        <ele>600</ele>
        <time>2010-06-27T06:27:17Z</time>
      </trkpt>
      <trkpt lat="45.4609" lon="5.26178">
        <ele>599.5192871</ele>
        <time>2010-06-27T06:27:23Z</time>
      </trkpt>
      <trkpt lat="45.4609" lon="5.26177">
        <ele>599.5192871</ele>
        <time>2010-06-27T06:27:35Z</time>
      </trkpt>
      <trkpt lat="45.4609" lon="5.26179">
        <ele>598.5578613</ele>
        <time>2010-06-27T06:29:35Z</time>
      </trkpt>
      <trkpt lat="45.46091" lon="5.26185">
        <ele>600</ele>
        <time>2010-06-27T06:29:41Z</time>
      </trkpt>
      <trkpt lat="45.46092" lon="5.26191">
        <ele>600</ele>
        <time>2010-06-27T06:29:49Z</time>
      </trkpt>
      <trkpt lat="45.46097" lon="5.26213">
        <ele>600.9611816</ele>
        <time>2010-06-27T06:29:59Z</time>
      </trkpt>
      <trkpt lat="45.46097" lon="5.26231">
        <ele>601.4418945</ele>
        <time>2010-06-27T06:30:08Z</time>
      </trkpt>
      <trkpt lat="45.46091" lon="5.26243">
        <ele>600.9611816</ele>
        <time>2010-06-27T06:30:16Z</time>
      </trkpt>
      <trkpt lat="45.46086" lon="5.26244">
        <ele>600.9611816</ele>
        <time>2010-06-27T06:30:24Z</time>
      </trkpt>
      <trkpt lat="45.46085" lon="5.26245">
        <ele>600.9611816</ele>
        <time>2010-06-27T06:30:51Z</time>
      </trkpt>
      <trkpt lat="45.46085" lon="5.26246">
        <ele>601.4418945</ele>
        <time>2010-06-27T06:31:18Z</time>
      </trkpt>
      <trkpt lat="45.46085" lon="5.26246">
        <ele>601.4418945</ele>
        <time>2010-06-27T06:31:21Z</time>
      </trkpt>
      <trkpt lat="45.46081" lon="5.26255">
        <ele>602.4030762</ele>
        <time>2010-06-27T06:31:26Z</time>
      </trkpt>
      <trkpt lat="45.46077" lon="5.26261">
        <ele>602.4030762</ele>
        <time>2010-06-27T06:31:30Z</time>
      </trkpt>
      <trkpt lat="45.46076" lon="5.26267">
        <ele>603.364502</ele>
        <time>2010-06-27T06:31:37Z</time>
      </trkpt>
      <trkpt lat="45.46076" lon="5.26266">
        <ele>602.8837891</ele>
        <time>2010-06-27T06:31:39Z</time>
      </trkpt>
      <trkpt lat="45.46082" lon="5.26256">
        <ele>602.4030762</ele>
        <time>2010-06-27T06:31:48Z</time>
      </trkpt>
      <trkpt lat="45.46088" lon="5.26246">
        <ele>602.4030762</ele>
        <time>2010-06-27T06:31:54Z</time>
      </trkpt>
      <trkpt lat="45.46097" lon="5.2624">
        <ele>602.8837891</ele>
        <time>2010-06-27T06:32:01Z</time>
      </trkpt>
      <trkpt lat="45.46099" lon="5.26231">
        <ele>602.8837891</ele>
        <time>2010-06-27T06:32:08Z</time>
      </trkpt>
      <trkpt lat="45.46098" lon="5.26231">
        <ele>602.8837891</ele>
        <time>2010-06-27T06:32:25Z</time>
      </trkpt>
      <trkpt lat="45.46095" lon="5.26209">
        <ele>601.9226074</ele>
        <time>2010-06-27T06:32:34Z</time>
      </trkpt>
      <trkpt lat="45.46089" lon="5.26182">
        <ele>600.4807129</ele>
        <time>2010-06-27T06:32:43Z</time>
      </trkpt>
      <trkpt lat="45.46076" lon="5.2614">
        <ele>601.4418945</ele>
        <time>2010-06-27T06:32:54Z</time>
      </trkpt>
      <trkpt lat="45.46065" lon="5.26105">
        <ele>601.4418945</ele>
        <time>2010-06-27T06:33:03Z</time>
      </trkpt>
      <trkpt lat="45.46062" lon="5.26075">
        <ele>599.0385742</ele>
        <time>2010-06-27T06:33:10Z</time>
      </trkpt>
      <trkpt lat="45.46061" lon="5.26052">
        <ele>599.0385742</ele>
        <time>2010-06-27T06:33:15Z</time>
      </trkpt>
      <trkpt lat="45.46062" lon="5.2601">
        <ele>598.5578613</ele>
        <time>2010-06-27T06:33:23Z</time>
      </trkpt>
      <trkpt lat="45.46064" lon="5.25988">
        <ele>598.0773926</ele>
        <time>2010-06-27T06:33:28Z</time>
      </trkpt>
      <trkpt lat="45.46069" lon="5.25958">
        <ele>601.4418945</ele>
        <time>2010-06-27T06:33:34Z</time>
      </trkpt>
      <trkpt lat="45.46082" lon="5.25932">
        <ele>598.0773926</ele>
        <time>2010-06-27T06:33:39Z</time>
      </trkpt>
      <trkpt lat="45.46089" lon="5.25911">
        <ele>599.0385742</ele>
        <time>2010-06-27T06:33:43Z</time>
      </trkpt>
      <trkpt lat="45.46098" lon="5.25852">
        <ele>599.0385742</ele>
        <time>2010-06-27T06:33:53Z</time>
      </trkpt>
      <trkpt lat="45.46098" lon="5.25795">
        <ele>598.5578613</ele>
        <time>2010-06-27T06:34:04Z</time>
      </trkpt>
      <trkpt lat="45.46091" lon="5.25771">
        <ele>600</ele>
        <time>2010-06-27T06:34:10Z</time>
      </trkpt>
      <trkpt lat="45.461" lon="5.25762">
        <ele>600.4807129</ele>
        <time>2010-06-27T06:34:15Z</time>
      </trkpt>
      <trkpt lat="45.46117" lon="5.25766">
        <ele>600.4807129</ele>
        <time>2010-06-27T06:34:21Z</time>
      </trkpt>
      <trkpt lat="45.46144" lon="5.25769">
        <ele>600.4807129</ele>
        <time>2010-06-27T06:34:26Z</time>
      </trkpt>
      <trkpt lat="45.46193" lon="5.25774">
        <ele>598.0773926</ele>
        <time>2010-06-27T06:34:34Z</time>
      </trkpt>
      <trkpt lat="45.46226" lon="5.25779">
        <ele>598.5578613</ele>
        <time>2010-06-27T06:34:40Z</time>
      </trkpt>
      <trkpt lat="45.46242" lon="5.25783">
        <ele>599.0385742</ele>
        <time>2010-06-27T06:34:43Z</time>
      </trkpt>
      <trkpt lat="45.46258" lon="5.25785">
        <ele>598.5578613</ele>
        <time>2010-06-27T06:34:47Z</time>
      </trkpt>
      <trkpt lat="45.46279" lon="5.25783">
        <ele>597.1159668</ele>
        <time>2010-06-27T06:34:52Z</time>
      </trkpt>
      <trkpt lat="45.46329" lon="5.25792">
        <ele>597.1159668</ele>
        <time>2010-06-27T06:34:58Z</time>
      </trkpt>
      <trkpt lat="45.46346" lon="5.25798">
        <ele>596.635498</ele>
        <time>2010-06-27T06:35:00Z</time>
      </trkpt>
      <trkpt lat="45.46421" lon="5.25818">
        <ele>598.0773926</ele>
        <time>2010-06-27T06:35:10Z</time>
      </trkpt>
      <trkpt lat="45.46444" lon="5.25824">
        <ele>598.5578613</ele>
        <time>2010-06-27T06:35:14Z</time>
      </trkpt>
      <trkpt lat="45.46467" lon="5.2582">
        <ele>598.5578613</ele>
        <time>2010-06-27T06:35:18Z</time>
      </trkpt>
      <trkpt lat="45.46514" lon="5.25809">
        <ele>598.5578613</ele>
        <time>2010-06-27T06:35:24Z</time>
      </trkpt>
      <trkpt lat="45.46521" lon="5.25808">
        <ele>599.0385742</ele>
        <time>2010-06-27T06:35:25Z</time>
      </trkpt>
      <trkpt lat="45.46556" lon="5.25807">
        <ele>600.4807129</ele>
        <time>2010-06-27T06:35:30Z</time>
      </trkpt>
      <trkpt lat="45.466" lon="5.25795">
        <ele>598.5578613</ele>
        <time>2010-06-27T06:35:36Z</time>
      </trkpt>
      <trkpt lat="45.46599" lon="5.25772">
        <ele>591.8288574</ele>
        <time>2010-06-27T06:35:41Z</time>
      </trkpt>
      <trkpt lat="45.46586" lon="5.25737">
        <ele>588.9450684</ele>
        <time>2010-06-27T06:35:49Z</time>
      </trkpt>
      <trkpt lat="45.46577" lon="5.25716">
        <ele>588.9450684</ele>
        <time>2010-06-27T06:35:56Z</time>
      </trkpt>
      <trkpt lat="45.4657" lon="5.25699">
        <ele>591.3481445</ele>
        <time>2010-06-27T06:36:02Z</time>
      </trkpt>
      <trkpt lat="45.46554" lon="5.25664">
        <ele>590.8674316</ele>
        <time>2010-06-27T06:36:13Z</time>
      </trkpt>
      <trkpt lat="45.46539" lon="5.25624">
        <ele>592.7902832</ele>
        <time>2010-06-27T06:36:27Z</time>
      </trkpt>
      <trkpt lat="45.46543" lon="5.25595">
        <ele>593.7514648</ele>
        <time>2010-06-27T06:36:36Z</time>
      </trkpt>
      <trkpt lat="45.46551" lon="5.25552">
        <ele>593.270752</ele>
        <time>2010-06-27T06:36:49Z</time>
      </trkpt>
      <trkpt lat="45.46554" lon="5.25527">
        <ele>594.2321777</ele>
        <time>2010-06-27T06:36:57Z</time>
      </trkpt>
      <trkpt lat="45.46559" lon="5.25496">
        <ele>593.7514648</ele>
        <time>2010-06-27T06:37:06Z</time>
      </trkpt>
      <trkpt lat="45.46559" lon="5.25481">
        <ele>593.7514648</ele>
        <time>2010-06-27T06:37:10Z</time>
      </trkpt>
      <trkpt lat="45.4656" lon="5.25465">
        <ele>592.7902832</ele>
        <time>2010-06-27T06:37:14Z</time>
      </trkpt>
      <trkpt lat="45.4656" lon="5.25444">
        <ele>590.8674316</ele>
        <time>2010-06-27T06:37:20Z</time>
      </trkpt>
      <trkpt lat="45.46559" lon="5.25424">
        <ele>592.3095703</ele>
        <time>2010-06-27T06:37:27Z</time>
      </trkpt>
      <trkpt lat="45.46559" lon="5.25415">
        <ele>592.3095703</ele>
        <time>2010-06-27T06:37:30Z</time>
      </trkpt>
      <trkpt lat="45.46562" lon="5.254">
        <ele>591.8288574</ele>
        <time>2010-06-27T06:37:34Z</time>
      </trkpt>
      <trkpt lat="45.46559" lon="5.25357">
        <ele>589.90625</ele>
        <time>2010-06-27T06:37:42Z</time>
      </trkpt>
      <trkpt lat="45.46559" lon="5.2532">
        <ele>587.9833984</ele>
        <time>2010-06-27T06:37:47Z</time>
      </trkpt>
      <trkpt lat="45.46558" lon="5.25314">
        <ele>587.5026855</ele>
        <time>2010-06-27T06:37:48Z</time>
      </trkpt>
      <trkpt lat="45.46549" lon="5.25276">
        <ele>585.5800781</ele>
        <time>2010-06-27T06:37:55Z</time>
      </trkpt>
      <trkpt lat="45.46556" lon="5.25266">
        <ele>586.060791</ele>
        <time>2010-06-27T06:38:00Z</time>
      </trkpt>
      <trkpt lat="45.46558" lon="5.25269">
        <ele>586.060791</ele>
        <time>2010-06-27T06:38:01Z</time>
      </trkpt>
      <trkpt lat="45.46574" lon="5.2529">
        <ele>587.9833984</ele>
        <time>2010-06-27T06:38:08Z</time>
      </trkpt>
      <trkpt lat="45.46588" lon="5.25311">
        <ele>588.9450684</ele>
        <time>2010-06-27T06:38:14Z</time>
      </trkpt>
      <trkpt lat="45.4661" lon="5.25334">
        <ele>589.90625</ele>
        <time>2010-06-27T06:38:21Z</time>
      </trkpt>
      <trkpt lat="45.46628" lon="5.25354">
        <ele>591.8288574</ele>
        <time>2010-06-27T06:38:27Z</time>
      </trkpt>
      <trkpt lat="45.46632" lon="5.2536">
        <ele>592.3095703</ele>
        <time>2010-06-27T06:38:29Z</time>
      </trkpt>
      <trkpt lat="45.46647" lon="5.25378">
        <ele>594.2321777</ele>
        <time>2010-06-27T06:38:36Z</time>
      </trkpt>
      <trkpt lat="45.46669" lon="5.25393">
        <ele>596.1547852</ele>
        <time>2010-06-27T06:38:41Z</time>
      </trkpt>
      <trkpt lat="45.46688" lon="5.25417">
        <ele>598.5578613</ele>
        <time>2010-06-27T06:38:47Z</time>
      </trkpt>
      <trkpt lat="45.4671" lon="5.25451">
        <ele>600.9611816</ele>
        <time>2010-06-27T06:38:53Z</time>
      </trkpt>
      <trkpt lat="45.46717" lon="5.25468">
        <ele>602.4030762</ele>
        <time>2010-06-27T06:38:56Z</time>
      </trkpt>
      <trkpt lat="45.46745" lon="5.25491">
        <ele>601.9226074</ele>
        <time>2010-06-27T06:39:01Z</time>
      </trkpt>
      <trkpt lat="45.46749" lon="5.25484">
        <ele>602.4030762</ele>
        <time>2010-06-27T06:39:07Z</time>
      </trkpt>
      <trkpt lat="45.46758" lon="5.25463">
        <ele>599.5192871</ele>
        <time>2010-06-27T06:39:13Z</time>
      </trkpt>
      <trkpt lat="45.46765" lon="5.2544">
        <ele>594.2321777</ele>
        <time>2010-06-27T06:39:19Z</time>
      </trkpt>
      <trkpt lat="45.46772" lon="5.25425">
        <ele>592.3095703</ele>
        <time>2010-06-27T06:39:24Z</time>
      </trkpt>
      <trkpt lat="45.46788" lon="5.25394">
        <ele>587.0219727</ele>
        <time>2010-06-27T06:39:31Z</time>
      </trkpt>
      <trkpt lat="45.46796" lon="5.25377">
        <ele>582.6962891</ele>
        <time>2010-06-27T06:39:34Z</time>
      </trkpt>
      <trkpt lat="45.46806" lon="5.25355">
        <ele>584.6188965</ele>
        <time>2010-06-27T06:39:37Z</time>
      </trkpt>
      <trkpt lat="45.4681" lon="5.25315">
        <ele>578.8510742</ele>
        <time>2010-06-27T06:39:42Z</time>
      </trkpt>
      <trkpt lat="45.46817" lon="5.25285">
        <ele>577.8896484</ele>
        <time>2010-06-27T06:39:48Z</time>
      </trkpt>
      <trkpt lat="45.46827" lon="5.25274">
        <ele>580.2929688</ele>
        <time>2010-06-27T06:39:54Z</time>
      </trkpt>
      <trkpt lat="45.46847" lon="5.25258">
        <ele>581.2543945</ele>
        <time>2010-06-27T06:40:02Z</time>
      </trkpt>
      <trkpt lat="45.46866" lon="5.25241">
        <ele>580.2929688</ele>
        <time>2010-06-27T06:40:09Z</time>
      </trkpt>
      <trkpt lat="45.4687" lon="5.25238">
        <ele>579.8122559</ele>
        <time>2010-06-27T06:40:10Z</time>
      </trkpt>
      <trkpt lat="45.46884" lon="5.25219">
        <ele>579.331543</ele>
        <time>2010-06-27T06:40:15Z</time>
      </trkpt>
      <trkpt lat="45.46892" lon="5.25211">
        <ele>579.8122559</ele>
        <time>2010-06-27T06:40:18Z</time>
      </trkpt>
      <trkpt lat="45.469" lon="5.25204">
        <ele>580.7736816</ele>
        <time>2010-06-27T06:40:20Z</time>
      </trkpt>
      <trkpt lat="45.46923" lon="5.25195">
        <ele>582.2155762</ele>
        <time>2010-06-27T06:40:27Z</time>
      </trkpt>
      <trkpt lat="45.46939" lon="5.25192">
        <ele>582.6962891</ele>
        <time>2010-06-27T06:40:33Z</time>
      </trkpt>
      <trkpt lat="45.46949" lon="5.25188">
        <ele>583.6574707</ele>
        <time>2010-06-27T06:40:37Z</time>
      </trkpt>
      <trkpt lat="45.46951" lon="5.25187">
        <ele>583.6574707</ele>
        <time>2010-06-27T06:40:38Z</time>
      </trkpt>
      <trkpt lat="45.46967" lon="5.25181">
        <ele>582.2155762</ele>
        <time>2010-06-27T06:40:44Z</time>
      </trkpt>
      <trkpt lat="45.4697" lon="5.25177">
        <ele>582.2155762</ele>
        <time>2010-06-27T06:40:45Z</time>
      </trkpt>
      <trkpt lat="45.46984" lon="5.25161">
        <ele>580.7736816</ele>
        <time>2010-06-27T06:40:51Z</time>
      </trkpt>
      <trkpt lat="45.46998" lon="5.25151">
        <ele>579.8122559</ele>
        <time>2010-06-27T06:40:55Z</time>
      </trkpt>
      <trkpt lat="45.47021" lon="5.25135">
        <ele>579.8122559</ele>
        <time>2010-06-27T06:41:01Z</time>
      </trkpt>
      <trkpt lat="45.47044" lon="5.25098">
        <ele>579.331543</ele>
        <time>2010-06-27T06:41:08Z</time>
      </trkpt>
      <trkpt lat="45.47074" lon="5.2503">
        <ele>575.4863281</ele>
        <time>2010-06-27T06:41:13Z</time>
      </trkpt>
      <trkpt lat="45.47079" lon="5.25014">
        <ele>574.0444336</ele>
        <time>2010-06-27T06:41:16Z</time>
      </trkpt>
      <trkpt lat="45.47095" lon="5.24983">
        <ele>570.1989746</ele>
        <time>2010-06-27T06:41:21Z</time>
      </trkpt>
      <trkpt lat="45.47107" lon="5.24942">
        <ele>564.9118652</ele>
        <time>2010-06-27T06:41:26Z</time>
      </trkpt>
      <trkpt lat="45.47118" lon="5.24907">
        <ele>561.0666504</ele>
        <time>2010-06-27T06:41:31Z</time>
      </trkpt>
      <trkpt lat="45.47128" lon="5.24875">
        <ele>556.7407227</ele>
        <time>2010-06-27T06:41:37Z</time>
      </trkpt>
      <trkpt lat="45.47141" lon="5.2485">
        <ele>554.3374023</ele>
        <time>2010-06-27T06:41:42Z</time>
      </trkpt>
      <trkpt lat="45.47153" lon="5.2483">
        <ele>552.8952637</ele>
        <time>2010-06-27T06:41:48Z</time>
      </trkpt>
      <trkpt lat="45.47177" lon="5.24795">
        <ele>549.5307617</ele>
        <time>2010-06-27T06:41:58Z</time>
      </trkpt>
      <trkpt lat="45.47191" lon="5.24765">
        <ele>547.6081543</ele>
        <time>2010-06-27T06:42:03Z</time>
      </trkpt>
      <trkpt lat="45.47206" lon="5.24734">
        <ele>545.204834</ele>
        <time>2010-06-27T06:42:10Z</time>
      </trkpt>
      <trkpt lat="45.47208" lon="5.24728">
        <ele>544.7242432</ele>
        <time>2010-06-27T06:42:11Z</time>
      </trkpt>
      <trkpt lat="45.47216" lon="5.24715">
        <ele>545.6855469</ele>
        <time>2010-06-27T06:42:15Z</time>
      </trkpt>
      <trkpt lat="45.47244" lon="5.2469">
        <ele>544.7242432</ele>
        <time>2010-06-27T06:42:22Z</time>
      </trkpt>
      <trkpt lat="45.47276" lon="5.24661">
        <ele>544.7242432</ele>
        <time>2010-06-27T06:42:27Z</time>
      </trkpt>
      <trkpt lat="45.47297" lon="5.24636">
        <ele>544.2436523</ele>
        <time>2010-06-27T06:42:31Z</time>
      </trkpt>
      <trkpt lat="45.47325" lon="5.24616">
        <ele>543.7628174</ele>
        <time>2010-06-27T06:42:37Z</time>
      </trkpt>
      <trkpt lat="45.47341" lon="5.24589">
        <ele>542.3209229</ele>
        <time>2010-06-27T06:42:42Z</time>
      </trkpt>
      <trkpt lat="45.47379" lon="5.24519">
        <ele>531.7463379</ele>
        <time>2010-06-27T06:42:51Z</time>
      </trkpt>
      <trkpt lat="45.47393" lon="5.24492">
        <ele>529.3431396</ele>
        <time>2010-06-27T06:42:55Z</time>
      </trkpt>
      <trkpt lat="45.47402" lon="5.24466">
        <ele>525.9783936</ele>
        <time>2010-06-27T06:43:00Z</time>
      </trkpt>
      <trkpt lat="45.47399" lon="5.24463">
        <ele>525.9783936</ele>
        <time>2010-06-27T06:43:05Z</time>
      </trkpt>
      <trkpt lat="45.47399" lon="5.24461">
        <ele>524.0557861</ele>
        <time>2010-06-27T06:43:13Z</time>
      </trkpt>
      <trkpt lat="45.47397" lon="5.24463">
        <ele>524.0557861</ele>
        <time>2010-06-27T06:51:29Z</time>
      </trkpt>
      <trkpt lat="45.47393" lon="5.2446">
        <ele>524.0557861</ele>
        <time>2010-06-27T06:51:48Z</time>
      </trkpt>
      <trkpt lat="45.47392" lon="5.24458">
        <ele>524.0557861</ele>
        <time>2010-06-27T06:51:49Z</time>
      </trkpt>
      <trkpt lat="45.47387" lon="5.24444">
        <ele>523.0946045</ele>
        <time>2010-06-27T06:51:57Z</time>
      </trkpt>
      <trkpt lat="45.47379" lon="5.24426">
        <ele>523.0946045</ele>
        <time>2010-06-27T06:52:02Z</time>
      </trkpt>
      <trkpt lat="45.47363" lon="5.24379">
        <ele>522.1331787</ele>
        <time>2010-06-27T06:52:10Z</time>
      </trkpt>
      <trkpt lat="45.47356" lon="5.24356">
        <ele>522.1331787</ele>
        <time>2010-06-27T06:52:14Z</time>
      </trkpt>
      <trkpt lat="45.47352" lon="5.24345">
        <ele>522.1331787</ele>
        <time>2010-06-27T06:52:16Z</time>
      </trkpt>
      <trkpt lat="45.47339" lon="5.24306">
        <ele>522.1331787</ele>
        <time>2010-06-27T06:52:24Z</time>
      </trkpt>
      <trkpt lat="45.4733" lon="5.24272">
        <ele>523.5751953</ele>
        <time>2010-06-27T06:52:32Z</time>
      </trkpt>
      <trkpt lat="45.47331" lon="5.24262">
        <ele>524.0557861</ele>
        <time>2010-06-27T06:52:36Z</time>
      </trkpt>
      <trkpt lat="45.4734" lon="5.24245">
        <ele>526.4591064</ele>
        <time>2010-06-27T06:52:48Z</time>
      </trkpt>
      <trkpt lat="45.47348" lon="5.24233">
        <ele>529.3431396</ele>
        <time>2010-06-27T06:52:57Z</time>
      </trkpt>
      <trkpt lat="45.47354" lon="5.2421">
        <ele>533.1883545</ele>
        <time>2010-06-27T06:53:09Z</time>
      </trkpt>
      <trkpt lat="45.47349" lon="5.24186">
        <ele>536.0723877</ele>
        <time>2010-06-27T06:53:21Z</time>
      </trkpt>
      <trkpt lat="45.47339" lon="5.24169">
        <ele>538.475708</ele>
        <time>2010-06-27T06:53:32Z</time>
      </trkpt>
      <trkpt lat="45.47338" lon="5.24168">
        <ele>538.475708</ele>
        <time>2010-06-27T06:53:33Z</time>
      </trkpt>
      <trkpt lat="45.47328" lon="5.24159">
        <ele>538.9562988</ele>
        <time>2010-06-27T06:53:40Z</time>
      </trkpt>
      <trkpt lat="45.4732" lon="5.24158">
        <ele>537.5142822</ele>
        <time>2010-06-27T06:53:44Z</time>
      </trkpt>
      <trkpt lat="45.47308" lon="5.24148">
        <ele>536.0723877</ele>
        <time>2010-06-27T06:53:53Z</time>
      </trkpt>
      <trkpt lat="45.4729" lon="5.24131">
        <ele>534.1496582</ele>
        <time>2010-06-27T06:54:08Z</time>
      </trkpt>
      <trkpt lat="45.47288" lon="5.24128">
        <ele>533.6689453</ele>
        <time>2010-06-27T06:54:10Z</time>
      </trkpt>
      <trkpt lat="45.47284" lon="5.24126">
        <ele>533.6689453</ele>
        <time>2010-06-27T06:54:13Z</time>
      </trkpt>
      <trkpt lat="45.47274" lon="5.24115">
        <ele>535.1109619</ele>
        <time>2010-06-27T06:54:21Z</time>
      </trkpt>
      <trkpt lat="45.47253" lon="5.24107">
        <ele>539.9176025</ele>
        <time>2010-06-27T06:54:35Z</time>
      </trkpt>
      <trkpt lat="45.47235" lon="5.24101">
        <ele>537.5142822</ele>
        <time>2010-06-27T06:54:47Z</time>
      </trkpt>
      <trkpt lat="45.47218" lon="5.24094">
        <ele>536.5531006</ele>
        <time>2010-06-27T06:54:59Z</time>
      </trkpt>
      <trkpt lat="45.47201" lon="5.24086">
        <ele>539.4368896</ele>
        <time>2010-06-27T06:55:10Z</time>
      </trkpt>
      <trkpt lat="45.47199" lon="5.24085">
        <ele>540.3983154</ele>
        <time>2010-06-27T06:55:12Z</time>
      </trkpt>
      <trkpt lat="45.47185" lon="5.24072">
        <ele>543.2821045</ele>
        <time>2010-06-27T06:55:21Z</time>
      </trkpt>
      <trkpt lat="45.47178" lon="5.24065">
        <ele>547.1274414</ele>
        <time>2010-06-27T06:55:25Z</time>
      </trkpt>
      <trkpt lat="45.4717" lon="5.2405">
        <ele>552.4145508</ele>
        <time>2010-06-27T06:55:33Z</time>
      </trkpt>
      <trkpt lat="45.47165" lon="5.24037">
        <ele>553.8566895</ele>
        <time>2010-06-27T06:55:39Z</time>
      </trkpt>
      <trkpt lat="45.47161" lon="5.24023">
        <ele>555.7792969</ele>
        <time>2010-06-27T06:55:46Z</time>
      </trkpt>
      <trkpt lat="45.47156" lon="5.24012">
        <ele>555.7792969</ele>
        <time>2010-06-27T06:55:52Z</time>
      </trkpt>
      <trkpt lat="45.47148" lon="5.23997">
        <ele>556.7407227</ele>
        <time>2010-06-27T06:56:00Z</time>
      </trkpt>
      <trkpt lat="45.47145" lon="5.23985">
        <ele>556.7407227</ele>
        <time>2010-06-27T06:56:05Z</time>
      </trkpt>
      <trkpt lat="45.47135" lon="5.23966">
        <ele>558.6633301</ele>
        <time>2010-06-27T06:56:15Z</time>
      </trkpt>
      <trkpt lat="45.47132" lon="5.23963">
        <ele>559.144043</ele>
        <time>2010-06-27T06:56:17Z</time>
      </trkpt>
      <trkpt lat="45.47122" lon="5.23943">
        <ele>561.5473633</ele>
        <time>2010-06-27T06:56:25Z</time>
      </trkpt>
      <trkpt lat="45.4711" lon="5.23927">
        <ele>562.5085449</ele>
        <time>2010-06-27T06:56:32Z</time>
      </trkpt>
      <trkpt lat="45.47095" lon="5.23913">
        <ele>563.9504395</ele>
        <time>2010-06-27T06:56:39Z</time>
      </trkpt>
      <trkpt lat="45.47087" lon="5.23906">
        <ele>564.9118652</ele>
        <time>2010-06-27T06:56:43Z</time>
      </trkpt>
      <trkpt lat="45.47074" lon="5.23897">
        <ele>568.2763672</ele>
        <time>2010-06-27T06:56:49Z</time>
      </trkpt>
      <trkpt lat="45.47071" lon="5.23895">
        <ele>569.237793</ele>
        <time>2010-06-27T06:56:50Z</time>
      </trkpt>
      <trkpt lat="45.47059" lon="5.23879">
        <ele>571.6408691</ele>
        <time>2010-06-27T06:56:57Z</time>
      </trkpt>
      <trkpt lat="45.47048" lon="5.23861">
        <ele>574.0444336</ele>
        <time>2010-06-27T06:57:03Z</time>
      </trkpt>
      <trkpt lat="45.47029" lon="5.23836">
        <ele>578.8510742</ele>
        <time>2010-06-27T06:57:11Z</time>
      </trkpt>
      <trkpt lat="45.4702" lon="5.23823">
        <ele>580.7736816</ele>
        <time>2010-06-27T06:57:15Z</time>
      </trkpt>
      <trkpt lat="45.46994" lon="5.23818">
        <ele>571.6408691</ele>
        <time>2010-06-27T06:57:23Z</time>
      </trkpt>
      <trkpt lat="45.46964" lon="5.23798">
        <ele>569.7185059</ele>
        <time>2010-06-27T06:57:33Z</time>
      </trkpt>
      <trkpt lat="45.46958" lon="5.2379">
        <ele>569.237793</ele>
        <time>2010-06-27T06:57:35Z</time>
      </trkpt>
      <trkpt lat="45.46946" lon="5.23766">
        <ele>567.3151855</ele>
        <time>2010-06-27T06:57:41Z</time>
      </trkpt>
      <trkpt lat="45.46937" lon="5.23739">
        <ele>566.8344727</ele>
        <time>2010-06-27T06:57:47Z</time>
      </trkpt>
      <trkpt lat="45.46915" lon="5.23672">
        <ele>566.3537598</ele>
        <time>2010-06-27T06:57:58Z</time>
      </trkpt>
      <trkpt lat="45.46904" lon="5.23627">
        <ele>567.3151855</ele>
        <time>2010-06-27T06:58:06Z</time>
      </trkpt>
      <trkpt lat="45.46895" lon="5.23595">
        <ele>568.2763672</ele>
        <time>2010-06-27T06:58:11Z</time>
      </trkpt>
      <trkpt lat="45.46884" lon="5.23564">
        <ele>567.7956543</ele>
        <time>2010-06-27T06:58:16Z</time>
      </trkpt>
      <trkpt lat="45.46871" lon="5.23515">
        <ele>570.6796875</ele>
        <time>2010-06-27T06:58:24Z</time>
      </trkpt>
      <trkpt lat="45.46869" lon="5.23504">
        <ele>572.1218262</ele>
        <time>2010-06-27T06:58:26Z</time>
      </trkpt>
      <trkpt lat="45.46853" lon="5.2349">
        <ele>571.6408691</ele>
        <time>2010-06-27T06:58:30Z</time>
      </trkpt>
      <trkpt lat="45.46839" lon="5.23489">
        <ele>571.1604004</ele>
        <time>2010-06-27T06:58:33Z</time>
      </trkpt>
      <trkpt lat="45.46826" lon="5.23493">
        <ele>572.1218262</ele>
        <time>2010-06-27T06:58:36Z</time>
      </trkpt>
      <trkpt lat="45.46792" lon="5.23498">
        <ele>572.6025391</ele>
        <time>2010-06-27T06:58:45Z</time>
      </trkpt>
      <trkpt lat="45.46777" lon="5.23497">
        <ele>572.6025391</ele>
        <time>2010-06-27T06:58:52Z</time>
      </trkpt>
      <trkpt lat="45.46762" lon="5.23498">
        <ele>571.6408691</ele>
        <time>2010-06-27T06:58:58Z</time>
      </trkpt>
      <trkpt lat="45.46737" lon="5.23503">
        <ele>575.0058594</ele>
        <time>2010-06-27T06:59:06Z</time>
      </trkpt>
      <trkpt lat="45.46723" lon="5.23504">
        <ele>577.4091797</ele>
        <time>2010-06-27T06:59:13Z</time>
      </trkpt>
      <trkpt lat="45.46718" lon="5.23503">
        <ele>578.8510742</ele>
        <time>2010-06-27T06:59:19Z</time>
      </trkpt>
      <trkpt lat="45.46718" lon="5.23501">
        <ele>579.331543</ele>
        <time>2010-06-27T06:59:21Z</time>
      </trkpt>
      <trkpt lat="45.46715" lon="5.235">
        <ele>579.8122559</ele>
        <time>2010-06-27T06:59:23Z</time>
      </trkpt>
      <trkpt lat="45.46707" lon="5.23496">
        <ele>580.7736816</ele>
        <time>2010-06-27T06:59:31Z</time>
      </trkpt>
      <trkpt lat="45.46704" lon="5.23497">
        <ele>580.7736816</ele>
        <time>2010-06-27T06:59:33Z</time>
      </trkpt>
      <trkpt lat="45.46697" lon="5.235">
        <ele>581.2543945</ele>
        <time>2010-06-27T06:59:36Z</time>
      </trkpt>
      <trkpt lat="45.46693" lon="5.23499">
        <ele>582.2155762</ele>
        <time>2010-06-27T06:59:38Z</time>
      </trkpt>
      <trkpt lat="45.4669" lon="5.23498">
        <ele>582.6962891</ele>
        <time>2010-06-27T06:59:41Z</time>
      </trkpt>
      <trkpt lat="45.46687" lon="5.23491">
        <ele>580.2929688</ele>
        <time>2010-06-27T06:59:47Z</time>
      </trkpt>
      <trkpt lat="45.46675" lon="5.23487">
        <ele>580.7736816</ele>
        <time>2010-06-27T06:59:54Z</time>
      </trkpt>
      <trkpt lat="45.46671" lon="5.2348">
        <ele>580.7736816</ele>
        <time>2010-06-27T06:59:58Z</time>
      </trkpt>
      <trkpt lat="45.46672" lon="5.23457">
        <ele>580.7736816</ele>
        <time>2010-06-27T07:00:06Z</time>
      </trkpt>
      <trkpt lat="45.46675" lon="5.23429">
        <ele>580.2929688</ele>
        <time>2010-06-27T07:00:13Z</time>
      </trkpt>
      <trkpt lat="45.46686" lon="5.23402">
        <ele>575.967041</ele>
        <time>2010-06-27T07:00:20Z</time>
      </trkpt>
      <trkpt lat="45.46691" lon="5.23366">
        <ele>573.083252</ele>
        <time>2010-06-27T07:00:26Z</time>
      </trkpt>
      <trkpt lat="45.46696" lon="5.2333">
        <ele>569.7185059</ele>
        <time>2010-06-27T07:00:33Z</time>
      </trkpt>
      <trkpt lat="45.46699" lon="5.23326">
        <ele>570.1989746</ele>
        <time>2010-06-27T07:00:34Z</time>
      </trkpt>
      <trkpt lat="45.46707" lon="5.23304">
        <ele>569.237793</ele>
        <time>2010-06-27T07:00:40Z</time>
      </trkpt>
      <trkpt lat="45.46707" lon="5.2329">
        <ele>568.7570801</ele>
        <time>2010-06-27T07:00:44Z</time>
      </trkpt>
      <trkpt lat="45.46705" lon="5.23274">
        <ele>568.7570801</ele>
        <time>2010-06-27T07:00:49Z</time>
      </trkpt>
      <trkpt lat="45.46712" lon="5.23264">
        <ele>570.6796875</ele>
        <time>2010-06-27T07:00:52Z</time>
      </trkpt>
      <trkpt lat="45.46716" lon="5.23243">
        <ele>571.1604004</ele>
        <time>2010-06-27T07:00:59Z</time>
      </trkpt>
      <trkpt lat="45.46717" lon="5.23232">
        <ele>570.6796875</ele>
        <time>2010-06-27T07:01:03Z</time>
      </trkpt>
      <trkpt lat="45.46718" lon="5.23227">
        <ele>569.7185059</ele>
        <time>2010-06-27T07:01:05Z</time>
      </trkpt>
      <trkpt lat="45.4672" lon="5.23214">
        <ele>569.237793</ele>
        <time>2010-06-27T07:01:09Z</time>
      </trkpt>
      <trkpt lat="45.46725" lon="5.23197">
        <ele>568.2763672</ele>
        <time>2010-06-27T07:01:14Z</time>
      </trkpt>
      <trkpt lat="45.46727" lon="5.23193">
        <ele>567.7956543</ele>
        <time>2010-06-27T07:01:15Z</time>
      </trkpt>
      <trkpt lat="45.46732" lon="5.23165">
        <ele>566.8344727</ele>
        <time>2010-06-27T07:01:20Z</time>
      </trkpt>
      <trkpt lat="45.46739" lon="5.23133">
        <ele>565.873291</ele>
        <time>2010-06-27T07:01:26Z</time>
      </trkpt>
      <trkpt lat="45.46744" lon="5.23118">
        <ele>567.3151855</ele>
        <time>2010-06-27T07:01:29Z</time>
      </trkpt>
      <trkpt lat="45.46749" lon="5.2309">
        <ele>566.8344727</ele>
        <time>2010-06-27T07:01:35Z</time>
      </trkpt>
      <trkpt lat="45.4675" lon="5.23075">
        <ele>565.873291</ele>
        <time>2010-06-27T07:01:39Z</time>
      </trkpt>
      <trkpt lat="45.46747" lon="5.23056">
        <ele>565.3925781</ele>
        <time>2010-06-27T07:01:42Z</time>
      </trkpt>
      <trkpt lat="45.46743" lon="5.23027">
        <ele>564.9118652</ele>
        <time>2010-06-27T07:01:46Z</time>
      </trkpt>
      <trkpt lat="45.46729" lon="5.22991">
        <ele>564.4311523</ele>
        <time>2010-06-27T07:01:51Z</time>
      </trkpt>
      <trkpt lat="45.46727" lon="5.22969">
        <ele>563.9504395</ele>
        <time>2010-06-27T07:01:54Z</time>
      </trkpt>
      <trkpt lat="45.46713" lon="5.22934">
        <ele>562.5085449</ele>
        <time>2010-06-27T07:01:58Z</time>
      </trkpt>
      <trkpt lat="45.4671" lon="5.22891">
        <ele>560.1052246</ele>
        <time>2010-06-27T07:02:03Z</time>
      </trkpt>
      <trkpt lat="45.46706" lon="5.22841">
        <ele>555.298584</ele>
        <time>2010-06-27T07:02:10Z</time>
      </trkpt>
      <trkpt lat="45.46709" lon="5.22821">
        <ele>554.3374023</ele>
        <time>2010-06-27T07:02:13Z</time>
      </trkpt>
      <trkpt lat="45.46709" lon="5.22773">
        <ele>553.8566895</ele>
        <time>2010-06-27T07:02:19Z</time>
      </trkpt>
      <trkpt lat="45.46695" lon="5.22738">
        <ele>551.4533691</ele>
        <time>2010-06-27T07:02:25Z</time>
      </trkpt>
      <trkpt lat="45.46671" lon="5.22713">
        <ele>548.0888672</ele>
        <time>2010-06-27T07:02:32Z</time>
      </trkpt>
      <trkpt lat="45.46654" lon="5.22706">
        <ele>544.2436523</ele>
        <time>2010-06-27T07:02:36Z</time>
      </trkpt>
      <trkpt lat="45.46642" lon="5.22707">
        <ele>539.4368896</ele>
        <time>2010-06-27T07:02:40Z</time>
      </trkpt>
      <trkpt lat="45.46634" lon="5.22708">
        <ele>537.9949951</ele>
        <time>2010-06-27T07:02:42Z</time>
      </trkpt>
      <trkpt lat="45.46611" lon="5.22729">
        <ele>532.7077637</ele>
        <time>2010-06-27T07:02:51Z</time>
      </trkpt>
      <trkpt lat="45.46605" lon="5.22737">
        <ele>531.7463379</ele>
        <time>2010-06-27T07:02:54Z</time>
      </trkpt>
      <trkpt lat="45.466" lon="5.22742">
        <ele>534.1496582</ele>
        <time>2010-06-27T07:02:57Z</time>
      </trkpt>
      <trkpt lat="45.46579" lon="5.22737">
        <ele>534.1496582</ele>
        <time>2010-06-27T07:03:04Z</time>
      </trkpt>
      <trkpt lat="45.46568" lon="5.22714">
        <ele>531.2657471</ele>
        <time>2010-06-27T07:03:09Z</time>
      </trkpt>
      <trkpt lat="45.4656" lon="5.22686">
        <ele>531.2657471</ele>
        <time>2010-06-27T07:03:16Z</time>
      </trkpt>
      <trkpt lat="45.46559" lon="5.2268">
        <ele>531.2657471</ele>
        <time>2010-06-27T07:03:19Z</time>
      </trkpt>
      <trkpt lat="45.46555" lon="5.22662">
        <ele>529.3431396</ele>
        <time>2010-06-27T07:03:27Z</time>
      </trkpt>
      <trkpt lat="45.46556" lon="5.22656">
        <ele>529.3431396</ele>
        <time>2010-06-27T07:03:29Z</time>
      </trkpt>
      <trkpt lat="45.46562" lon="5.22631">
        <ele>528.3818359</ele>
        <time>2010-06-27T07:03:38Z</time>
      </trkpt>
      <trkpt lat="45.46568" lon="5.22622">
        <ele>528.3818359</ele>
        <time>2010-06-27T07:03:42Z</time>
      </trkpt>
      <trkpt lat="45.46573" lon="5.22609">
        <ele>526.9398193</ele>
        <time>2010-06-27T07:03:47Z</time>
      </trkpt>
      <trkpt lat="45.4658" lon="5.22579">
        <ele>525.9783936</ele>
        <time>2010-06-27T07:03:55Z</time>
      </trkpt>
      <trkpt lat="45.46585" lon="5.22555">
        <ele>524.536499</ele>
        <time>2010-06-27T07:04:02Z</time>
      </trkpt>
      <trkpt lat="45.46588" lon="5.22537">
        <ele>523.0946045</ele>
        <time>2010-06-27T07:04:08Z</time>
      </trkpt>
      <trkpt lat="45.46596" lon="5.22514">
        <ele>523.5751953</ele>
        <time>2010-06-27T07:04:14Z</time>
      </trkpt>
      <trkpt lat="45.46602" lon="5.22505">
        <ele>524.536499</ele>
        <time>2010-06-27T07:04:16Z</time>
      </trkpt>
      <trkpt lat="45.46618" lon="5.22488">
        <ele>525.0172119</ele>
        <time>2010-06-27T07:04:24Z</time>
      </trkpt>
      <trkpt lat="45.46635" lon="5.22477">
        <ele>524.536499</ele>
        <time>2010-06-27T07:04:31Z</time>
      </trkpt>
      <trkpt lat="45.4664" lon="5.22475">
        <ele>525.9783936</ele>
        <time>2010-06-27T07:04:34Z</time>
      </trkpt>
      <trkpt lat="45.4665" lon="5.22463">
        <ele>529.8237305</ele>
        <time>2010-06-27T07:04:39Z</time>
      </trkpt>
      <trkpt lat="45.46659" lon="5.22459">
        <ele>531.7463379</ele>
        <time>2010-06-27T07:04:44Z</time>
      </trkpt>
      <trkpt lat="45.46669" lon="5.22452">
        <ele>533.6689453</ele>
        <time>2010-06-27T07:04:47Z</time>
      </trkpt>
      <trkpt lat="45.46695" lon="5.22448">
        <ele>535.5915527</ele>
        <time>2010-06-27T07:04:54Z</time>
      </trkpt>
      <trkpt lat="45.4673" lon="5.22453">
        <ele>538.9562988</ele>
        <time>2010-06-27T07:05:01Z</time>
      </trkpt>
      <trkpt lat="45.46749" lon="5.22462">
        <ele>540.8789063</ele>
        <time>2010-06-27T07:05:06Z</time>
      </trkpt>
      <trkpt lat="45.46786" lon="5.22454">
        <ele>541.3594971</ele>
        <time>2010-06-27T07:05:13Z</time>
      </trkpt>
      <trkpt lat="45.46825" lon="5.22433">
        <ele>539.9176025</ele>
        <time>2010-06-27T07:05:20Z</time>
      </trkpt>
      <trkpt lat="45.4685" lon="5.22405">
        <ele>540.8789063</ele>
        <time>2010-06-27T07:05:27Z</time>
      </trkpt>
      <trkpt lat="45.46865" lon="5.22387">
        <ele>539.9176025</ele>
        <time>2010-06-27T07:05:31Z</time>
      </trkpt>
      <trkpt lat="45.46882" lon="5.2237">
        <ele>539.9176025</ele>
        <time>2010-06-27T07:05:37Z</time>
      </trkpt>
      <trkpt lat="45.46895" lon="5.22349">
        <ele>539.9176025</ele>
        <time>2010-06-27T07:05:43Z</time>
      </trkpt>
      <trkpt lat="45.46908" lon="5.22313">
        <ele>539.4368896</ele>
        <time>2010-06-27T07:05:49Z</time>
      </trkpt>
      <trkpt lat="45.46916" lon="5.22285">
        <ele>538.475708</ele>
        <time>2010-06-27T07:05:55Z</time>
      </trkpt>
      <trkpt lat="45.46934" lon="5.22286">
        <ele>533.1883545</ele>
        <time>2010-06-27T07:06:03Z</time>
      </trkpt>
      <trkpt lat="45.46944" lon="5.22288">
        <ele>532.7077637</ele>
        <time>2010-06-27T07:06:08Z</time>
      </trkpt>
      <trkpt lat="45.46963" lon="5.22281">
        <ele>530.7851563</ele>
        <time>2010-06-27T07:06:15Z</time>
      </trkpt>
      <trkpt lat="45.46966" lon="5.22281">
        <ele>531.2657471</ele>
        <time>2010-06-27T07:06:16Z</time>
      </trkpt>
      <trkpt lat="45.46978" lon="5.22287">
        <ele>532.7077637</ele>
        <time>2010-06-27T07:06:21Z</time>
      </trkpt>
      <trkpt lat="45.46989" lon="5.22296">
        <ele>534.6303711</ele>
        <time>2010-06-27T07:06:27Z</time>
      </trkpt>
      <trkpt lat="45.47009" lon="5.22307">
        <ele>535.1109619</ele>
        <time>2010-06-27T07:06:35Z</time>
      </trkpt>
      <trkpt lat="45.47028" lon="5.22301">
        <ele>531.2657471</ele>
        <time>2010-06-27T07:06:43Z</time>
      </trkpt>
      <trkpt lat="45.47037" lon="5.22295">
        <ele>531.7463379</ele>
        <time>2010-06-27T07:06:47Z</time>
      </trkpt>
      <trkpt lat="45.47048" lon="5.2229">
        <ele>531.2657471</ele>
        <time>2010-06-27T07:06:54Z</time>
      </trkpt>
      <trkpt lat="45.47062" lon="5.22283">
        <ele>529.8237305</ele>
        <time>2010-06-27T07:07:02Z</time>
      </trkpt>
      <trkpt lat="45.47079" lon="5.22274">
        <ele>534.1496582</ele>
        <time>2010-06-27T07:07:10Z</time>
      </trkpt>
      <trkpt lat="45.47081" lon="5.22274">
        <ele>533.6689453</ele>
        <time>2010-06-27T07:07:11Z</time>
      </trkpt>
      <trkpt lat="45.47092" lon="5.22263">
        <ele>535.1109619</ele>
        <time>2010-06-27T07:07:18Z</time>
      </trkpt>
      <trkpt lat="45.47103" lon="5.22253">
        <ele>534.6303711</ele>
        <time>2010-06-27T07:07:29Z</time>
      </trkpt>
      <trkpt lat="45.4711" lon="5.22244">
        <ele>534.1496582</ele>
        <time>2010-06-27T07:07:34Z</time>
      </trkpt>
      <trkpt lat="45.47115" lon="5.22241">
        <ele>534.1496582</ele>
        <time>2010-06-27T07:07:37Z</time>
      </trkpt>
      <trkpt lat="45.47122" lon="5.22233">
        <ele>535.5915527</ele>
        <time>2010-06-27T07:07:43Z</time>
      </trkpt>
      <trkpt lat="45.47132" lon="5.22223">
        <ele>537.0336914</ele>
        <time>2010-06-27T07:07:48Z</time>
      </trkpt>
      <trkpt lat="45.47141" lon="5.22213">
        <ele>537.9949951</ele>
        <time>2010-06-27T07:07:54Z</time>
      </trkpt>
      <trkpt lat="45.47141" lon="5.22212">
        <ele>538.475708</ele>
        <time>2010-06-27T07:07:55Z</time>
      </trkpt>
      <trkpt lat="45.47157" lon="5.22198">
        <ele>538.9562988</ele>
        <time>2010-06-27T07:08:03Z</time>
      </trkpt>
      <trkpt lat="45.47158" lon="5.22197">
        <ele>538.9562988</ele>
        <time>2010-06-27T07:08:04Z</time>
      </trkpt>
      <trkpt lat="45.4716" lon="5.22195">
        <ele>538.9562988</ele>
        <time>2010-06-27T07:08:06Z</time>
      </trkpt>
      <trkpt lat="45.47166" lon="5.2219">
        <ele>539.9176025</ele>
        <time>2010-06-27T07:08:12Z</time>
      </trkpt>
      <trkpt lat="45.4717" lon="5.22189">
        <ele>539.4368896</ele>
        <time>2010-06-27T07:08:14Z</time>
      </trkpt>
      <trkpt lat="45.47179" lon="5.22181">
        <ele>539.9176025</ele>
        <time>2010-06-27T07:08:20Z</time>
      </trkpt>
      <trkpt lat="45.47185" lon="5.22179">
        <ele>538.475708</ele>
        <time>2010-06-27T07:08:24Z</time>
      </trkpt>
      <trkpt lat="45.472" lon="5.22162">
        <ele>538.475708</ele>
        <time>2010-06-27T07:08:33Z</time>
      </trkpt>
      <trkpt lat="45.47203" lon="5.2216">
        <ele>538.475708</ele>
        <time>2010-06-27T07:08:34Z</time>
      </trkpt>
      <trkpt lat="45.47215" lon="5.22162">
        <ele>539.4368896</ele>
        <time>2010-06-27T07:08:41Z</time>
      </trkpt>
      <trkpt lat="45.47221" lon="5.22156">
        <ele>541.3594971</ele>
        <time>2010-06-27T07:08:45Z</time>
      </trkpt>
      <trkpt lat="45.47223" lon="5.22148">
        <ele>540.8789063</ele>
        <time>2010-06-27T07:08:49Z</time>
      </trkpt>
      <trkpt lat="45.47228" lon="5.22135">
        <ele>542.3209229</ele>
        <time>2010-06-27T07:08:56Z</time>
      </trkpt>
      <trkpt lat="45.47238" lon="5.22123">
        <ele>544.2436523</ele>
        <time>2010-06-27T07:09:06Z</time>
      </trkpt>
      <trkpt lat="45.47251" lon="5.22104">
        <ele>545.204834</ele>
        <time>2010-06-27T07:09:14Z</time>
      </trkpt>
      <trkpt lat="45.47258" lon="5.22101">
        <ele>545.204834</ele>
        <time>2010-06-27T07:09:19Z</time>
      </trkpt>
      <trkpt lat="45.47278" lon="5.22084">
        <ele>542.3209229</ele>
        <time>2010-06-27T07:09:28Z</time>
      </trkpt>
      <trkpt lat="45.47295" lon="5.22069">
        <ele>542.3209229</ele>
        <time>2010-06-27T07:09:34Z</time>
      </trkpt>
      <trkpt lat="45.47314" lon="5.22054">
        <ele>540.8789063</ele>
        <time>2010-06-27T07:09:40Z</time>
      </trkpt>
      <trkpt lat="45.47335" lon="5.22041">
        <ele>541.3594971</ele>
        <time>2010-06-27T07:09:48Z</time>
      </trkpt>
      <trkpt lat="45.47348" lon="5.22029">
        <ele>540.8789063</ele>
        <time>2010-06-27T07:09:53Z</time>
      </trkpt>
      <trkpt lat="45.4737" lon="5.22006">
        <ele>537.9949951</ele>
        <time>2010-06-27T07:10:00Z</time>
      </trkpt>
      <trkpt lat="45.4739" lon="5.21981">
        <ele>534.6303711</ele>
        <time>2010-06-27T07:10:07Z</time>
      </trkpt>
      <trkpt lat="45.47409" lon="5.21956">
        <ele>531.2657471</ele>
        <time>2010-06-27T07:10:12Z</time>
      </trkpt>
      <trkpt lat="45.47439" lon="5.21935">
        <ele>532.2270508</ele>
        <time>2010-06-27T07:10:17Z</time>
      </trkpt>
      <trkpt lat="45.47436" lon="5.2192">
        <ele>531.7463379</ele>
        <time>2010-06-27T07:10:21Z</time>
      </trkpt>
      <trkpt lat="45.47414" lon="5.21899">
        <ele>535.1109619</ele>
        <time>2010-06-27T07:10:33Z</time>
      </trkpt>
      <trkpt lat="45.474" lon="5.21871">
        <ele>539.4368896</ele>
        <time>2010-06-27T07:10:43Z</time>
      </trkpt>
      <trkpt lat="45.47385" lon="5.21846">
        <ele>542.8015137</ele>
        <time>2010-06-27T07:10:53Z</time>
      </trkpt>
      <trkpt lat="45.47371" lon="5.21836">
        <ele>544.2436523</ele>
        <time>2010-06-27T07:11:00Z</time>
      </trkpt>
      <trkpt lat="45.47355" lon="5.21827">
        <ele>545.204834</ele>
        <time>2010-06-27T07:11:07Z</time>
      </trkpt>
      <trkpt lat="45.4732" lon="5.21805">
        <ele>545.6855469</ele>
        <time>2010-06-27T07:11:23Z</time>
      </trkpt>
      <trkpt lat="45.47298" lon="5.2179">
        <ele>547.1274414</ele>
        <time>2010-06-27T07:11:33Z</time>
      </trkpt>
      <trkpt lat="45.47271" lon="5.21781">
        <ele>548.0888672</ele>
        <time>2010-06-27T07:11:44Z</time>
      </trkpt>
      <trkpt lat="45.47247" lon="5.21776">
        <ele>547.6081543</ele>
        <time>2010-06-27T07:11:53Z</time>
      </trkpt>
      <trkpt lat="45.47215" lon="5.21771">
        <ele>545.6855469</ele>
        <time>2010-06-27T07:12:02Z</time>
      </trkpt>
      <trkpt lat="45.4721" lon="5.2177">
        <ele>546.1662598</ele>
        <time>2010-06-27T07:12:03Z</time>
      </trkpt>
      <trkpt lat="45.47172" lon="5.21762">
        <ele>545.6855469</ele>
        <time>2010-06-27T07:12:11Z</time>
      </trkpt>
      <trkpt lat="45.47157" lon="5.21752">
        <ele>546.1662598</ele>
        <time>2010-06-27T07:12:15Z</time>
      </trkpt>
      <trkpt lat="45.47143" lon="5.21722">
        <ele>548.0888672</ele>
        <time>2010-06-27T07:12:23Z</time>
      </trkpt>
      <trkpt lat="45.47137" lon="5.21704">
        <ele>548.0888672</ele>
        <time>2010-06-27T07:12:28Z</time>
      </trkpt>
      <trkpt lat="45.47137" lon="5.21677">
        <ele>551.4533691</ele>
        <time>2010-06-27T07:12:37Z</time>
      </trkpt>
      <trkpt lat="45.47138" lon="5.21674">
        <ele>551.4533691</ele>
        <time>2010-06-27T07:12:38Z</time>
      </trkpt>
      <trkpt lat="45.47142" lon="5.21638">
        <ele>550.4921875</ele>
        <time>2010-06-27T07:12:46Z</time>
      </trkpt>
      <trkpt lat="45.47142" lon="5.2163">
        <ele>550.0114746</ele>
        <time>2010-06-27T07:12:48Z</time>
      </trkpt>
      <trkpt lat="45.47144" lon="5.2161">
        <ele>547.1274414</ele>
        <time>2010-06-27T07:12:53Z</time>
      </trkpt>
      <trkpt lat="45.47144" lon="5.21605">
        <ele>546.1662598</ele>
        <time>2010-06-27T07:12:55Z</time>
      </trkpt>
      <trkpt lat="45.47144" lon="5.21578">
        <ele>545.204834</ele>
        <time>2010-06-27T07:13:01Z</time>
      </trkpt>
      <trkpt lat="45.47148" lon="5.21538">
        <ele>544.7242432</ele>
        <time>2010-06-27T07:13:10Z</time>
      </trkpt>
      <trkpt lat="45.47151" lon="5.21525">
        <ele>543.2821045</ele>
        <time>2010-06-27T07:13:14Z</time>
      </trkpt>
      <trkpt lat="45.47157" lon="5.21484">
        <ele>543.7628174</ele>
        <time>2010-06-27T07:13:22Z</time>
      </trkpt>
      <trkpt lat="45.4716" lon="5.21474">
        <ele>545.6855469</ele>
        <time>2010-06-27T07:13:24Z</time>
      </trkpt>
      <trkpt lat="45.47159" lon="5.21462">
        <ele>546.1662598</ele>
        <time>2010-06-27T07:13:27Z</time>
      </trkpt>
      <trkpt lat="45.47159" lon="5.21435">
        <ele>546.1662598</ele>
        <time>2010-06-27T07:13:33Z</time>
      </trkpt>
      <trkpt lat="45.47169" lon="5.21408">
        <ele>546.1662598</ele>
        <time>2010-06-27T07:13:38Z</time>
      </trkpt>
      <trkpt lat="45.47168" lon="5.21392">
        <ele>546.6468506</ele>
        <time>2010-06-27T07:13:40Z</time>
      </trkpt>
      <trkpt lat="45.47173" lon="5.21342">
        <ele>545.6855469</ele>
        <time>2010-06-27T07:13:45Z</time>
      </trkpt>
      <trkpt lat="45.47174" lon="5.21319">
        <ele>545.204834</ele>
        <time>2010-06-27T07:13:49Z</time>
      </trkpt>
      <trkpt lat="45.47184" lon="5.21276">
        <ele>549.5307617</ele>
        <time>2010-06-27T07:13:56Z</time>
      </trkpt>
      <trkpt lat="45.47193" lon="5.21239">
        <ele>547.6081543</ele>
        <time>2010-06-27T07:14:04Z</time>
      </trkpt>
      <trkpt lat="45.47198" lon="5.21218">
        <ele>547.1274414</ele>
        <time>2010-06-27T07:14:10Z</time>
      </trkpt>
      <trkpt lat="45.47206" lon="5.21189">
        <ele>545.6855469</ele>
        <time>2010-06-27T07:14:17Z</time>
      </trkpt>
      <trkpt lat="45.47215" lon="5.21165">
        <ele>545.204834</ele>
        <time>2010-06-27T07:14:24Z</time>
      </trkpt>
      <trkpt lat="45.47231" lon="5.21147">
        <ele>543.7628174</ele>
        <time>2010-06-27T07:14:32Z</time>
      </trkpt>
      <trkpt lat="45.47241" lon="5.21144">
        <ele>543.2821045</ele>
        <time>2010-06-27T07:14:35Z</time>
      </trkpt>
      <trkpt lat="45.47256" lon="5.2113">
        <ele>541.3594971</ele>
        <time>2010-06-27T07:14:40Z</time>
      </trkpt>
      <trkpt lat="45.47307" lon="5.2108">
        <ele>538.9562988</ele>
        <time>2010-06-27T07:14:46Z</time>
      </trkpt>
      <trkpt lat="45.47332" lon="5.21053">
        <ele>536.5531006</ele>
        <time>2010-06-27T07:14:50Z</time>
      </trkpt>
      <trkpt lat="45.47345" lon="5.21039">
        <ele>535.5915527</ele>
        <time>2010-06-27T07:14:54Z</time>
      </trkpt>
      <trkpt lat="45.47367" lon="5.21011">
        <ele>534.6303711</ele>
        <time>2010-06-27T07:14:59Z</time>
      </trkpt>
      <trkpt lat="45.47385" lon="5.20998">
        <ele>532.2270508</ele>
        <time>2010-06-27T07:15:04Z</time>
      </trkpt>
      <trkpt lat="45.47388" lon="5.20992">
        <ele>531.2657471</ele>
        <time>2010-06-27T07:15:06Z</time>
      </trkpt>
      <trkpt lat="45.47389" lon="5.20983">
        <ele>529.8237305</ele>
        <time>2010-06-27T07:15:10Z</time>
      </trkpt>
      <trkpt lat="45.47378" lon="5.20965">
        <ele>528.8625488</ele>
        <time>2010-06-27T07:15:17Z</time>
      </trkpt>
      <trkpt lat="45.47366" lon="5.20951">
        <ele>530.3044434</ele>
        <time>2010-06-27T07:15:23Z</time>
      </trkpt>
      <trkpt lat="45.47361" lon="5.20949">
        <ele>530.3044434</ele>
        <time>2010-06-27T07:15:28Z</time>
      </trkpt>
      <trkpt lat="45.47354" lon="5.20948">
        <ele>530.3044434</ele>
        <time>2010-06-27T07:15:35Z</time>
      </trkpt>
      <trkpt lat="45.47341" lon="5.2094">
        <ele>529.8237305</ele>
        <time>2010-06-27T07:15:41Z</time>
      </trkpt>
      <trkpt lat="45.47326" lon="5.20934">
        <ele>529.3431396</ele>
        <time>2010-06-27T07:15:47Z</time>
      </trkpt>
      <trkpt lat="45.47312" lon="5.20917">
        <ele>527.4204102</ele>
        <time>2010-06-27T07:15:53Z</time>
      </trkpt>
      <trkpt lat="45.47302" lon="5.20901">
        <ele>525.9783936</ele>
        <time>2010-06-27T07:15:58Z</time>
      </trkpt>
      <trkpt lat="45.4729" lon="5.2089">
        <ele>525.0172119</ele>
        <time>2010-06-27T07:16:05Z</time>
      </trkpt>
      <trkpt lat="45.47289" lon="5.20886">
        <ele>525.0172119</ele>
        <time>2010-06-27T07:16:10Z</time>
      </trkpt>
      <trkpt lat="45.47282" lon="5.20877">
        <ele>524.536499</ele>
        <time>2010-06-27T07:16:15Z</time>
      </trkpt>
      <trkpt lat="45.47278" lon="5.20858">
        <ele>523.5751953</ele>
        <time>2010-06-27T07:16:22Z</time>
      </trkpt>
      <trkpt lat="45.47274" lon="5.20839">
        <ele>522.1331787</ele>
        <time>2010-06-27T07:16:27Z</time>
      </trkpt>
      <trkpt lat="45.47271" lon="5.20817">
        <ele>519.7298584</ele>
        <time>2010-06-27T07:16:32Z</time>
      </trkpt>
      <trkpt lat="45.47267" lon="5.20788">
        <ele>517.3266602</ele>
        <time>2010-06-27T07:16:40Z</time>
      </trkpt>
      <trkpt lat="45.47265" lon="5.20748">
        <ele>513.0007324</ele>
        <time>2010-06-27T07:16:49Z</time>
      </trkpt>
      <trkpt lat="45.4726" lon="5.20724">
        <ele>516.8459473</ele>
        <time>2010-06-27T07:16:54Z</time>
      </trkpt>
      <trkpt lat="45.47252" lon="5.207">
        <ele>522.6138916</ele>
        <time>2010-06-27T07:17:00Z</time>
      </trkpt>
      <trkpt lat="45.47245" lon="5.20683">
        <ele>525.9783936</ele>
        <time>2010-06-27T07:17:05Z</time>
      </trkpt>
      <trkpt lat="45.47252" lon="5.20671">
        <ele>527.4204102</ele>
        <time>2010-06-27T07:17:11Z</time>
      </trkpt>
      <trkpt lat="45.47275" lon="5.20682">
        <ele>530.7851563</ele>
        <time>2010-06-27T07:17:23Z</time>
      </trkpt>
      <trkpt lat="45.47283" lon="5.20685">
        <ele>531.2657471</ele>
        <time>2010-06-27T07:17:27Z</time>
      </trkpt>
      <trkpt lat="45.47303" lon="5.20685">
        <ele>529.8237305</ele>
        <time>2010-06-27T07:17:36Z</time>
      </trkpt>
      <trkpt lat="45.47309" lon="5.20687">
        <ele>528.8625488</ele>
        <time>2010-06-27T07:17:40Z</time>
      </trkpt>
      <trkpt lat="45.47324" lon="5.2068">
        <ele>532.7077637</ele>
        <time>2010-06-27T07:17:49Z</time>
      </trkpt>
      <trkpt lat="45.47339" lon="5.2068">
        <ele>536.0723877</ele>
        <time>2010-06-27T07:17:58Z</time>
      </trkpt>
      <trkpt lat="45.47341" lon="5.20678">
        <ele>536.5531006</ele>
        <time>2010-06-27T07:17:59Z</time>
      </trkpt>
      <trkpt lat="45.47356" lon="5.20676">
        <ele>539.4368896</ele>
        <time>2010-06-27T07:18:07Z</time>
      </trkpt>
      <trkpt lat="45.47372" lon="5.20673">
        <ele>538.475708</ele>
        <time>2010-06-27T07:18:14Z</time>
      </trkpt>
      <trkpt lat="45.47396" lon="5.20669">
        <ele>540.8789063</ele>
        <time>2010-06-27T07:18:23Z</time>
      </trkpt>
      <trkpt lat="45.47402" lon="5.20667">
        <ele>542.8015137</ele>
        <time>2010-06-27T07:18:25Z</time>
      </trkpt>
      <trkpt lat="45.47416" lon="5.20668">
        <ele>542.8015137</ele>
        <time>2010-06-27T07:18:31Z</time>
      </trkpt>
      <trkpt lat="45.47436" lon="5.20669">
        <ele>544.2436523</ele>
        <time>2010-06-27T07:18:39Z</time>
      </trkpt>
      <trkpt lat="45.47454" lon="5.20662">
        <ele>550.9726563</ele>
        <time>2010-06-27T07:18:45Z</time>
      </trkpt>
      <trkpt lat="45.47483" lon="5.20649">
        <ele>556.2600098</ele>
        <time>2010-06-27T07:18:53Z</time>
      </trkpt>
      <trkpt lat="45.47495" lon="5.2064">
        <ele>558.1828613</ele>
        <time>2010-06-27T07:18:57Z</time>
      </trkpt>
      <trkpt lat="45.47514" lon="5.20629">
        <ele>558.6633301</ele>
        <time>2010-06-27T07:19:04Z</time>
      </trkpt>
      <trkpt lat="45.47523" lon="5.20619">
        <ele>557.7021484</ele>
        <time>2010-06-27T07:19:08Z</time>
      </trkpt>
      <trkpt lat="45.47544" lon="5.20605">
        <ele>556.7407227</ele>
        <time>2010-06-27T07:19:16Z</time>
      </trkpt>
      <trkpt lat="45.4756" lon="5.20597">
        <ele>556.7407227</ele>
        <time>2010-06-27T07:19:20Z</time>
      </trkpt>
      <trkpt lat="45.47584" lon="5.20583">
        <ele>559.6247559</ele>
        <time>2010-06-27T07:19:26Z</time>
      </trkpt>
      <trkpt lat="45.47624" lon="5.20566">
        <ele>560.1052246</ele>
        <time>2010-06-27T07:19:33Z</time>
      </trkpt>
      <trkpt lat="45.47681" lon="5.20528">
        <ele>551.4533691</ele>
        <time>2010-06-27T07:19:44Z</time>
      </trkpt>
      <trkpt lat="45.47711" lon="5.20518">
        <ele>547.1274414</ele>
        <time>2010-06-27T07:19:50Z</time>
      </trkpt>
      <trkpt lat="45.47733" lon="5.20503">
        <ele>547.1274414</ele>
        <time>2010-06-27T07:19:56Z</time>
      </trkpt>
      <trkpt lat="45.47754" lon="5.20488">
        <ele>545.6855469</ele>
        <time>2010-06-27T07:20:01Z</time>
      </trkpt>
      <trkpt lat="45.47768" lon="5.20476">
        <ele>544.7242432</ele>
        <time>2010-06-27T07:20:06Z</time>
      </trkpt>
      <trkpt lat="45.47791" lon="5.20462">
        <ele>543.7628174</ele>
        <time>2010-06-27T07:20:12Z</time>
      </trkpt>
      <trkpt lat="45.47815" lon="5.20435">
        <ele>543.2821045</ele>
        <time>2010-06-27T07:20:18Z</time>
      </trkpt>
      <trkpt lat="45.47848" lon="5.20376">
        <ele>540.8789063</ele>
        <time>2010-06-27T07:20:25Z</time>
      </trkpt>
      <trkpt lat="45.47866" lon="5.20352">
        <ele>538.9562988</ele>
        <time>2010-06-27T07:20:29Z</time>
      </trkpt>
      <trkpt lat="45.4788" lon="5.20336">
        <ele>537.9949951</ele>
        <time>2010-06-27T07:20:32Z</time>
      </trkpt>
      <trkpt lat="45.47905" lon="5.2029">
        <ele>536.0723877</ele>
        <time>2010-06-27T07:20:38Z</time>
      </trkpt>
      <trkpt lat="45.47917" lon="5.20271">
        <ele>534.6303711</ele>
        <time>2010-06-27T07:20:40Z</time>
      </trkpt>
      <trkpt lat="45.47917" lon="5.20242">
        <ele>531.7463379</ele>
        <time>2010-06-27T07:20:44Z</time>
      </trkpt>
      <trkpt lat="45.47913" lon="5.20239">
        <ele>530.7851563</ele>
        <time>2010-06-27T07:20:45Z</time>
      </trkpt>
      <trkpt lat="45.47883" lon="5.2021">
        <ele>527.901001</ele>
        <time>2010-06-27T07:20:54Z</time>
      </trkpt>
      <trkpt lat="45.47869" lon="5.20186">
        <ele>527.4204102</ele>
        <time>2010-06-27T07:21:00Z</time>
      </trkpt>
      <trkpt lat="45.47868" lon="5.20181">
        <ele>527.4204102</ele>
        <time>2010-06-27T07:21:01Z</time>
      </trkpt>
      <trkpt lat="45.47867" lon="5.2015">
        <ele>527.4204102</ele>
        <time>2010-06-27T07:21:06Z</time>
      </trkpt>
      <trkpt lat="45.47867" lon="5.20131">
        <ele>526.9398193</ele>
        <time>2010-06-27T07:21:09Z</time>
      </trkpt>
      <trkpt lat="45.4787" lon="5.20108">
        <ele>525.9783936</ele>
        <time>2010-06-27T07:21:13Z</time>
      </trkpt>
      <trkpt lat="45.47893" lon="5.20037">
        <ele>524.536499</ele>
        <time>2010-06-27T07:21:25Z</time>
      </trkpt>
      <trkpt lat="45.47905" lon="5.2">
        <ele>524.536499</ele>
        <time>2010-06-27T07:21:32Z</time>
      </trkpt>
      <trkpt lat="45.47921" lon="5.19952">
        <ele>524.0557861</ele>
        <time>2010-06-27T07:21:41Z</time>
      </trkpt>
      <trkpt lat="45.47939" lon="5.19891">
        <ele>522.1331787</ele>
        <time>2010-06-27T07:21:50Z</time>
      </trkpt>
      <trkpt lat="45.47955" lon="5.19837">
        <ele>519.7298584</ele>
        <time>2010-06-27T07:21:56Z</time>
      </trkpt>
      <trkpt lat="45.47952" lon="5.19782">
        <ele>517.807251</ele>
        <time>2010-06-27T07:22:01Z</time>
      </trkpt>
      <trkpt lat="45.47935" lon="5.19702">
        <ele>518.2878418</ele>
        <time>2010-06-27T07:22:09Z</time>
      </trkpt>
      <trkpt lat="45.4793" lon="5.19652">
        <ele>517.3266602</ele>
        <time>2010-06-27T07:22:15Z</time>
      </trkpt>
      <trkpt lat="45.47941" lon="5.19603">
        <ele>516.8459473</ele>
        <time>2010-06-27T07:22:21Z</time>
      </trkpt>
      <trkpt lat="45.4797" lon="5.19539">
        <ele>516.8459473</ele>
        <time>2010-06-27T07:22:31Z</time>
      </trkpt>
      <trkpt lat="45.47976" lon="5.19499">
        <ele>515.8846436</ele>
        <time>2010-06-27T07:22:37Z</time>
      </trkpt>
      <trkpt lat="45.47978" lon="5.19475">
        <ele>515.8846436</ele>
        <time>2010-06-27T07:22:40Z</time>
      </trkpt>
      <trkpt lat="45.47993" lon="5.19413">
        <ele>515.4040527</ele>
        <time>2010-06-27T07:22:48Z</time>
      </trkpt>
      <trkpt lat="45.48018" lon="5.19358">
        <ele>515.8846436</ele>
        <time>2010-06-27T07:22:56Z</time>
      </trkpt>
      <trkpt lat="45.4803" lon="5.19285">
        <ele>516.3652344</ele>
        <time>2010-06-27T07:23:06Z</time>
      </trkpt>
      <trkpt lat="45.48028" lon="5.19264">
        <ele>516.8459473</ele>
        <time>2010-06-27T07:23:09Z</time>
      </trkpt>
      <trkpt lat="45.48017" lon="5.19236">
        <ele>517.807251</ele>
        <time>2010-06-27T07:23:14Z</time>
      </trkpt>
      <trkpt lat="45.4801" lon="5.19228">
        <ele>518.7685547</ele>
        <time>2010-06-27T07:23:16Z</time>
      </trkpt>
      <trkpt lat="45.47972" lon="5.19199">
        <ele>520.6912842</ele>
        <time>2010-06-27T07:23:26Z</time>
      </trkpt>
      <trkpt lat="45.47954" lon="5.19169">
        <ele>519.7298584</ele>
        <time>2010-06-27T07:23:32Z</time>
      </trkpt>
      <trkpt lat="45.47952" lon="5.19138">
        <ele>519.2492676</ele>
        <time>2010-06-27T07:23:36Z</time>
      </trkpt>
      <trkpt lat="45.47953" lon="5.19114">
        <ele>518.7685547</ele>
        <time>2010-06-27T07:23:39Z</time>
      </trkpt>
      <trkpt lat="45.47955" lon="5.19092">
        <ele>518.7685547</ele>
        <time>2010-06-27T07:23:42Z</time>
      </trkpt>
      <trkpt lat="45.47946" lon="5.19068">
        <ele>517.807251</ele>
        <time>2010-06-27T07:23:46Z</time>
      </trkpt>
      <trkpt lat="45.4794" lon="5.19067">
        <ele>517.3266602</ele>
        <time>2010-06-27T07:23:47Z</time>
      </trkpt>
      <trkpt lat="45.47917" lon="5.19065">
        <ele>515.8846436</ele>
        <time>2010-06-27T07:23:51Z</time>
      </trkpt>
      <trkpt lat="45.47888" lon="5.19047">
        <ele>513.9620361</ele>
        <time>2010-06-27T07:23:56Z</time>
      </trkpt>
      <trkpt lat="45.47882" lon="5.1903">
        <ele>513.0007324</ele>
        <time>2010-06-27T07:23:58Z</time>
      </trkpt>
      <trkpt lat="45.47875" lon="5.19012">
        <ele>512.5200195</ele>
        <time>2010-06-27T07:24:00Z</time>
      </trkpt>
      <trkpt lat="45.47859" lon="5.18987">
        <ele>512.5200195</ele>
        <time>2010-06-27T07:24:04Z</time>
      </trkpt>
      <trkpt lat="45.47835" lon="5.18967">
        <ele>514.442627</ele>
        <time>2010-06-27T07:24:10Z</time>
      </trkpt>
      <trkpt lat="45.47808" lon="5.1894">
        <ele>513.4814453</ele>
        <time>2010-06-27T07:24:18Z</time>
      </trkpt>
      <trkpt lat="45.47787" lon="5.18914">
        <ele>513.9620361</ele>
        <time>2010-06-27T07:24:27Z</time>
      </trkpt>
      <trkpt lat="45.47761" lon="5.18889">
        <ele>515.4040527</ele>
        <time>2010-06-27T07:24:38Z</time>
      </trkpt>
      <trkpt lat="45.47745" lon="5.18897">
        <ele>516.8459473</ele>
        <time>2010-06-27T07:24:45Z</time>
      </trkpt>
      <trkpt lat="45.47706" lon="5.18911">
        <ele>518.2878418</ele>
        <time>2010-06-27T07:25:00Z</time>
      </trkpt>
      <trkpt lat="45.47676" lon="5.18922">
        <ele>519.2492676</ele>
        <time>2010-06-27T07:25:12Z</time>
      </trkpt>
      <trkpt lat="45.47666" lon="5.18905">
        <ele>519.7298584</ele>
        <time>2010-06-27T07:25:18Z</time>
      </trkpt>
      <trkpt lat="45.47652" lon="5.18875">
        <ele>519.2492676</ele>
        <time>2010-06-27T07:25:27Z</time>
      </trkpt>
      <trkpt lat="45.47636" lon="5.18872">
        <ele>518.7685547</ele>
        <time>2010-06-27T07:25:33Z</time>
      </trkpt>
      <trkpt lat="45.47614" lon="5.18876">
        <ele>517.807251</ele>
        <time>2010-06-27T07:25:40Z</time>
      </trkpt>
      <trkpt lat="45.47596" lon="5.18878">
        <ele>516.3652344</ele>
        <time>2010-06-27T07:25:45Z</time>
      </trkpt>
      <trkpt lat="45.47561" lon="5.18863">
        <ele>511.5587158</ele>
        <time>2010-06-27T07:25:52Z</time>
      </trkpt>
      <trkpt lat="45.47551" lon="5.18855">
        <ele>510.1166992</ele>
        <time>2010-06-27T07:25:54Z</time>
      </trkpt>
      <trkpt lat="45.47537" lon="5.18842">
        <ele>508.1940918</ele>
        <time>2010-06-27T07:25:57Z</time>
      </trkpt>
      <trkpt lat="45.47509" lon="5.18826">
        <ele>507.2327881</ele>
        <time>2010-06-27T07:26:03Z</time>
      </trkpt>
      <trkpt lat="45.47496" lon="5.18816">
        <ele>507.713501</ele>
        <time>2010-06-27T07:26:08Z</time>
      </trkpt>
      <trkpt lat="45.4748" lon="5.18802">
        <ele>507.713501</ele>
        <time>2010-06-27T07:26:15Z</time>
      </trkpt>
      <trkpt lat="45.47465" lon="5.18789">
        <ele>507.2327881</ele>
        <time>2010-06-27T07:26:21Z</time>
      </trkpt>
      <trkpt lat="45.47443" lon="5.18771">
        <ele>507.2327881</ele>
        <time>2010-06-27T07:26:29Z</time>
      </trkpt>
      <trkpt lat="45.47414" lon="5.18745">
        <ele>507.713501</ele>
        <time>2010-06-27T07:26:40Z</time>
      </trkpt>
      <trkpt lat="45.47398" lon="5.18733">
        <ele>508.1940918</ele>
        <time>2010-06-27T07:26:47Z</time>
      </trkpt>
      <trkpt lat="45.47385" lon="5.18724">
        <ele>506.7520752</ele>
        <time>2010-06-27T07:26:55Z</time>
      </trkpt>
      <trkpt lat="45.47372" lon="5.18714">
        <ele>504.348877</ele>
        <time>2010-06-27T07:27:03Z</time>
      </trkpt>
      <trkpt lat="45.47354" lon="5.18697">
        <ele>506.2714844</ele>
        <time>2010-06-27T07:27:15Z</time>
      </trkpt>
      <trkpt lat="45.47337" lon="5.18685">
        <ele>510.59729</ele>
        <time>2010-06-27T07:27:28Z</time>
      </trkpt>
      <trkpt lat="45.47323" lon="5.18674">
        <ele>513.9620361</ele>
        <time>2010-06-27T07:27:39Z</time>
      </trkpt>
      <trkpt lat="45.47302" lon="5.18657">
        <ele>516.3652344</ele>
        <time>2010-06-27T07:27:55Z</time>
      </trkpt>
      <trkpt lat="45.4729" lon="5.18646">
        <ele>517.3266602</ele>
        <time>2010-06-27T07:28:05Z</time>
      </trkpt>
      <trkpt lat="45.4728" lon="5.18638">
        <ele>517.3266602</ele>
        <time>2010-06-27T07:28:13Z</time>
      </trkpt>
      <trkpt lat="45.47265" lon="5.18622">
        <ele>518.2878418</ele>
        <time>2010-06-27T07:28:25Z</time>
      </trkpt>
      <trkpt lat="45.47259" lon="5.18615">
        <ele>517.807251</ele>
        <time>2010-06-27T07:28:30Z</time>
      </trkpt>
      <trkpt lat="45.47247" lon="5.18617">
        <ele>518.2878418</ele>
        <time>2010-06-27T07:28:38Z</time>
      </trkpt>
      <trkpt lat="45.47238" lon="5.1863">
        <ele>518.7685547</ele>
        <time>2010-06-27T07:28:45Z</time>
      </trkpt>
      <trkpt lat="45.47223" lon="5.18643">
        <ele>519.2492676</ele>
        <time>2010-06-27T07:28:55Z</time>
      </trkpt>
      <trkpt lat="45.47215" lon="5.18657">
        <ele>521.6525879</ele>
        <time>2010-06-27T07:29:01Z</time>
      </trkpt>
      <trkpt lat="45.47208" lon="5.18661">
        <ele>522.1331787</ele>
        <time>2010-06-27T07:29:05Z</time>
      </trkpt>
      <trkpt lat="45.4719" lon="5.18647">
        <ele>522.1331787</ele>
        <time>2010-06-27T07:29:13Z</time>
      </trkpt>
      <trkpt lat="45.47168" lon="5.18622">
        <ele>522.1331787</ele>
        <time>2010-06-27T07:29:21Z</time>
      </trkpt>
      <trkpt lat="45.47157" lon="5.18609">
        <ele>521.6525879</ele>
        <time>2010-06-27T07:29:24Z</time>
      </trkpt>
      <trkpt lat="45.47135" lon="5.18579">
        <ele>521.1719971</ele>
        <time>2010-06-27T07:29:30Z</time>
      </trkpt>
      <trkpt lat="45.47119" lon="5.1855">
        <ele>520.6912842</ele>
        <time>2010-06-27T07:29:35Z</time>
      </trkpt>
      <trkpt lat="45.47108" lon="5.18525">
        <ele>520.6912842</ele>
        <time>2010-06-27T07:29:39Z</time>
      </trkpt>
      <trkpt lat="45.47104" lon="5.18495">
        <ele>521.1719971</ele>
        <time>2010-06-27T07:29:43Z</time>
      </trkpt>
      <trkpt lat="45.47108" lon="5.18405">
        <ele>521.6525879</ele>
        <time>2010-06-27T07:29:55Z</time>
      </trkpt>
      <trkpt lat="45.47095" lon="5.18342">
        <ele>520.6912842</ele>
        <time>2010-06-27T07:30:03Z</time>
      </trkpt>
      <trkpt lat="45.47088" lon="5.1832">
        <ele>519.7298584</ele>
        <time>2010-06-27T07:30:06Z</time>
      </trkpt>
      <trkpt lat="45.4707" lon="5.18234">
        <ele>518.2878418</ele>
        <time>2010-06-27T07:30:16Z</time>
      </trkpt>
      <trkpt lat="45.47057" lon="5.18163">
        <ele>517.3266602</ele>
        <time>2010-06-27T07:30:24Z</time>
      </trkpt>
      <trkpt lat="45.47053" lon="5.18146">
        <ele>516.3652344</ele>
        <time>2010-06-27T07:30:26Z</time>
      </trkpt>
      <trkpt lat="45.47051" lon="5.1808">
        <ele>513.9620361</ele>
        <time>2010-06-27T07:30:33Z</time>
      </trkpt>
      <trkpt lat="45.47054" lon="5.18051">
        <ele>512.5200195</ele>
        <time>2010-06-27T07:30:36Z</time>
      </trkpt>
      <trkpt lat="45.47067" lon="5.18017">
        <ele>511.0780029</ele>
        <time>2010-06-27T07:30:40Z</time>
      </trkpt>
      <trkpt lat="45.47087" lon="5.17993">
        <ele>511.0780029</ele>
        <time>2010-06-27T07:30:44Z</time>
      </trkpt>
      <trkpt lat="45.47106" lon="5.17951">
        <ele>509.6361084</ele>
        <time>2010-06-27T07:30:49Z</time>
      </trkpt>
      <trkpt lat="45.47108" lon="5.1794">
        <ele>509.1553955</ele>
        <time>2010-06-27T07:30:50Z</time>
      </trkpt>
      <trkpt lat="45.47111" lon="5.17902">
        <ele>506.7520752</ele>
        <time>2010-06-27T07:30:54Z</time>
      </trkpt>
      <trkpt lat="45.47114" lon="5.17892">
        <ele>506.7520752</ele>
        <time>2010-06-27T07:30:57Z</time>
      </trkpt>
      <trkpt lat="45.47126" lon="5.17891">
        <ele>506.2714844</ele>
        <time>2010-06-27T07:31:02Z</time>
      </trkpt>
      <trkpt lat="45.47147" lon="5.179">
        <ele>510.1166992</ele>
        <time>2010-06-27T07:31:14Z</time>
      </trkpt>
      <trkpt lat="45.47173" lon="5.17907">
        <ele>513.0007324</ele>
        <time>2010-06-27T07:31:28Z</time>
      </trkpt>
      <trkpt lat="45.47207" lon="5.17913">
        <ele>516.3652344</ele>
        <time>2010-06-27T07:31:46Z</time>
      </trkpt>
      <trkpt lat="45.4722" lon="5.17916">
        <ele>518.7685547</ele>
        <time>2010-06-27T07:31:54Z</time>
      </trkpt>
      <trkpt lat="45.47239" lon="5.17915">
        <ele>521.6525879</ele>
        <time>2010-06-27T07:32:03Z</time>
      </trkpt>
      <trkpt lat="45.47259" lon="5.17928">
        <ele>523.0946045</ele>
        <time>2010-06-27T07:32:13Z</time>
      </trkpt>
      <trkpt lat="45.47269" lon="5.17939">
        <ele>524.536499</ele>
        <time>2010-06-27T07:32:19Z</time>
      </trkpt>
      <trkpt lat="45.47276" lon="5.17948">
        <ele>525.4978027</ele>
        <time>2010-06-27T07:32:23Z</time>
      </trkpt>
      <trkpt lat="45.47291" lon="5.17955">
        <ele>526.4591064</ele>
        <time>2010-06-27T07:32:31Z</time>
      </trkpt>
      <trkpt lat="45.47307" lon="5.17968">
        <ele>525.4978027</ele>
        <time>2010-06-27T07:32:38Z</time>
      </trkpt>
      <trkpt lat="45.47325" lon="5.17989">
        <ele>524.536499</ele>
        <time>2010-06-27T07:32:46Z</time>
      </trkpt>
      <trkpt lat="45.47341" lon="5.18006">
        <ele>522.6138916</ele>
        <time>2010-06-27T07:32:51Z</time>
      </trkpt>
      <trkpt lat="45.47361" lon="5.18014">
        <ele>521.6525879</ele>
        <time>2010-06-27T07:32:56Z</time>
      </trkpt>
      <trkpt lat="45.47377" lon="5.18024">
        <ele>520.2105713</ele>
        <time>2010-06-27T07:32:59Z</time>
      </trkpt>
      <trkpt lat="45.47386" lon="5.18032">
        <ele>519.2492676</ele>
        <time>2010-06-27T07:33:01Z</time>
      </trkpt>
      <trkpt lat="45.47398" lon="5.18047">
        <ele>517.3266602</ele>
        <time>2010-06-27T07:33:06Z</time>
      </trkpt>
      <trkpt lat="45.47411" lon="5.18049">
        <ele>516.3652344</ele>
        <time>2010-06-27T07:33:11Z</time>
      </trkpt>
      <trkpt lat="45.47422" lon="5.18051">
        <ele>516.8459473</ele>
        <time>2010-06-27T07:33:15Z</time>
      </trkpt>
      <trkpt lat="45.47439" lon="5.18046">
        <ele>520.2105713</ele>
        <time>2010-06-27T07:33:22Z</time>
      </trkpt>
      <trkpt lat="45.47453" lon="5.18053">
        <ele>525.0172119</ele>
        <time>2010-06-27T07:33:29Z</time>
      </trkpt>
      <trkpt lat="45.47458" lon="5.18057">
        <ele>526.9398193</ele>
        <time>2010-06-27T07:33:32Z</time>
      </trkpt>
      <trkpt lat="45.47471" lon="5.18071">
        <ele>530.7851563</ele>
        <time>2010-06-27T07:33:39Z</time>
      </trkpt>
      <trkpt lat="45.47479" lon="5.18078">
        <ele>531.7463379</ele>
        <time>2010-06-27T07:33:43Z</time>
      </trkpt>
      <trkpt lat="45.47482" lon="5.18087">
        <ele>532.2270508</ele>
        <time>2010-06-27T07:33:46Z</time>
      </trkpt>
      <trkpt lat="45.4749" lon="5.18092">
        <ele>529.3431396</ele>
        <time>2010-06-27T07:33:50Z</time>
      </trkpt>
      <trkpt lat="45.475" lon="5.1809">
        <ele>529.3431396</ele>
        <time>2010-06-27T07:33:56Z</time>
      </trkpt>
      <trkpt lat="45.47503" lon="5.18082">
        <ele>526.4591064</ele>
        <time>2010-06-27T07:34:00Z</time>
      </trkpt>
      <trkpt lat="45.475" lon="5.18061">
        <ele>522.6138916</ele>
        <time>2010-06-27T07:34:08Z</time>
      </trkpt>
      <trkpt lat="45.47497" lon="5.18037">
        <ele>519.7298584</ele>
        <time>2010-06-27T07:34:16Z</time>
      </trkpt>
      <trkpt lat="45.47494" lon="5.18013">
        <ele>521.6525879</ele>
        <time>2010-06-27T07:34:24Z</time>
      </trkpt>
      <trkpt lat="45.4749" lon="5.17989">
        <ele>528.8625488</ele>
        <time>2010-06-27T07:34:34Z</time>
      </trkpt>
      <trkpt lat="45.47488" lon="5.17965">
        <ele>530.7851563</ele>
        <time>2010-06-27T07:34:42Z</time>
      </trkpt>
      <trkpt lat="45.47491" lon="5.17934">
        <ele>531.2657471</ele>
        <time>2010-06-27T07:34:50Z</time>
      </trkpt>
      <trkpt lat="45.47496" lon="5.17906">
        <ele>527.901001</ele>
        <time>2010-06-27T07:34:59Z</time>
      </trkpt>
      <trkpt lat="45.47506" lon="5.17873">
        <ele>522.1331787</ele>
        <time>2010-06-27T07:35:10Z</time>
      </trkpt>
      <trkpt lat="45.47523" lon="5.17833">
        <ele>519.7298584</ele>
        <time>2010-06-27T07:35:24Z</time>
      </trkpt>
      <trkpt lat="45.47536" lon="5.17787">
        <ele>516.8459473</ele>
        <time>2010-06-27T07:35:36Z</time>
      </trkpt>
      <trkpt lat="45.47535" lon="5.17733">
        <ele>513.9620361</ele>
        <time>2010-06-27T07:35:44Z</time>
      </trkpt>
      <trkpt lat="45.47535" lon="5.17718">
        <ele>513.0007324</ele>
        <time>2010-06-27T07:35:46Z</time>
      </trkpt>
      <trkpt lat="45.47542" lon="5.17684">
        <ele>510.59729</ele>
        <time>2010-06-27T07:35:51Z</time>
      </trkpt>
      <trkpt lat="45.47548" lon="5.17664">
        <ele>508.6746826</ele>
        <time>2010-06-27T07:35:54Z</time>
      </trkpt>
      <trkpt lat="45.47553" lon="5.17633">
        <ele>504.8294678</ele>
        <time>2010-06-27T07:35:59Z</time>
      </trkpt>
      <trkpt lat="45.47556" lon="5.17624">
        <ele>503.3874512</ele>
        <time>2010-06-27T07:36:01Z</time>
      </trkpt>
      <trkpt lat="45.4757" lon="5.17599">
        <ele>501.9455566</ele>
        <time>2010-06-27T07:36:05Z</time>
      </trkpt>
      <trkpt lat="45.47568" lon="5.17568">
        <ele>499.0615234</ele>
        <time>2010-06-27T07:36:09Z</time>
      </trkpt>
      <trkpt lat="45.47556" lon="5.17519">
        <ele>494.7355957</ele>
        <time>2010-06-27T07:36:15Z</time>
      </trkpt>
      <trkpt lat="45.47538" lon="5.17441">
        <ele>493.774292</ele>
        <time>2010-06-27T07:36:23Z</time>
      </trkpt>
      <trkpt lat="45.47516" lon="5.17354">
        <ele>492.3323975</ele>
        <time>2010-06-27T07:36:32Z</time>
      </trkpt>
      <trkpt lat="45.47512" lon="5.17323">
        <ele>491.8516846</ele>
        <time>2010-06-27T07:36:36Z</time>
      </trkpt>
      <trkpt lat="45.47502" lon="5.17296">
        <ele>491.8516846</ele>
        <time>2010-06-27T07:36:40Z</time>
      </trkpt>
      <trkpt lat="45.47487" lon="5.1727">
        <ele>490.8903809</ele>
        <time>2010-06-27T07:36:46Z</time>
      </trkpt>
      <trkpt lat="45.4748" lon="5.17236">
        <ele>490.40979</ele>
        <time>2010-06-27T07:36:53Z</time>
      </trkpt>
      <trkpt lat="45.47468" lon="5.17174">
        <ele>488.9677734</ele>
        <time>2010-06-27T07:37:02Z</time>
      </trkpt>
      <trkpt lat="45.47455" lon="5.17114">
        <ele>484.6418457</ele>
        <time>2010-06-27T07:37:08Z</time>
      </trkpt>
      <trkpt lat="45.47449" lon="5.17092">
        <ele>482.2385254</ele>
        <time>2010-06-27T07:37:10Z</time>
      </trkpt>
      <trkpt lat="45.47449" lon="5.17046">
        <ele>479.3544922</ele>
        <time>2010-06-27T07:37:14Z</time>
      </trkpt>
      <trkpt lat="45.47466" lon="5.16996">
        <ele>476.9512939</ele>
        <time>2010-06-27T07:37:20Z</time>
      </trkpt>
      <trkpt lat="45.47456" lon="5.16992">
        <ele>476.9512939</ele>
        <time>2010-06-27T07:37:25Z</time>
      </trkpt>
      <trkpt lat="45.47426" lon="5.17009">
        <ele>477.9124756</ele>
        <time>2010-06-27T07:37:35Z</time>
      </trkpt>
      <trkpt lat="45.47405" lon="5.17008">
        <ele>478.3931885</ele>
        <time>2010-06-27T07:37:42Z</time>
      </trkpt>
      <trkpt lat="45.47394" lon="5.17005">
        <ele>479.3544922</ele>
        <time>2010-06-27T07:37:49Z</time>
      </trkpt>
      <trkpt lat="45.47385" lon="5.16995">
        <ele>480.7966309</ele>
        <time>2010-06-27T07:37:57Z</time>
      </trkpt>
      <trkpt lat="45.47378" lon="5.16975">
        <ele>481.7578125</ele>
        <time>2010-06-27T07:38:08Z</time>
      </trkpt>
      <trkpt lat="45.4737" lon="5.1695">
        <ele>485.1224365</ele>
        <time>2010-06-27T07:38:19Z</time>
      </trkpt>
      <trkpt lat="45.47366" lon="5.16924">
        <ele>488.0064697</ele>
        <time>2010-06-27T07:38:32Z</time>
      </trkpt>
      <trkpt lat="45.47363" lon="5.16905">
        <ele>486.5644531</ele>
        <time>2010-06-27T07:38:42Z</time>
      </trkpt>
      <trkpt lat="45.47357" lon="5.16897">
        <ele>486.5644531</ele>
        <time>2010-06-27T07:38:47Z</time>
      </trkpt>
      <trkpt lat="45.47355" lon="5.16895">
        <ele>487.5256348</ele>
        <time>2010-06-27T07:38:55Z</time>
      </trkpt>
      <trkpt lat="45.47354" lon="5.16896">
        <ele>488.0064697</ele>
        <time>2010-06-27T07:39:04Z</time>
      </trkpt>
      <trkpt lat="45.47344" lon="5.16895">
        <ele>488.4871826</ele>
        <time>2010-06-27T07:39:12Z</time>
      </trkpt>
      <trkpt lat="45.47333" lon="5.16896">
        <ele>493.2935791</ele>
        <time>2010-06-27T07:39:21Z</time>
      </trkpt>
      <trkpt lat="45.47327" lon="5.16895">
        <ele>492.3323975</ele>
        <time>2010-06-27T07:39:26Z</time>
      </trkpt>
      <trkpt lat="45.47315" lon="5.16894">
        <ele>495.2161865</ele>
        <time>2010-06-27T07:39:36Z</time>
      </trkpt>
      <trkpt lat="45.47304" lon="5.16894">
        <ele>493.774292</ele>
        <time>2010-06-27T07:39:44Z</time>
      </trkpt>
      <trkpt lat="45.47301" lon="5.16894">
        <ele>493.2935791</ele>
        <time>2010-06-27T07:39:46Z</time>
      </trkpt>
      <trkpt lat="45.47291" lon="5.16894">
        <ele>492.8129883</ele>
        <time>2010-06-27T07:39:53Z</time>
      </trkpt>
      <trkpt lat="45.47281" lon="5.16897">
        <ele>492.8129883</ele>
        <time>2010-06-27T07:40:01Z</time>
      </trkpt>
      <trkpt lat="45.47272" lon="5.16899">
        <ele>493.2935791</ele>
        <time>2010-06-27T07:40:08Z</time>
      </trkpt>
      <trkpt lat="45.4726" lon="5.16902">
        <ele>496.1777344</ele>
        <time>2010-06-27T07:40:17Z</time>
      </trkpt>
      <trkpt lat="45.47253" lon="5.1691">
        <ele>493.774292</ele>
        <time>2010-06-27T07:40:23Z</time>
      </trkpt>
      <trkpt lat="45.4724" lon="5.16911">
        <ele>491.8516846</ele>
        <time>2010-06-27T07:40:31Z</time>
      </trkpt>
      <trkpt lat="45.47222" lon="5.16916">
        <ele>495.2161865</ele>
        <time>2010-06-27T07:40:40Z</time>
      </trkpt>
      <trkpt lat="45.47207" lon="5.16917">
        <ele>499.5422363</ele>
        <time>2010-06-27T07:40:48Z</time>
      </trkpt>
      <trkpt lat="45.47201" lon="5.16915">
        <ele>500.9841309</ele>
        <time>2010-06-27T07:40:51Z</time>
      </trkpt>
      <trkpt lat="45.47188" lon="5.16912">
        <ele>500.9841309</ele>
        <time>2010-06-27T07:40:57Z</time>
      </trkpt>
      <trkpt lat="45.47186" lon="5.16912">
        <ele>500.50354</ele>
        <time>2010-06-27T07:40:58Z</time>
      </trkpt>
      <trkpt lat="45.47181" lon="5.16914">
        <ele>500.50354</ele>
        <time>2010-06-27T07:41:01Z</time>
      </trkpt>
      <trkpt lat="45.47162" lon="5.1691">
        <ele>500.0229492</ele>
        <time>2010-06-27T07:41:07Z</time>
      </trkpt>
      <trkpt lat="45.47153" lon="5.16921">
        <ele>497.6196289</ele>
        <time>2010-06-27T07:41:12Z</time>
      </trkpt>
      <trkpt lat="45.47136" lon="5.16957">
        <ele>493.774292</ele>
        <time>2010-06-27T07:41:22Z</time>
      </trkpt>
      <trkpt lat="45.47116" lon="5.16996">
        <ele>492.3323975</ele>
        <time>2010-06-27T07:41:34Z</time>
      </trkpt>
      <trkpt lat="45.47098" lon="5.17023">
        <ele>496.6583252</ele>
        <time>2010-06-27T07:41:43Z</time>
      </trkpt>
      <trkpt lat="45.47079" lon="5.17049">
        <ele>504.348877</ele>
        <time>2010-06-27T07:41:52Z</time>
      </trkpt>
      <trkpt lat="45.47069" lon="5.17075">
        <ele>505.3101807</ele>
        <time>2010-06-27T07:41:59Z</time>
      </trkpt>
      <trkpt lat="45.47049" lon="5.17102">
        <ele>506.7520752</ele>
        <time>2010-06-27T07:42:07Z</time>
      </trkpt>
      <trkpt lat="45.47019" lon="5.17128">
        <ele>508.1940918</ele>
        <time>2010-06-27T07:42:19Z</time>
      </trkpt>
      <trkpt lat="45.46999" lon="5.17155">
        <ele>509.6361084</ele>
        <time>2010-06-27T07:42:29Z</time>
      </trkpt>
      <trkpt lat="45.46987" lon="5.17183">
        <ele>510.1166992</ele>
        <time>2010-06-27T07:42:40Z</time>
      </trkpt>
      <trkpt lat="45.46979" lon="5.17203">
        <ele>511.5587158</ele>
        <time>2010-06-27T07:42:49Z</time>
      </trkpt>
      <trkpt lat="45.46966" lon="5.17239">
        <ele>512.0394287</ele>
        <time>2010-06-27T07:43:04Z</time>
      </trkpt>
      <trkpt lat="45.4696" lon="5.17258">
        <ele>513.0007324</ele>
        <time>2010-06-27T07:43:14Z</time>
      </trkpt>
      <trkpt lat="45.46957" lon="5.17263">
        <ele>513.9620361</ele>
        <time>2010-06-27T07:43:21Z</time>
      </trkpt>
      <trkpt lat="45.4695" lon="5.17285">
        <ele>514.442627</ele>
        <time>2010-06-27T07:43:29Z</time>
      </trkpt>
      <trkpt lat="45.46937" lon="5.17323">
        <ele>512.5200195</ele>
        <time>2010-06-27T07:43:38Z</time>
      </trkpt>
      <trkpt lat="45.46923" lon="5.17354">
        <ele>511.0780029</ele>
        <time>2010-06-27T07:43:46Z</time>
      </trkpt>
      <trkpt lat="45.46913" lon="5.17376">
        <ele>509.1553955</ele>
        <time>2010-06-27T07:43:53Z</time>
      </trkpt>
      <trkpt lat="45.46889" lon="5.17409">
        <ele>504.348877</ele>
        <time>2010-06-27T07:44:01Z</time>
      </trkpt>
      <trkpt lat="45.46885" lon="5.17414">
        <ele>503.8681641</ele>
        <time>2010-06-27T07:44:02Z</time>
      </trkpt>
      <trkpt lat="45.46864" lon="5.17449">
        <ele>499.5422363</ele>
        <time>2010-06-27T07:44:09Z</time>
      </trkpt>
      <trkpt lat="45.46847" lon="5.17464">
        <ele>498.1003418</ele>
        <time>2010-06-27T07:44:13Z</time>
      </trkpt>
      <trkpt lat="45.46813" lon="5.17469">
        <ele>494.2550049</ele>
        <time>2010-06-27T07:44:19Z</time>
      </trkpt>
      <trkpt lat="45.46779" lon="5.17473">
        <ele>490.40979</ele>
        <time>2010-06-27T07:44:26Z</time>
      </trkpt>
      <trkpt lat="45.46775" lon="5.17473">
        <ele>489.9290771</ele>
        <time>2010-06-27T07:44:27Z</time>
      </trkpt>
      <trkpt lat="45.4676" lon="5.17472">
        <ele>488.9677734</ele>
        <time>2010-06-27T07:44:30Z</time>
      </trkpt>
      <trkpt lat="45.46713" lon="5.17476">
        <ele>485.1224365</ele>
        <time>2010-06-27T07:44:37Z</time>
      </trkpt>
      <trkpt lat="45.4665" lon="5.17479">
        <ele>480.7966309</ele>
        <time>2010-06-27T07:44:44Z</time>
      </trkpt>
      <trkpt lat="45.46599" lon="5.17483">
        <ele>480.7966309</ele>
        <time>2010-06-27T07:44:50Z</time>
      </trkpt>
      <trkpt lat="45.46576" lon="5.17486">
        <ele>482.7192383</ele>
        <time>2010-06-27T07:44:55Z</time>
      </trkpt>
      <trkpt lat="45.46559" lon="5.17488">
        <ele>484.1611328</ele>
        <time>2010-06-27T07:45:02Z</time>
      </trkpt>
      <trkpt lat="45.46528" lon="5.17489">
        <ele>486.5644531</ele>
        <time>2010-06-27T07:45:16Z</time>
      </trkpt>
      <trkpt lat="45.46499" lon="5.1749">
        <ele>487.5256348</ele>
        <time>2010-06-27T07:45:28Z</time>
      </trkpt>
      <trkpt lat="45.46476" lon="5.17491">
        <ele>487.5256348</ele>
        <time>2010-06-27T07:45:37Z</time>
      </trkpt>
      <trkpt lat="45.46436" lon="5.17498">
        <ele>489.9290771</ele>
        <time>2010-06-27T07:45:54Z</time>
      </trkpt>
      <trkpt lat="45.46407" lon="5.17506">
        <ele>490.8903809</ele>
        <time>2010-06-27T07:46:07Z</time>
      </trkpt>
      <trkpt lat="45.4638" lon="5.17514">
        <ele>492.8129883</ele>
        <time>2010-06-27T07:46:19Z</time>
      </trkpt>
      <trkpt lat="45.4636" lon="5.17517">
        <ele>493.774292</ele>
        <time>2010-06-27T07:46:28Z</time>
      </trkpt>
      <trkpt lat="45.46333" lon="5.1752">
        <ele>495.2161865</ele>
        <time>2010-06-27T07:46:40Z</time>
      </trkpt>
      <trkpt lat="45.46312" lon="5.1752">
        <ele>494.7355957</ele>
        <time>2010-06-27T07:46:51Z</time>
      </trkpt>
      <trkpt lat="45.46288" lon="5.1753">
        <ele>495.2161865</ele>
        <time>2010-06-27T07:47:00Z</time>
      </trkpt>
      <trkpt lat="45.46266" lon="5.1755">
        <ele>495.2161865</ele>
        <time>2010-06-27T07:47:07Z</time>
      </trkpt>
      <trkpt lat="45.46244" lon="5.17578">
        <ele>495.2161865</ele>
        <time>2010-06-27T07:47:16Z</time>
      </trkpt>
      <trkpt lat="45.46228" lon="5.17596">
        <ele>499.0615234</ele>
        <time>2010-06-27T07:47:23Z</time>
      </trkpt>
      <trkpt lat="45.46215" lon="5.17616">
        <ele>501.4648438</ele>
        <time>2010-06-27T07:47:29Z</time>
      </trkpt>
      <trkpt lat="45.46195" lon="5.17647">
        <ele>502.4261475</ele>
        <time>2010-06-27T07:47:38Z</time>
      </trkpt>
      <trkpt lat="45.46198" lon="5.17658">
        <ele>503.8681641</ele>
        <time>2010-06-27T07:47:43Z</time>
      </trkpt>
      <trkpt lat="45.46205" lon="5.17666">
        <ele>503.8681641</ele>
        <time>2010-06-27T07:47:50Z</time>
      </trkpt>
      <trkpt lat="45.46206" lon="5.17667">
        <ele>503.8681641</ele>
        <time>2010-06-27T07:47:51Z</time>
      </trkpt>
      <trkpt lat="45.4621" lon="5.17685">
        <ele>502.4261475</ele>
        <time>2010-06-27T07:47:59Z</time>
      </trkpt>
      <trkpt lat="45.46216" lon="5.17697">
        <ele>502.9067383</ele>
        <time>2010-06-27T07:48:06Z</time>
      </trkpt>
      <trkpt lat="45.46221" lon="5.17707">
        <ele>505.7908936</ele>
        <time>2010-06-27T07:48:12Z</time>
      </trkpt>
      <trkpt lat="45.46223" lon="5.17711">
        <ele>507.713501</ele>
        <time>2010-06-27T07:48:15Z</time>
      </trkpt>
      <trkpt lat="45.46232" lon="5.17723">
        <ele>508.1940918</ele>
        <time>2010-06-27T07:48:24Z</time>
      </trkpt>
      <trkpt lat="45.4624" lon="5.17729">
        <ele>508.1940918</ele>
        <time>2010-06-27T07:48:30Z</time>
      </trkpt>
      <trkpt lat="45.46249" lon="5.17735">
        <ele>508.6746826</ele>
        <time>2010-06-27T07:48:38Z</time>
      </trkpt>
      <trkpt lat="45.46259" lon="5.17745">
        <ele>509.6361084</ele>
        <time>2010-06-27T07:48:45Z</time>
      </trkpt>
      <trkpt lat="45.46268" lon="5.17763">
        <ele>510.1166992</ele>
        <time>2010-06-27T07:48:54Z</time>
      </trkpt>
      <trkpt lat="45.46275" lon="5.17777">
        <ele>509.6361084</ele>
        <time>2010-06-27T07:49:02Z</time>
      </trkpt>
      <trkpt lat="45.4628" lon="5.17785">
        <ele>511.0780029</ele>
        <time>2010-06-27T07:49:08Z</time>
      </trkpt>
      <trkpt lat="45.46288" lon="5.178">
        <ele>510.1166992</ele>
        <time>2010-06-27T07:49:15Z</time>
      </trkpt>
      <trkpt lat="45.46291" lon="5.17805">
        <ele>510.1166992</ele>
        <time>2010-06-27T07:49:23Z</time>
      </trkpt>
      <trkpt lat="45.46291" lon="5.1781">
        <ele>512.0394287</ele>
        <time>2010-06-27T07:49:37Z</time>
      </trkpt>
      <trkpt lat="45.46288" lon="5.17814">
        <ele>512.0394287</ele>
        <time>2010-06-27T07:49:42Z</time>
      </trkpt>
      <trkpt lat="45.46291" lon="5.17815">
        <ele>512.5200195</ele>
        <time>2010-06-27T07:49:46Z</time>
      </trkpt>
      <trkpt lat="45.46291" lon="5.1783">
        <ele>513.0007324</ele>
        <time>2010-06-27T07:49:55Z</time>
      </trkpt>
      <trkpt lat="45.46285" lon="5.17853">
        <ele>515.8846436</ele>
        <time>2010-06-27T07:50:06Z</time>
      </trkpt>
      <trkpt lat="45.46283" lon="5.17878">
        <ele>516.3652344</ele>
        <time>2010-06-27T07:50:18Z</time>
      </trkpt>
      <trkpt lat="45.46285" lon="5.179">
        <ele>516.8459473</ele>
        <time>2010-06-27T07:50:28Z</time>
      </trkpt>
      <trkpt lat="45.46296" lon="5.17918">
        <ele>517.807251</ele>
        <time>2010-06-27T07:50:38Z</time>
      </trkpt>
      <trkpt lat="45.46303" lon="5.17932">
        <ele>519.2492676</ele>
        <time>2010-06-27T07:50:46Z</time>
      </trkpt>
      <trkpt lat="45.4631" lon="5.17951">
        <ele>520.6912842</ele>
        <time>2010-06-27T07:50:54Z</time>
      </trkpt>
      <trkpt lat="45.46313" lon="5.17957">
        <ele>522.6138916</ele>
        <time>2010-06-27T07:50:58Z</time>
      </trkpt>
      <trkpt lat="45.4632" lon="5.17972">
        <ele>524.536499</ele>
        <time>2010-06-27T07:51:05Z</time>
      </trkpt>
      <trkpt lat="45.46323" lon="5.17988">
        <ele>525.4978027</ele>
        <time>2010-06-27T07:51:11Z</time>
      </trkpt>
      <trkpt lat="45.46335" lon="5.18014">
        <ele>526.9398193</ele>
        <time>2010-06-27T07:51:21Z</time>
      </trkpt>
      <trkpt lat="45.46343" lon="5.18034">
        <ele>530.3044434</ele>
        <time>2010-06-27T07:51:29Z</time>
      </trkpt>
      <trkpt lat="45.46349" lon="5.18043">
        <ele>531.2657471</ele>
        <time>2010-06-27T07:51:34Z</time>
      </trkpt>
      <trkpt lat="45.46354" lon="5.18052">
        <ele>530.3044434</ele>
        <time>2010-06-27T07:51:39Z</time>
      </trkpt>
      <trkpt lat="45.46359" lon="5.18057">
        <ele>530.7851563</ele>
        <time>2010-06-27T07:51:47Z</time>
      </trkpt>
      <trkpt lat="45.46359" lon="5.18059">
        <ele>531.7463379</ele>
        <time>2010-06-27T07:52:36Z</time>
      </trkpt>
      <trkpt lat="45.46364" lon="5.18065">
        <ele>531.7463379</ele>
        <time>2010-06-27T07:52:43Z</time>
      </trkpt>
      <trkpt lat="45.46366" lon="5.18071">
        <ele>532.7077637</ele>
        <time>2010-06-27T07:52:46Z</time>
      </trkpt>
      <trkpt lat="45.46373" lon="5.1808">
        <ele>533.1883545</ele>
        <time>2010-06-27T07:52:51Z</time>
      </trkpt>
      <trkpt lat="45.46378" lon="5.18081">
        <ele>532.7077637</ele>
        <time>2010-06-27T07:52:53Z</time>
      </trkpt>
      <trkpt lat="45.46399" lon="5.18097">
        <ele>529.8237305</ele>
        <time>2010-06-27T07:53:01Z</time>
      </trkpt>
      <trkpt lat="45.4641" lon="5.18101">
        <ele>528.8625488</ele>
        <time>2010-06-27T07:53:05Z</time>
      </trkpt>
      <trkpt lat="45.46427" lon="5.181">
        <ele>528.3818359</ele>
        <time>2010-06-27T07:53:10Z</time>
      </trkpt>
      <trkpt lat="45.46454" lon="5.18105">
        <ele>526.4591064</ele>
        <time>2010-06-27T07:53:16Z</time>
      </trkpt>
      <trkpt lat="45.46482" lon="5.18085">
        <ele>522.1331787</ele>
        <time>2010-06-27T07:53:22Z</time>
      </trkpt>
      <trkpt lat="45.46487" lon="5.18084">
        <ele>521.6525879</ele>
        <time>2010-06-27T07:53:23Z</time>
      </trkpt>
      <trkpt lat="45.46508" lon="5.18086">
        <ele>518.7685547</ele>
        <time>2010-06-27T07:53:27Z</time>
      </trkpt>
      <trkpt lat="45.46518" lon="5.18085">
        <ele>518.2878418</ele>
        <time>2010-06-27T07:53:29Z</time>
      </trkpt>
      <trkpt lat="45.46523" lon="5.18097">
        <ele>519.2492676</ele>
        <time>2010-06-27T07:53:33Z</time>
      </trkpt>
      <trkpt lat="45.46523" lon="5.18134">
        <ele>516.8459473</ele>
        <time>2010-06-27T07:53:43Z</time>
      </trkpt>
      <trkpt lat="45.46522" lon="5.18176">
        <ele>517.3266602</ele>
        <time>2010-06-27T07:53:53Z</time>
      </trkpt>
      <trkpt lat="45.4652" lon="5.18183">
        <ele>518.2878418</ele>
        <time>2010-06-27T07:53:55Z</time>
      </trkpt>
      <trkpt lat="45.46516" lon="5.182">
        <ele>518.2878418</ele>
        <time>2010-06-27T07:54:00Z</time>
      </trkpt>
      <trkpt lat="45.465" lon="5.18225">
        <ele>518.7685547</ele>
        <time>2010-06-27T07:54:08Z</time>
      </trkpt>
      <trkpt lat="45.4648" lon="5.18242">
        <ele>517.3266602</ele>
        <time>2010-06-27T07:54:16Z</time>
      </trkpt>
      <trkpt lat="45.46477" lon="5.18244">
        <ele>517.807251</ele>
        <time>2010-06-27T07:54:17Z</time>
      </trkpt>
      <trkpt lat="45.46475" lon="5.18249">
        <ele>517.807251</ele>
        <time>2010-06-27T07:54:19Z</time>
      </trkpt>
      <trkpt lat="45.46481" lon="5.1827">
        <ele>519.2492676</ele>
        <time>2010-06-27T07:54:25Z</time>
      </trkpt>
      <trkpt lat="45.4649" lon="5.1829">
        <ele>521.1719971</ele>
        <time>2010-06-27T07:54:32Z</time>
      </trkpt>
      <trkpt lat="45.46503" lon="5.18311">
        <ele>522.6138916</ele>
        <time>2010-06-27T07:54:38Z</time>
      </trkpt>
      <trkpt lat="45.46508" lon="5.1832">
        <ele>523.0946045</ele>
        <time>2010-06-27T07:54:40Z</time>
      </trkpt>
      <trkpt lat="45.46514" lon="5.18328">
        <ele>524.536499</ele>
        <time>2010-06-27T07:54:43Z</time>
      </trkpt>
      <trkpt lat="45.46518" lon="5.18341">
        <ele>522.1331787</ele>
        <time>2010-06-27T07:54:48Z</time>
      </trkpt>
      <trkpt lat="45.4652" lon="5.18355">
        <ele>520.2105713</ele>
        <time>2010-06-27T07:54:54Z</time>
      </trkpt>
      <trkpt lat="45.46522" lon="5.18364">
        <ele>518.2878418</ele>
        <time>2010-06-27T07:55:05Z</time>
      </trkpt>
      <trkpt lat="45.46522" lon="5.18374">
        <ele>517.807251</ele>
        <time>2010-06-27T07:55:12Z</time>
      </trkpt>
      <trkpt lat="45.46523" lon="5.18392">
        <ele>519.2492676</ele>
        <time>2010-06-27T07:55:18Z</time>
      </trkpt>
      <trkpt lat="45.46518" lon="5.18409">
        <ele>521.1719971</ele>
        <time>2010-06-27T07:55:25Z</time>
      </trkpt>
      <trkpt lat="45.46515" lon="5.18421">
        <ele>522.6138916</ele>
        <time>2010-06-27T07:55:30Z</time>
      </trkpt>
      <trkpt lat="45.46516" lon="5.18433">
        <ele>523.5751953</ele>
        <time>2010-06-27T07:55:36Z</time>
      </trkpt>
      <trkpt lat="45.4652" lon="5.18444">
        <ele>525.0172119</ele>
        <time>2010-06-27T07:55:44Z</time>
      </trkpt>
      <trkpt lat="45.46522" lon="5.18447">
        <ele>525.4978027</ele>
        <time>2010-06-27T07:55:51Z</time>
      </trkpt>
      <trkpt lat="45.46532" lon="5.18453">
        <ele>522.6138916</ele>
        <time>2010-06-27T07:55:59Z</time>
      </trkpt>
      <trkpt lat="45.46545" lon="5.18458">
        <ele>521.6525879</ele>
        <time>2010-06-27T07:56:05Z</time>
      </trkpt>
      <trkpt lat="45.46547" lon="5.18458">
        <ele>521.6525879</ele>
        <time>2010-06-27T07:56:06Z</time>
      </trkpt>
      <trkpt lat="45.46553" lon="5.18459">
        <ele>521.1719971</ele>
        <time>2010-06-27T07:56:09Z</time>
      </trkpt>
      <trkpt lat="45.46557" lon="5.1846">
        <ele>520.2105713</ele>
        <time>2010-06-27T07:56:11Z</time>
      </trkpt>
      <trkpt lat="45.46568" lon="5.18461">
        <ele>519.2492676</ele>
        <time>2010-06-27T07:56:14Z</time>
      </trkpt>
      <trkpt lat="45.46569" lon="5.18467">
        <ele>519.2492676</ele>
        <time>2010-06-27T07:56:17Z</time>
      </trkpt>
      <trkpt lat="45.46572" lon="5.18476">
        <ele>521.6525879</ele>
        <time>2010-06-27T07:56:23Z</time>
      </trkpt>
      <trkpt lat="45.46578" lon="5.18485">
        <ele>523.0946045</ele>
        <time>2010-06-27T07:56:32Z</time>
      </trkpt>
      <trkpt lat="45.46587" lon="5.18495">
        <ele>524.0557861</ele>
        <time>2010-06-27T07:56:37Z</time>
      </trkpt>
      <trkpt lat="45.46589" lon="5.18498">
        <ele>524.0557861</ele>
        <time>2010-06-27T07:56:39Z</time>
      </trkpt>
      <trkpt lat="45.46595" lon="5.18511">
        <ele>525.4978027</ele>
        <time>2010-06-27T07:56:44Z</time>
      </trkpt>
      <trkpt lat="45.466" lon="5.18518">
        <ele>525.4978027</ele>
        <time>2010-06-27T07:56:47Z</time>
      </trkpt>
      <trkpt lat="45.46605" lon="5.18527">
        <ele>525.9783936</ele>
        <time>2010-06-27T07:56:51Z</time>
      </trkpt>
      <trkpt lat="45.46606" lon="5.1853">
        <ele>526.4591064</ele>
        <time>2010-06-27T07:56:53Z</time>
      </trkpt>
      <trkpt lat="45.46612" lon="5.18541">
        <ele>527.4204102</ele>
        <time>2010-06-27T07:56:58Z</time>
      </trkpt>
      <trkpt lat="45.4662" lon="5.18558">
        <ele>528.8625488</ele>
        <time>2010-06-27T07:57:06Z</time>
      </trkpt>
      <trkpt lat="45.46629" lon="5.18584">
        <ele>530.3044434</ele>
        <time>2010-06-27T07:57:15Z</time>
      </trkpt>
      <trkpt lat="45.46644" lon="5.18612">
        <ele>531.2657471</ele>
        <time>2010-06-27T07:57:23Z</time>
      </trkpt>
      <trkpt lat="45.46648" lon="5.18629">
        <ele>532.2270508</ele>
        <time>2010-06-27T07:57:28Z</time>
      </trkpt>
      <trkpt lat="45.46651" lon="5.18656">
        <ele>533.6689453</ele>
        <time>2010-06-27T07:57:36Z</time>
      </trkpt>
      <trkpt lat="45.46655" lon="5.18671">
        <ele>534.6303711</ele>
        <time>2010-06-27T07:57:40Z</time>
      </trkpt>
      <trkpt lat="45.46652" lon="5.18692">
        <ele>533.6689453</ele>
        <time>2010-06-27T07:57:48Z</time>
      </trkpt>
      <trkpt lat="45.46647" lon="5.1871">
        <ele>536.5531006</ele>
        <time>2010-06-27T07:57:54Z</time>
      </trkpt>
      <trkpt lat="45.46638" lon="5.1873">
        <ele>537.9949951</ele>
        <time>2010-06-27T07:58:02Z</time>
      </trkpt>
      <trkpt lat="45.46634" lon="5.18737">
        <ele>537.9949951</ele>
        <time>2010-06-27T07:58:05Z</time>
      </trkpt>
      <trkpt lat="45.46627" lon="5.18745">
        <ele>537.9949951</ele>
        <time>2010-06-27T07:58:10Z</time>
      </trkpt>
      <trkpt lat="45.46617" lon="5.18767">
        <ele>540.3983154</ele>
        <time>2010-06-27T07:58:19Z</time>
      </trkpt>
      <trkpt lat="45.46608" lon="5.18785">
        <ele>538.9562988</ele>
        <time>2010-06-27T07:58:26Z</time>
      </trkpt>
      <trkpt lat="45.46604" lon="5.18793">
        <ele>539.4368896</ele>
        <time>2010-06-27T07:58:31Z</time>
      </trkpt>
      <trkpt lat="45.46591" lon="5.18805">
        <ele>538.475708</ele>
        <time>2010-06-27T07:58:38Z</time>
      </trkpt>
      <trkpt lat="45.4659" lon="5.18809">
        <ele>537.0336914</ele>
        <time>2010-06-27T07:58:39Z</time>
      </trkpt>
      <trkpt lat="45.46593" lon="5.18821">
        <ele>533.1883545</ele>
        <time>2010-06-27T07:58:43Z</time>
      </trkpt>
      <trkpt lat="45.466" lon="5.18843">
        <ele>531.7463379</ele>
        <time>2010-06-27T07:58:50Z</time>
      </trkpt>
      <trkpt lat="45.46605" lon="5.18884">
        <ele>530.3044434</ele>
        <time>2010-06-27T07:59:00Z</time>
      </trkpt>
      <trkpt lat="45.46605" lon="5.18923">
        <ele>532.2270508</ele>
        <time>2010-06-27T07:59:10Z</time>
      </trkpt>
      <trkpt lat="45.466" lon="5.18963">
        <ele>530.7851563</ele>
        <time>2010-06-27T07:59:20Z</time>
      </trkpt>
      <trkpt lat="45.46599" lon="5.18969">
        <ele>529.3431396</ele>
        <time>2010-06-27T07:59:22Z</time>
      </trkpt>
      <trkpt lat="45.46601" lon="5.18975">
        <ele>527.901001</ele>
        <time>2010-06-27T07:59:24Z</time>
      </trkpt>
      <trkpt lat="45.466" lon="5.18988">
        <ele>527.4204102</ele>
        <time>2010-06-27T07:59:29Z</time>
      </trkpt>
      <trkpt lat="45.46598" lon="5.19">
        <ele>527.901001</ele>
        <time>2010-06-27T07:59:33Z</time>
      </trkpt>
      <trkpt lat="45.46596" lon="5.19019">
        <ele>527.901001</ele>
        <time>2010-06-27T07:59:40Z</time>
      </trkpt>
      <trkpt lat="45.46594" lon="5.19034">
        <ele>530.3044434</ele>
        <time>2010-06-27T07:59:46Z</time>
      </trkpt>
      <trkpt lat="45.46595" lon="5.19039">
        <ele>530.7851563</ele>
        <time>2010-06-27T07:59:49Z</time>
      </trkpt>
      <trkpt lat="45.4659" lon="5.19061">
        <ele>531.7463379</ele>
        <time>2010-06-27T07:59:57Z</time>
      </trkpt>
      <trkpt lat="45.46587" lon="5.19074">
        <ele>533.1883545</ele>
        <time>2010-06-27T08:00:02Z</time>
      </trkpt>
      <trkpt lat="45.46585" lon="5.19094">
        <ele>534.6303711</ele>
        <time>2010-06-27T08:00:10Z</time>
      </trkpt>
      <trkpt lat="45.46583" lon="5.19098">
        <ele>535.5915527</ele>
        <time>2010-06-27T08:00:12Z</time>
      </trkpt>
      <trkpt lat="45.46581" lon="5.19115">
        <ele>537.0336914</ele>
        <time>2010-06-27T08:00:19Z</time>
      </trkpt>
      <trkpt lat="45.46576" lon="5.19136">
        <ele>541.84021</ele>
        <time>2010-06-27T08:00:27Z</time>
      </trkpt>
      <trkpt lat="45.4657" lon="5.19158">
        <ele>538.475708</ele>
        <time>2010-06-27T08:00:36Z</time>
      </trkpt>
      <trkpt lat="45.46567" lon="5.19175">
        <ele>537.0336914</ele>
        <time>2010-06-27T08:00:42Z</time>
      </trkpt>
      <trkpt lat="45.46565" lon="5.19186">
        <ele>536.0723877</ele>
        <time>2010-06-27T08:00:45Z</time>
      </trkpt>
      <trkpt lat="45.46555" lon="5.19224">
        <ele>538.9562988</ele>
        <time>2010-06-27T08:00:56Z</time>
      </trkpt>
      <trkpt lat="45.46546" lon="5.19248">
        <ele>544.2436523</ele>
        <time>2010-06-27T08:01:03Z</time>
      </trkpt>
      <trkpt lat="45.46542" lon="5.1927">
        <ele>542.8015137</ele>
        <time>2010-06-27T08:01:10Z</time>
      </trkpt>
      <trkpt lat="45.4654" lon="5.19297">
        <ele>539.9176025</ele>
        <time>2010-06-27T08:01:18Z</time>
      </trkpt>
      <trkpt lat="45.46541" lon="5.19317">
        <ele>542.3209229</ele>
        <time>2010-06-27T08:01:24Z</time>
      </trkpt>
      <trkpt lat="45.4654" lon="5.1934">
        <ele>543.7628174</ele>
        <time>2010-06-27T08:01:31Z</time>
      </trkpt>
      <trkpt lat="45.46537" lon="5.19364">
        <ele>543.7628174</ele>
        <time>2010-06-27T08:01:38Z</time>
      </trkpt>
      <trkpt lat="45.46536" lon="5.19384">
        <ele>542.8015137</ele>
        <time>2010-06-27T08:01:44Z</time>
      </trkpt>
      <trkpt lat="45.46532" lon="5.19423">
        <ele>542.3209229</ele>
        <time>2010-06-27T08:01:56Z</time>
      </trkpt>
      <trkpt lat="45.46529" lon="5.19451">
        <ele>540.8789063</ele>
        <time>2010-06-27T08:02:05Z</time>
      </trkpt>
      <trkpt lat="45.46513" lon="5.1946">
        <ele>543.2821045</ele>
        <time>2010-06-27T08:02:13Z</time>
      </trkpt>
      <trkpt lat="45.46491" lon="5.19455">
        <ele>545.204834</ele>
        <time>2010-06-27T08:02:21Z</time>
      </trkpt>
      <trkpt lat="45.46471" lon="5.19451">
        <ele>548.5693359</ele>
        <time>2010-06-27T08:02:28Z</time>
      </trkpt>
      <trkpt lat="45.46465" lon="5.19447">
        <ele>549.0500488</ele>
        <time>2010-06-27T08:02:30Z</time>
      </trkpt>
      <trkpt lat="45.46445" lon="5.1943">
        <ele>550.4921875</ele>
        <time>2010-06-27T08:02:36Z</time>
      </trkpt>
      <trkpt lat="45.46437" lon="5.19428">
        <ele>550.0114746</ele>
        <time>2010-06-27T08:02:38Z</time>
      </trkpt>
      <trkpt lat="45.46415" lon="5.19434">
        <ele>544.2436523</ele>
        <time>2010-06-27T08:02:43Z</time>
      </trkpt>
      <trkpt lat="45.46406" lon="5.19435">
        <ele>542.8015137</ele>
        <time>2010-06-27T08:02:45Z</time>
      </trkpt>
      <trkpt lat="45.46393" lon="5.19431">
        <ele>542.8015137</ele>
        <time>2010-06-27T08:02:48Z</time>
      </trkpt>
      <trkpt lat="45.46375" lon="5.19422">
        <ele>539.4368896</ele>
        <time>2010-06-27T08:02:54Z</time>
      </trkpt>
      <trkpt lat="45.46352" lon="5.1941">
        <ele>536.5531006</ele>
        <time>2010-06-27T08:03:00Z</time>
      </trkpt>
      <trkpt lat="45.46329" lon="5.1939">
        <ele>535.5915527</ele>
        <time>2010-06-27T08:03:07Z</time>
      </trkpt>
      <trkpt lat="45.46315" lon="5.19372">
        <ele>535.1109619</ele>
        <time>2010-06-27T08:03:14Z</time>
      </trkpt>
      <trkpt lat="45.46297" lon="5.1936">
        <ele>535.1109619</ele>
        <time>2010-06-27T08:03:23Z</time>
      </trkpt>
      <trkpt lat="45.46275" lon="5.19354">
        <ele>534.1496582</ele>
        <time>2010-06-27T08:03:33Z</time>
      </trkpt>
      <trkpt lat="45.46253" lon="5.19352">
        <ele>533.1883545</ele>
        <time>2010-06-27T08:03:43Z</time>
      </trkpt>
      <trkpt lat="45.46232" lon="5.19348">
        <ele>532.7077637</ele>
        <time>2010-06-27T08:03:53Z</time>
      </trkpt>
      <trkpt lat="45.46213" lon="5.19355">
        <ele>533.6689453</ele>
        <time>2010-06-27T08:04:03Z</time>
      </trkpt>
      <trkpt lat="45.46211" lon="5.19357">
        <ele>533.6689453</ele>
        <time>2010-06-27T08:04:04Z</time>
      </trkpt>
      <trkpt lat="45.46197" lon="5.19388">
        <ele>535.5915527</ele>
        <time>2010-06-27T08:04:15Z</time>
      </trkpt>
      <trkpt lat="45.46181" lon="5.19417">
        <ele>537.0336914</ele>
        <time>2010-06-27T08:04:24Z</time>
      </trkpt>
      <trkpt lat="45.46168" lon="5.19431">
        <ele>536.5531006</ele>
        <time>2010-06-27T08:04:29Z</time>
      </trkpt>
      <trkpt lat="45.4616" lon="5.19438">
        <ele>536.5531006</ele>
        <time>2010-06-27T08:04:32Z</time>
      </trkpt>
      <trkpt lat="45.46147" lon="5.19474">
        <ele>536.0723877</ele>
        <time>2010-06-27T08:04:41Z</time>
      </trkpt>
      <trkpt lat="45.46142" lon="5.19513">
        <ele>533.1883545</ele>
        <time>2010-06-27T08:04:50Z</time>
      </trkpt>
      <trkpt lat="45.46141" lon="5.19517">
        <ele>533.1883545</ele>
        <time>2010-06-27T08:04:51Z</time>
      </trkpt>
      <trkpt lat="45.46128" lon="5.19517">
        <ele>532.7077637</ele>
        <time>2010-06-27T08:04:56Z</time>
      </trkpt>
      <trkpt lat="45.461" lon="5.19488">
        <ele>531.7463379</ele>
        <time>2010-06-27T08:05:05Z</time>
      </trkpt>
      <trkpt lat="45.46085" lon="5.19475">
        <ele>530.3044434</ele>
        <time>2010-06-27T08:05:09Z</time>
      </trkpt>
      <trkpt lat="45.4604" lon="5.19441">
        <ele>526.4591064</ele>
        <time>2010-06-27T08:05:17Z</time>
      </trkpt>
      <trkpt lat="45.4599" lon="5.19406">
        <ele>521.1719971</ele>
        <time>2010-06-27T08:05:23Z</time>
      </trkpt>
      <trkpt lat="45.45945" lon="5.1937">
        <ele>518.2878418</ele>
        <time>2010-06-27T08:05:29Z</time>
      </trkpt>
      <trkpt lat="45.45939" lon="5.19365">
        <ele>517.807251</ele>
        <time>2010-06-27T08:05:30Z</time>
      </trkpt>
      <trkpt lat="45.45927" lon="5.19351">
        <ele>515.4040527</ele>
        <time>2010-06-27T08:05:33Z</time>
      </trkpt>
      <trkpt lat="45.45916" lon="5.19361">
        <ele>514.9233398</ele>
        <time>2010-06-27T08:05:37Z</time>
      </trkpt>
      <trkpt lat="45.45915" lon="5.19366">
        <ele>515.4040527</ele>
        <time>2010-06-27T08:05:38Z</time>
      </trkpt>
      <trkpt lat="45.45906" lon="5.19418">
        <ele>516.8459473</ele>
        <time>2010-06-27T08:05:50Z</time>
      </trkpt>
      <trkpt lat="45.45895" lon="5.19472">
        <ele>516.8459473</ele>
        <time>2010-06-27T08:06:01Z</time>
      </trkpt>
      <trkpt lat="45.45888" lon="5.19504">
        <ele>517.3266602</ele>
        <time>2010-06-27T08:06:09Z</time>
      </trkpt>
      <trkpt lat="45.45882" lon="5.19539">
        <ele>518.2878418</ele>
        <time>2010-06-27T08:06:23Z</time>
      </trkpt>
      <trkpt lat="45.45877" lon="5.19574">
        <ele>519.7298584</ele>
        <time>2010-06-27T08:06:37Z</time>
      </trkpt>
      <trkpt lat="45.45877" lon="5.19602">
        <ele>521.1719971</ele>
        <time>2010-06-27T08:06:47Z</time>
      </trkpt>
      <trkpt lat="45.45878" lon="5.19624">
        <ele>521.1719971</ele>
        <time>2010-06-27T08:06:55Z</time>
      </trkpt>
      <trkpt lat="45.45881" lon="5.19651">
        <ele>520.2105713</ele>
        <time>2010-06-27T08:07:03Z</time>
      </trkpt>
      <trkpt lat="45.45884" lon="5.19694">
        <ele>519.2492676</ele>
        <time>2010-06-27T08:07:13Z</time>
      </trkpt>
      <trkpt lat="45.45886" lon="5.19744">
        <ele>516.8459473</ele>
        <time>2010-06-27T08:07:26Z</time>
      </trkpt>
      <trkpt lat="45.45889" lon="5.19774">
        <ele>516.3652344</ele>
        <time>2010-06-27T08:07:34Z</time>
      </trkpt>
      <trkpt lat="45.4589" lon="5.19797">
        <ele>516.3652344</ele>
        <time>2010-06-27T08:07:40Z</time>
      </trkpt>
      <trkpt lat="45.4589" lon="5.19804">
        <ele>517.3266602</ele>
        <time>2010-06-27T08:07:43Z</time>
      </trkpt>
      <trkpt lat="45.45892" lon="5.1981">
        <ele>519.2492676</ele>
        <time>2010-06-27T08:07:46Z</time>
      </trkpt>
      <trkpt lat="45.45893" lon="5.19839">
        <ele>520.6912842</ele>
        <time>2010-06-27T08:07:54Z</time>
      </trkpt>
      <trkpt lat="45.45897" lon="5.19865">
        <ele>521.1719971</ele>
        <time>2010-06-27T08:08:02Z</time>
      </trkpt>
      <trkpt lat="45.45901" lon="5.19878">
        <ele>521.1719971</ele>
        <time>2010-06-27T08:08:07Z</time>
      </trkpt>
      <trkpt lat="45.45903" lon="5.19888">
        <ele>520.6912842</ele>
        <time>2010-06-27T08:08:13Z</time>
      </trkpt>
      <trkpt lat="45.45903" lon="5.19893">
        <ele>521.1719971</ele>
        <time>2010-06-27T08:09:22Z</time>
      </trkpt>
      <trkpt lat="45.45899" lon="5.19903">
        <ele>521.1719971</ele>
        <time>2010-06-27T08:09:26Z</time>
      </trkpt>
      <trkpt lat="45.45895" lon="5.19917">
        <ele>521.6525879</ele>
        <time>2010-06-27T08:09:30Z</time>
      </trkpt>
      <trkpt lat="45.45892" lon="5.19923">
        <ele>521.6525879</ele>
        <time>2010-06-27T08:09:32Z</time>
      </trkpt>
      <trkpt lat="45.45882" lon="5.19937">
        <ele>520.6912842</ele>
        <time>2010-06-27T08:09:37Z</time>
      </trkpt>
      <trkpt lat="45.45873" lon="5.19961">
        <ele>520.2105713</ele>
        <time>2010-06-27T08:09:42Z</time>
      </trkpt>
      <trkpt lat="45.45862" lon="5.19977">
        <ele>520.2105713</ele>
        <time>2010-06-27T08:09:48Z</time>
      </trkpt>
      <trkpt lat="45.45848" lon="5.19988">
        <ele>519.7298584</ele>
        <time>2010-06-27T08:09:55Z</time>
      </trkpt>
      <trkpt lat="45.45838" lon="5.1999">
        <ele>520.6912842</ele>
        <time>2010-06-27T08:10:01Z</time>
      </trkpt>
      <trkpt lat="45.45827" lon="5.19989">
        <ele>521.6525879</ele>
        <time>2010-06-27T08:10:08Z</time>
      </trkpt>
      <trkpt lat="45.45819" lon="5.19988">
        <ele>522.6138916</ele>
        <time>2010-06-27T08:10:14Z</time>
      </trkpt>
      <trkpt lat="45.45807" lon="5.19989">
        <ele>524.536499</ele>
        <time>2010-06-27T08:10:20Z</time>
      </trkpt>
      <trkpt lat="45.45796" lon="5.19992">
        <ele>526.9398193</ele>
        <time>2010-06-27T08:10:27Z</time>
      </trkpt>
      <trkpt lat="45.4579" lon="5.19993">
        <ele>527.4204102</ele>
        <time>2010-06-27T08:10:30Z</time>
      </trkpt>
      <trkpt lat="45.45777" lon="5.19994">
        <ele>527.901001</ele>
        <time>2010-06-27T08:10:37Z</time>
      </trkpt>
      <trkpt lat="45.45772" lon="5.19995">
        <ele>528.8625488</ele>
        <time>2010-06-27T08:10:42Z</time>
      </trkpt>
      <trkpt lat="45.45771" lon="5.19995">
        <ele>529.3431396</ele>
        <time>2010-06-27T08:10:44Z</time>
      </trkpt>
      <trkpt lat="45.45759" lon="5.19992">
        <ele>530.7851563</ele>
        <time>2010-06-27T08:10:51Z</time>
      </trkpt>
      <trkpt lat="45.45751" lon="5.1999">
        <ele>531.2657471</ele>
        <time>2010-06-27T08:10:55Z</time>
      </trkpt>
      <trkpt lat="45.45738" lon="5.19982">
        <ele>528.8625488</ele>
        <time>2010-06-27T08:11:01Z</time>
      </trkpt>
      <trkpt lat="45.45721" lon="5.19974">
        <ele>527.901001</ele>
        <time>2010-06-27T08:11:09Z</time>
      </trkpt>
      <trkpt lat="45.45712" lon="5.19973">
        <ele>528.3818359</ele>
        <time>2010-06-27T08:11:14Z</time>
      </trkpt>
      <trkpt lat="45.45702" lon="5.19973">
        <ele>528.3818359</ele>
        <time>2010-06-27T08:11:20Z</time>
      </trkpt>
      <trkpt lat="45.45689" lon="5.1997">
        <ele>530.3044434</ele>
        <time>2010-06-27T08:11:27Z</time>
      </trkpt>
      <trkpt lat="45.45679" lon="5.19965">
        <ele>530.7851563</ele>
        <time>2010-06-27T08:11:34Z</time>
      </trkpt>
      <trkpt lat="45.45674" lon="5.19963">
        <ele>530.7851563</ele>
        <time>2010-06-27T08:11:36Z</time>
      </trkpt>
      <trkpt lat="45.45659" lon="5.19955">
        <ele>530.3044434</ele>
        <time>2010-06-27T08:11:45Z</time>
      </trkpt>
      <trkpt lat="45.45647" lon="5.19947">
        <ele>530.3044434</ele>
        <time>2010-06-27T08:11:52Z</time>
      </trkpt>
      <trkpt lat="45.45633" lon="5.19934">
        <ele>531.7463379</ele>
        <time>2010-06-27T08:12:00Z</time>
      </trkpt>
      <trkpt lat="45.4562" lon="5.19925">
        <ele>531.7463379</ele>
        <time>2010-06-27T08:12:06Z</time>
      </trkpt>
      <trkpt lat="45.45601" lon="5.19909">
        <ele>531.7463379</ele>
        <time>2010-06-27T08:12:13Z</time>
      </trkpt>
      <trkpt lat="45.45576" lon="5.19894">
        <ele>531.2657471</ele>
        <time>2010-06-27T08:12:22Z</time>
      </trkpt>
      <trkpt lat="45.45563" lon="5.19886">
        <ele>530.7851563</ele>
        <time>2010-06-27T08:12:27Z</time>
      </trkpt>
      <trkpt lat="45.45557" lon="5.19897">
        <ele>530.7851563</ele>
        <time>2010-06-27T08:12:32Z</time>
      </trkpt>
      <trkpt lat="45.4556" lon="5.19926">
        <ele>531.2657471</ele>
        <time>2010-06-27T08:12:39Z</time>
      </trkpt>
      <trkpt lat="45.45563" lon="5.19954">
        <ele>530.3044434</ele>
        <time>2010-06-27T08:12:45Z</time>
      </trkpt>
      <trkpt lat="45.45566" lon="5.19991">
        <ele>529.8237305</ele>
        <time>2010-06-27T08:12:53Z</time>
      </trkpt>
      <trkpt lat="45.45566" lon="5.19995">
        <ele>529.3431396</ele>
        <time>2010-06-27T08:12:54Z</time>
      </trkpt>
      <trkpt lat="45.45565" lon="5.20016">
        <ele>528.8625488</ele>
        <time>2010-06-27T08:12:59Z</time>
      </trkpt>
      <trkpt lat="45.45568" lon="5.20044">
        <ele>528.3818359</ele>
        <time>2010-06-27T08:13:06Z</time>
      </trkpt>
      <trkpt lat="45.45568" lon="5.20065">
        <ele>527.901001</ele>
        <time>2010-06-27T08:13:11Z</time>
      </trkpt>
      <trkpt lat="45.45571" lon="5.20084">
        <ele>529.3431396</ele>
        <time>2010-06-27T08:13:17Z</time>
      </trkpt>
      <trkpt lat="45.45575" lon="5.20106">
        <ele>532.7077637</ele>
        <time>2010-06-27T08:13:23Z</time>
      </trkpt>
      <trkpt lat="45.45579" lon="5.20123">
        <ele>535.1109619</ele>
        <time>2010-06-27T08:13:28Z</time>
      </trkpt>
      <trkpt lat="45.45585" lon="5.20133">
        <ele>536.5531006</ele>
        <time>2010-06-27T08:13:33Z</time>
      </trkpt>
      <trkpt lat="45.45595" lon="5.20148">
        <ele>539.9176025</ele>
        <time>2010-06-27T08:13:40Z</time>
      </trkpt>
      <trkpt lat="45.45611" lon="5.2017">
        <ele>538.9562988</ele>
        <time>2010-06-27T08:13:49Z</time>
      </trkpt>
      <trkpt lat="45.45617" lon="5.2018">
        <ele>538.9562988</ele>
        <time>2010-06-27T08:13:54Z</time>
      </trkpt>
      <trkpt lat="45.45634" lon="5.20204">
        <ele>541.84021</ele>
        <time>2010-06-27T08:14:04Z</time>
      </trkpt>
      <trkpt lat="45.45637" lon="5.20208">
        <ele>541.84021</ele>
        <time>2010-06-27T08:14:06Z</time>
      </trkpt>
      <trkpt lat="45.45642" lon="5.20217">
        <ele>542.3209229</ele>
        <time>2010-06-27T08:14:10Z</time>
      </trkpt>
      <trkpt lat="45.45647" lon="5.20227">
        <ele>543.7628174</ele>
        <time>2010-06-27T08:14:14Z</time>
      </trkpt>
      <trkpt lat="45.45659" lon="5.2025">
        <ele>546.1662598</ele>
        <time>2010-06-27T08:14:22Z</time>
      </trkpt>
      <trkpt lat="45.45664" lon="5.20264">
        <ele>546.6468506</ele>
        <time>2010-06-27T08:14:26Z</time>
      </trkpt>
      <trkpt lat="45.45678" lon="5.20293">
        <ele>549.5307617</ele>
        <time>2010-06-27T08:14:35Z</time>
      </trkpt>
      <trkpt lat="45.45685" lon="5.20313">
        <ele>550.0114746</ele>
        <time>2010-06-27T08:14:41Z</time>
      </trkpt>
      <trkpt lat="45.45691" lon="5.20329">
        <ele>550.9726563</ele>
        <time>2010-06-27T08:14:46Z</time>
      </trkpt>
      <trkpt lat="45.45701" lon="5.20349">
        <ele>551.4533691</ele>
        <time>2010-06-27T08:14:52Z</time>
      </trkpt>
      <trkpt lat="45.45707" lon="5.20367">
        <ele>552.8952637</ele>
        <time>2010-06-27T08:14:58Z</time>
      </trkpt>
      <trkpt lat="45.45716" lon="5.20387">
        <ele>552.8952637</ele>
        <time>2010-06-27T08:15:05Z</time>
      </trkpt>
      <trkpt lat="45.45718" lon="5.20395">
        <ele>551.4533691</ele>
        <time>2010-06-27T08:15:08Z</time>
      </trkpt>
      <trkpt lat="45.45725" lon="5.2041">
        <ele>551.934082</ele>
        <time>2010-06-27T08:15:13Z</time>
      </trkpt>
      <trkpt lat="45.4573" lon="5.20437">
        <ele>553.3759766</ele>
        <time>2010-06-27T08:15:21Z</time>
      </trkpt>
      <trkpt lat="45.45729" lon="5.2045">
        <ele>553.8566895</ele>
        <time>2010-06-27T08:15:25Z</time>
      </trkpt>
      <trkpt lat="45.4573" lon="5.20476">
        <ele>555.298584</ele>
        <time>2010-06-27T08:15:34Z</time>
      </trkpt>
      <trkpt lat="45.45731" lon="5.205">
        <ele>556.7407227</ele>
        <time>2010-06-27T08:15:40Z</time>
      </trkpt>
      <trkpt lat="45.45731" lon="5.20523">
        <ele>560.1052246</ele>
        <time>2010-06-27T08:15:46Z</time>
      </trkpt>
      <trkpt lat="45.4573" lon="5.20562">
        <ele>558.6633301</ele>
        <time>2010-06-27T08:15:54Z</time>
      </trkpt>
      <trkpt lat="45.45727" lon="5.20586">
        <ele>557.2214355</ele>
        <time>2010-06-27T08:16:00Z</time>
      </trkpt>
      <trkpt lat="45.45727" lon="5.20628">
        <ele>560.1052246</ele>
        <time>2010-06-27T08:16:10Z</time>
      </trkpt>
      <trkpt lat="45.45731" lon="5.20646">
        <ele>556.2600098</ele>
        <time>2010-06-27T08:16:16Z</time>
      </trkpt>
      <trkpt lat="45.45737" lon="5.20664">
        <ele>556.2600098</ele>
        <time>2010-06-27T08:16:22Z</time>
      </trkpt>
      <trkpt lat="45.45742" lon="5.20678">
        <ele>553.3759766</ele>
        <time>2010-06-27T08:16:27Z</time>
      </trkpt>
      <trkpt lat="45.45747" lon="5.20692">
        <ele>551.934082</ele>
        <time>2010-06-27T08:16:33Z</time>
      </trkpt>
      <trkpt lat="45.45748" lon="5.20693">
        <ele>551.4533691</ele>
        <time>2010-06-27T08:16:34Z</time>
      </trkpt>
      <trkpt lat="45.45747" lon="5.20701">
        <ele>550.9726563</ele>
        <time>2010-06-27T08:16:37Z</time>
      </trkpt>
      <trkpt lat="45.45751" lon="5.20712">
        <ele>551.934082</ele>
        <time>2010-06-27T08:16:40Z</time>
      </trkpt>
      <trkpt lat="45.45752" lon="5.20722">
        <ele>553.8566895</ele>
        <time>2010-06-27T08:16:44Z</time>
      </trkpt>
      <trkpt lat="45.45756" lon="5.20746">
        <ele>553.8566895</ele>
        <time>2010-06-27T08:16:52Z</time>
      </trkpt>
      <trkpt lat="45.45762" lon="5.20766">
        <ele>550.4921875</ele>
        <time>2010-06-27T08:16:58Z</time>
      </trkpt>
      <trkpt lat="45.4577" lon="5.20793">
        <ele>548.5693359</ele>
        <time>2010-06-27T08:17:05Z</time>
      </trkpt>
      <trkpt lat="45.45776" lon="5.2082">
        <ele>546.6468506</ele>
        <time>2010-06-27T08:17:13Z</time>
      </trkpt>
      <trkpt lat="45.45781" lon="5.20843">
        <ele>545.204834</ele>
        <time>2010-06-27T08:17:19Z</time>
      </trkpt>
      <trkpt lat="45.45787" lon="5.20855">
        <ele>543.2821045</ele>
        <time>2010-06-27T08:17:24Z</time>
      </trkpt>
      <trkpt lat="45.45807" lon="5.20878">
        <ele>546.6468506</ele>
        <time>2010-06-27T08:17:34Z</time>
      </trkpt>
      <trkpt lat="45.45813" lon="5.20888">
        <ele>546.6468506</ele>
        <time>2010-06-27T08:17:40Z</time>
      </trkpt>
      <trkpt lat="45.45815" lon="5.20892">
        <ele>546.1662598</ele>
        <time>2010-06-27T08:17:42Z</time>
      </trkpt>
      <trkpt lat="45.45813" lon="5.20899">
        <ele>547.6081543</ele>
        <time>2010-06-27T08:17:50Z</time>
      </trkpt>
      <trkpt lat="45.45811" lon="5.20901">
        <ele>550.4921875</ele>
        <time>2010-06-27T08:18:06Z</time>
      </trkpt>
      <trkpt lat="45.45806" lon="5.20909">
        <ele>551.934082</ele>
        <time>2010-06-27T08:18:13Z</time>
      </trkpt>
      <trkpt lat="45.45802" lon="5.20914">
        <ele>551.934082</ele>
        <time>2010-06-27T08:18:16Z</time>
      </trkpt>
      <trkpt lat="45.45798" lon="5.20923">
        <ele>552.4145508</ele>
        <time>2010-06-27T08:18:21Z</time>
      </trkpt>
      <trkpt lat="45.45797" lon="5.20928">
        <ele>552.8952637</ele>
        <time>2010-06-27T08:18:24Z</time>
      </trkpt>
      <trkpt lat="45.45799" lon="5.20935">
        <ele>553.3759766</ele>
        <time>2010-06-27T08:18:28Z</time>
      </trkpt>
      <trkpt lat="45.4581" lon="5.2094">
        <ele>553.3759766</ele>
        <time>2010-06-27T08:18:35Z</time>
      </trkpt>
      <trkpt lat="45.45825" lon="5.2094">
        <ele>553.8566895</ele>
        <time>2010-06-27T08:18:42Z</time>
      </trkpt>
      <trkpt lat="45.45838" lon="5.20945">
        <ele>553.8566895</ele>
        <time>2010-06-27T08:18:48Z</time>
      </trkpt>
      <trkpt lat="45.4584" lon="5.20947">
        <ele>553.3759766</ele>
        <time>2010-06-27T08:18:49Z</time>
      </trkpt>
      <trkpt lat="45.45844" lon="5.20951">
        <ele>553.3759766</ele>
        <time>2010-06-27T08:18:51Z</time>
      </trkpt>
      <trkpt lat="45.45848" lon="5.2097">
        <ele>551.934082</ele>
        <time>2010-06-27T08:18:58Z</time>
      </trkpt>
      <trkpt lat="45.45853" lon="5.20991">
        <ele>552.4145508</ele>
        <time>2010-06-27T08:19:04Z</time>
      </trkpt>
      <trkpt lat="45.4586" lon="5.21025">
        <ele>552.4145508</ele>
        <time>2010-06-27T08:19:13Z</time>
      </trkpt>
      <trkpt lat="45.45867" lon="5.2105">
        <ele>551.934082</ele>
        <time>2010-06-27T08:19:20Z</time>
      </trkpt>
      <trkpt lat="45.45876" lon="5.21072">
        <ele>552.8952637</ele>
        <time>2010-06-27T08:19:26Z</time>
      </trkpt>
      <trkpt lat="45.45884" lon="5.21084">
        <ele>553.3759766</ele>
        <time>2010-06-27T08:19:30Z</time>
      </trkpt>
      <trkpt lat="45.45897" lon="5.21122">
        <ele>558.6633301</ele>
        <time>2010-06-27T08:19:39Z</time>
      </trkpt>
      <trkpt lat="45.45904" lon="5.21159">
        <ele>555.7792969</ele>
        <time>2010-06-27T08:19:49Z</time>
      </trkpt>
      <trkpt lat="45.45911" lon="5.21176">
        <ele>555.298584</ele>
        <time>2010-06-27T08:19:53Z</time>
      </trkpt>
      <trkpt lat="45.45918" lon="5.21192">
        <ele>554.8178711</ele>
        <time>2010-06-27T08:19:57Z</time>
      </trkpt>
      <trkpt lat="45.45936" lon="5.21224">
        <ele>556.2600098</ele>
        <time>2010-06-27T08:20:05Z</time>
      </trkpt>
      <trkpt lat="45.45942" lon="5.2124">
        <ele>554.8178711</ele>
        <time>2010-06-27T08:20:09Z</time>
      </trkpt>
      <trkpt lat="45.45947" lon="5.21254">
        <ele>554.3374023</ele>
        <time>2010-06-27T08:20:12Z</time>
      </trkpt>
      <trkpt lat="45.45951" lon="5.21266">
        <ele>554.3374023</ele>
        <time>2010-06-27T08:20:14Z</time>
      </trkpt>
      <trkpt lat="45.45956" lon="5.21291">
        <ele>554.8178711</ele>
        <time>2010-06-27T08:20:18Z</time>
      </trkpt>
      <trkpt lat="45.45958" lon="5.21335">
        <ele>559.144043</ele>
        <time>2010-06-27T08:20:25Z</time>
      </trkpt>
      <trkpt lat="45.45955" lon="5.21345">
        <ele>561.0666504</ele>
        <time>2010-06-27T08:20:29Z</time>
      </trkpt>
      <trkpt lat="45.45958" lon="5.21363">
        <ele>562.5085449</ele>
        <time>2010-06-27T08:20:38Z</time>
      </trkpt>
      <trkpt lat="45.45958" lon="5.2139">
        <ele>562.0280762</ele>
        <time>2010-06-27T08:20:49Z</time>
      </trkpt>
      <trkpt lat="45.45955" lon="5.21407">
        <ele>561.0666504</ele>
        <time>2010-06-27T08:20:57Z</time>
      </trkpt>
      <trkpt lat="45.45954" lon="5.21422">
        <ele>560.1052246</ele>
        <time>2010-06-27T08:21:03Z</time>
      </trkpt>
      <trkpt lat="45.4596" lon="5.21436">
        <ele>558.6633301</ele>
        <time>2010-06-27T08:21:08Z</time>
      </trkpt>
      <trkpt lat="45.45974" lon="5.21461">
        <ele>557.7021484</ele>
        <time>2010-06-27T08:21:16Z</time>
      </trkpt>
      <trkpt lat="45.45981" lon="5.21488">
        <ele>556.2600098</ele>
        <time>2010-06-27T08:21:23Z</time>
      </trkpt>
      <trkpt lat="45.45987" lon="5.21522">
        <ele>556.2600098</ele>
        <time>2010-06-27T08:21:32Z</time>
      </trkpt>
      <trkpt lat="45.46" lon="5.21556">
        <ele>555.7792969</ele>
        <time>2010-06-27T08:21:41Z</time>
      </trkpt>
      <trkpt lat="45.46008" lon="5.21571">
        <ele>554.8178711</ele>
        <time>2010-06-27T08:21:46Z</time>
      </trkpt>
      <trkpt lat="45.46025" lon="5.21591">
        <ele>552.8952637</ele>
        <time>2010-06-27T08:21:53Z</time>
      </trkpt>
      <trkpt lat="45.46037" lon="5.21597">
        <ele>551.934082</ele>
        <time>2010-06-27T08:21:57Z</time>
      </trkpt>
      <trkpt lat="45.46045" lon="5.2161">
        <ele>550.9726563</ele>
        <time>2010-06-27T08:22:01Z</time>
      </trkpt>
      <trkpt lat="45.46048" lon="5.21617">
        <ele>550.4921875</ele>
        <time>2010-06-27T08:22:03Z</time>
      </trkpt>
      <trkpt lat="45.4605" lon="5.21626">
        <ele>550.4921875</ele>
        <time>2010-06-27T08:22:06Z</time>
      </trkpt>
      <trkpt lat="45.46058" lon="5.21647">
        <ele>549.5307617</ele>
        <time>2010-06-27T08:22:12Z</time>
      </trkpt>
      <trkpt lat="45.46064" lon="5.21668">
        <ele>546.6468506</ele>
        <time>2010-06-27T08:22:17Z</time>
      </trkpt>
      <trkpt lat="45.4607" lon="5.21679">
        <ele>545.204834</ele>
        <time>2010-06-27T08:22:20Z</time>
      </trkpt>
      <trkpt lat="45.4607" lon="5.21687">
        <ele>545.6855469</ele>
        <time>2010-06-27T08:22:22Z</time>
      </trkpt>
      <trkpt lat="45.46074" lon="5.21705">
        <ele>544.2436523</ele>
        <time>2010-06-27T08:22:27Z</time>
      </trkpt>
      <trkpt lat="45.46086" lon="5.21727">
        <ele>543.7628174</ele>
        <time>2010-06-27T08:22:33Z</time>
      </trkpt>
      <trkpt lat="45.46092" lon="5.21739">
        <ele>542.3209229</ele>
        <time>2010-06-27T08:22:37Z</time>
      </trkpt>
      <trkpt lat="45.46097" lon="5.21762">
        <ele>542.8015137</ele>
        <time>2010-06-27T08:22:42Z</time>
      </trkpt>
      <trkpt lat="45.46103" lon="5.21772">
        <ele>543.2821045</ele>
        <time>2010-06-27T08:22:46Z</time>
      </trkpt>
      <trkpt lat="45.46114" lon="5.21782">
        <ele>543.7628174</ele>
        <time>2010-06-27T08:22:52Z</time>
      </trkpt>
      <trkpt lat="45.46121" lon="5.21799">
        <ele>543.7628174</ele>
        <time>2010-06-27T08:22:58Z</time>
      </trkpt>
      <trkpt lat="45.46129" lon="5.21819">
        <ele>542.8015137</ele>
        <time>2010-06-27T08:23:04Z</time>
      </trkpt>
      <trkpt lat="45.46135" lon="5.21839">
        <ele>542.3209229</ele>
        <time>2010-06-27T08:23:09Z</time>
      </trkpt>
      <trkpt lat="45.46159" lon="5.21881">
        <ele>541.3594971</ele>
        <time>2010-06-27T08:23:17Z</time>
      </trkpt>
      <trkpt lat="45.46178" lon="5.21899">
        <ele>542.3209229</ele>
        <time>2010-06-27T08:23:23Z</time>
      </trkpt>
      <trkpt lat="45.46181" lon="5.21903">
        <ele>542.3209229</ele>
        <time>2010-06-27T08:23:24Z</time>
      </trkpt>
      <trkpt lat="45.46176" lon="5.21916">
        <ele>542.8015137</ele>
        <time>2010-06-27T08:23:30Z</time>
      </trkpt>
      <trkpt lat="45.46172" lon="5.2192">
        <ele>542.3209229</ele>
        <time>2010-06-27T08:23:33Z</time>
      </trkpt>
      <trkpt lat="45.46162" lon="5.21928">
        <ele>543.2821045</ele>
        <time>2010-06-27T08:23:39Z</time>
      </trkpt>
      <trkpt lat="45.46157" lon="5.21931">
        <ele>543.2821045</ele>
        <time>2010-06-27T08:23:43Z</time>
      </trkpt>
      <trkpt lat="45.46145" lon="5.21926">
        <ele>545.204834</ele>
        <time>2010-06-27T08:23:51Z</time>
      </trkpt>
      <trkpt lat="45.46138" lon="5.21922">
        <ele>548.0888672</ele>
        <time>2010-06-27T08:23:56Z</time>
      </trkpt>
      <trkpt lat="45.4613" lon="5.2192">
        <ele>549.5307617</ele>
        <time>2010-06-27T08:24:01Z</time>
      </trkpt>
      <trkpt lat="45.46124" lon="5.21918">
        <ele>553.3759766</ele>
        <time>2010-06-27T08:24:06Z</time>
      </trkpt>
      <trkpt lat="45.46117" lon="5.21919">
        <ele>554.3374023</ele>
        <time>2010-06-27T08:24:11Z</time>
      </trkpt>
      <trkpt lat="45.46115" lon="5.21919">
        <ele>555.7792969</ele>
        <time>2010-06-27T08:24:13Z</time>
      </trkpt>
      <trkpt lat="45.46101" lon="5.2192">
        <ele>560.1052246</ele>
        <time>2010-06-27T08:24:22Z</time>
      </trkpt>
      <trkpt lat="45.46087" lon="5.21921">
        <ele>562.5085449</ele>
        <time>2010-06-27T08:24:31Z</time>
      </trkpt>
      <trkpt lat="45.46075" lon="5.21919">
        <ele>562.9892578</ele>
        <time>2010-06-27T08:24:38Z</time>
      </trkpt>
      <trkpt lat="45.46058" lon="5.21919">
        <ele>563.4699707</ele>
        <time>2010-06-27T08:24:47Z</time>
      </trkpt>
      <trkpt lat="45.46039" lon="5.21917">
        <ele>562.5085449</ele>
        <time>2010-06-27T08:24:55Z</time>
      </trkpt>
      <trkpt lat="45.46037" lon="5.21916">
        <ele>562.0280762</ele>
        <time>2010-06-27T08:24:56Z</time>
      </trkpt>
      <trkpt lat="45.46028" lon="5.21908">
        <ele>561.0666504</ele>
        <time>2010-06-27T08:25:01Z</time>
      </trkpt>
      <trkpt lat="45.46013" lon="5.219">
        <ele>558.1828613</ele>
        <time>2010-06-27T08:25:08Z</time>
      </trkpt>
      <trkpt lat="45.45998" lon="5.21896">
        <ele>559.6247559</ele>
        <time>2010-06-27T08:25:15Z</time>
      </trkpt>
      <trkpt lat="45.45986" lon="5.21899">
        <ele>558.6633301</ele>
        <time>2010-06-27T08:25:20Z</time>
      </trkpt>
      <trkpt lat="45.45978" lon="5.21903">
        <ele>559.144043</ele>
        <time>2010-06-27T08:25:23Z</time>
      </trkpt>
      <trkpt lat="45.45963" lon="5.21916">
        <ele>558.1828613</ele>
        <time>2010-06-27T08:25:30Z</time>
      </trkpt>
      <trkpt lat="45.45953" lon="5.21924">
        <ele>557.7021484</ele>
        <time>2010-06-27T08:25:35Z</time>
      </trkpt>
      <trkpt lat="45.45946" lon="5.21935">
        <ele>557.2214355</ele>
        <time>2010-06-27T08:25:39Z</time>
      </trkpt>
      <trkpt lat="45.45939" lon="5.21945">
        <ele>553.8566895</ele>
        <time>2010-06-27T08:25:44Z</time>
      </trkpt>
      <trkpt lat="45.45938" lon="5.21959">
        <ele>552.4145508</ele>
        <time>2010-06-27T08:25:48Z</time>
      </trkpt>
      <trkpt lat="45.4594" lon="5.21968">
        <ele>551.4533691</ele>
        <time>2010-06-27T08:25:51Z</time>
      </trkpt>
      <trkpt lat="45.4594" lon="5.21977">
        <ele>551.4533691</ele>
        <time>2010-06-27T08:25:55Z</time>
      </trkpt>
      <trkpt lat="45.4594" lon="5.21982">
        <ele>551.4533691</ele>
        <time>2010-06-27T08:25:57Z</time>
      </trkpt>
      <trkpt lat="45.45947" lon="5.22002">
        <ele>551.934082</ele>
        <time>2010-06-27T08:26:04Z</time>
      </trkpt>
      <trkpt lat="45.45952" lon="5.22029">
        <ele>551.934082</ele>
        <time>2010-06-27T08:26:12Z</time>
      </trkpt>
      <trkpt lat="45.45956" lon="5.22051">
        <ele>552.8952637</ele>
        <time>2010-06-27T08:26:18Z</time>
      </trkpt>
      <trkpt lat="45.45957" lon="5.22071">
        <ele>553.3759766</ele>
        <time>2010-06-27T08:26:24Z</time>
      </trkpt>
      <trkpt lat="45.45962" lon="5.22109">
        <ele>557.7021484</ele>
        <time>2010-06-27T08:26:32Z</time>
      </trkpt>
      <trkpt lat="45.45963" lon="5.22128">
        <ele>558.6633301</ele>
        <time>2010-06-27T08:26:37Z</time>
      </trkpt>
      <trkpt lat="45.45967" lon="5.22155">
        <ele>562.9892578</ele>
        <time>2010-06-27T08:26:43Z</time>
      </trkpt>
      <trkpt lat="45.45969" lon="5.22174">
        <ele>564.9118652</ele>
        <time>2010-06-27T08:26:48Z</time>
      </trkpt>
      <trkpt lat="45.45972" lon="5.22185">
        <ele>563.9504395</ele>
        <time>2010-06-27T08:26:53Z</time>
      </trkpt>
      <trkpt lat="45.45975" lon="5.22204">
        <ele>563.9504395</ele>
        <time>2010-06-27T08:26:59Z</time>
      </trkpt>
      <trkpt lat="45.45978" lon="5.22229">
        <ele>563.9504395</ele>
        <time>2010-06-27T08:27:06Z</time>
      </trkpt>
      <trkpt lat="45.45981" lon="5.22246">
        <ele>563.9504395</ele>
        <time>2010-06-27T08:27:12Z</time>
      </trkpt>
      <trkpt lat="45.45985" lon="5.22279">
        <ele>565.3925781</ele>
        <time>2010-06-27T08:27:21Z</time>
      </trkpt>
      <trkpt lat="45.45989" lon="5.22312">
        <ele>566.3537598</ele>
        <time>2010-06-27T08:27:30Z</time>
      </trkpt>
      <trkpt lat="45.45994" lon="5.22344">
        <ele>566.8344727</ele>
        <time>2010-06-27T08:27:39Z</time>
      </trkpt>
      <trkpt lat="45.45997" lon="5.22366">
        <ele>569.7185059</ele>
        <time>2010-06-27T08:27:46Z</time>
      </trkpt>
      <trkpt lat="45.46001" lon="5.22383">
        <ele>570.1989746</ele>
        <time>2010-06-27T08:27:52Z</time>
      </trkpt>
      <trkpt lat="45.46002" lon="5.22388">
        <ele>571.1604004</ele>
        <time>2010-06-27T08:27:54Z</time>
      </trkpt>
      <trkpt lat="45.46003" lon="5.224">
        <ele>571.1604004</ele>
        <time>2010-06-27T08:27:57Z</time>
      </trkpt>
      <trkpt lat="45.46007" lon="5.2243">
        <ele>570.1989746</ele>
        <time>2010-06-27T08:28:04Z</time>
      </trkpt>
      <trkpt lat="45.46011" lon="5.22458">
        <ele>568.2763672</ele>
        <time>2010-06-27T08:28:11Z</time>
      </trkpt>
      <trkpt lat="45.46016" lon="5.22492">
        <ele>568.2763672</ele>
        <time>2010-06-27T08:28:20Z</time>
      </trkpt>
      <trkpt lat="45.46019" lon="5.2252">
        <ele>569.237793</ele>
        <time>2010-06-27T08:28:27Z</time>
      </trkpt>
      <trkpt lat="45.46022" lon="5.22546">
        <ele>570.1989746</ele>
        <time>2010-06-27T08:28:34Z</time>
      </trkpt>
      <trkpt lat="45.46026" lon="5.22564">
        <ele>569.237793</ele>
        <time>2010-06-27T08:28:39Z</time>
      </trkpt>
      <trkpt lat="45.46031" lon="5.22605">
        <ele>569.7185059</ele>
        <time>2010-06-27T08:28:48Z</time>
      </trkpt>
      <trkpt lat="45.46032" lon="5.22617">
        <ele>569.237793</ele>
        <time>2010-06-27T08:28:50Z</time>
      </trkpt>
      <trkpt lat="45.46034" lon="5.22654">
        <ele>569.7185059</ele>
        <time>2010-06-27T08:28:56Z</time>
      </trkpt>
      <trkpt lat="45.46041" lon="5.22682">
        <ele>566.8344727</ele>
        <time>2010-06-27T08:29:02Z</time>
      </trkpt>
      <trkpt lat="45.46041" lon="5.22689">
        <ele>567.3151855</ele>
        <time>2010-06-27T08:29:10Z</time>
      </trkpt>
      <trkpt lat="45.46041" lon="5.22693">
        <ele>568.7570801</ele>
        <time>2010-06-27T08:29:13Z</time>
      </trkpt>
      <trkpt lat="45.46037" lon="5.22712">
        <ele>568.7570801</ele>
        <time>2010-06-27T08:29:20Z</time>
      </trkpt>
      <trkpt lat="45.46036" lon="5.22719">
        <ele>567.7956543</ele>
        <time>2010-06-27T08:29:23Z</time>
      </trkpt>
      <trkpt lat="45.4604" lon="5.22731">
        <ele>567.7956543</ele>
        <time>2010-06-27T08:29:28Z</time>
      </trkpt>
      <trkpt lat="45.4604" lon="5.22739">
        <ele>567.7956543</ele>
        <time>2010-06-27T08:29:31Z</time>
      </trkpt>
      <trkpt lat="45.46039" lon="5.22747">
        <ele>568.2763672</ele>
        <time>2010-06-27T08:29:35Z</time>
      </trkpt>
      <trkpt lat="45.4605" lon="5.2276">
        <ele>564.4311523</ele>
        <time>2010-06-27T08:29:41Z</time>
      </trkpt>
      <trkpt lat="45.46055" lon="5.2279">
        <ele>561.0666504</ele>
        <time>2010-06-27T08:29:50Z</time>
      </trkpt>
      <trkpt lat="45.46057" lon="5.22815">
        <ele>558.1828613</ele>
        <time>2010-06-27T08:29:57Z</time>
      </trkpt>
      <trkpt lat="45.46058" lon="5.22822">
        <ele>559.144043</ele>
        <time>2010-06-27T08:30:03Z</time>
      </trkpt>
      <trkpt lat="45.46063" lon="5.22829">
        <ele>559.144043</ele>
        <time>2010-06-27T08:30:09Z</time>
      </trkpt>
      <trkpt lat="45.46063" lon="5.22858">
        <ele>556.7407227</ele>
        <time>2010-06-27T08:30:16Z</time>
      </trkpt>
      <trkpt lat="45.46063" lon="5.22869">
        <ele>555.7792969</ele>
        <time>2010-06-27T08:30:18Z</time>
      </trkpt>
      <trkpt lat="45.46065" lon="5.22887">
        <ele>555.298584</ele>
        <time>2010-06-27T08:30:22Z</time>
      </trkpt>
      <trkpt lat="45.46064" lon="5.22902">
        <ele>553.3759766</ele>
        <time>2010-06-27T08:30:28Z</time>
      </trkpt>
      <trkpt lat="45.4606" lon="5.22911">
        <ele>552.8952637</ele>
        <time>2010-06-27T08:30:31Z</time>
      </trkpt>
      <trkpt lat="45.46053" lon="5.22928">
        <ele>554.8178711</ele>
        <time>2010-06-27T08:30:36Z</time>
      </trkpt>
      <trkpt lat="45.46046" lon="5.22948">
        <ele>554.8178711</ele>
        <time>2010-06-27T08:30:43Z</time>
      </trkpt>
      <trkpt lat="45.46044" lon="5.22952">
        <ele>554.8178711</ele>
        <time>2010-06-27T08:30:45Z</time>
      </trkpt>
      <trkpt lat="45.46044" lon="5.22977">
        <ele>553.8566895</ele>
        <time>2010-06-27T08:30:52Z</time>
      </trkpt>
      <trkpt lat="45.46046" lon="5.23005">
        <ele>554.3374023</ele>
        <time>2010-06-27T08:30:58Z</time>
      </trkpt>
      <trkpt lat="45.46048" lon="5.23036">
        <ele>554.8178711</ele>
        <time>2010-06-27T08:31:07Z</time>
      </trkpt>
      <trkpt lat="45.46049" lon="5.23046">
        <ele>555.298584</ele>
        <time>2010-06-27T08:31:11Z</time>
      </trkpt>
      <trkpt lat="45.46046" lon="5.23054">
        <ele>555.7792969</ele>
        <time>2010-06-27T08:31:15Z</time>
      </trkpt>
      <trkpt lat="45.46031" lon="5.23064">
        <ele>558.1828613</ele>
        <time>2010-06-27T08:31:24Z</time>
      </trkpt>
      <trkpt lat="45.46005" lon="5.23084">
        <ele>558.6633301</ele>
        <time>2010-06-27T08:31:36Z</time>
      </trkpt>
      <trkpt lat="45.4598" lon="5.23102">
        <ele>559.6247559</ele>
        <time>2010-06-27T08:31:48Z</time>
      </trkpt>
      <trkpt lat="45.4596" lon="5.23119">
        <ele>561.0666504</ele>
        <time>2010-06-27T08:31:58Z</time>
      </trkpt>
      <trkpt lat="45.45933" lon="5.23133">
        <ele>561.5473633</ele>
        <time>2010-06-27T08:32:10Z</time>
      </trkpt>
      <trkpt lat="45.45907" lon="5.23139">
        <ele>562.9892578</ele>
        <time>2010-06-27T08:32:21Z</time>
      </trkpt>
      <trkpt lat="45.45886" lon="5.23133">
        <ele>562.5085449</ele>
        <time>2010-06-27T08:32:30Z</time>
      </trkpt>
      <trkpt lat="45.45865" lon="5.23121">
        <ele>563.4699707</ele>
        <time>2010-06-27T08:32:40Z</time>
      </trkpt>
      <trkpt lat="45.45846" lon="5.23107">
        <ele>567.7956543</ele>
        <time>2010-06-27T08:32:50Z</time>
      </trkpt>
      <trkpt lat="45.45831" lon="5.23096">
        <ele>568.7570801</ele>
        <time>2010-06-27T08:33:00Z</time>
      </trkpt>
      <trkpt lat="45.45826" lon="5.23094">
        <ele>567.3151855</ele>
        <time>2010-06-27T08:33:11Z</time>
      </trkpt>
      <trkpt lat="45.45825" lon="5.23094">
        <ele>567.3151855</ele>
        <time>2010-06-27T08:33:14Z</time>
      </trkpt>
      <trkpt lat="45.45822" lon="5.23115">
        <ele>566.3537598</ele>
        <time>2010-06-27T08:33:23Z</time>
      </trkpt>
      <trkpt lat="45.45823" lon="5.23131">
        <ele>565.3925781</ele>
        <time>2010-06-27T08:33:29Z</time>
      </trkpt>
      <trkpt lat="45.45821" lon="5.23163">
        <ele>563.9504395</ele>
        <time>2010-06-27T08:33:40Z</time>
      </trkpt>
      <trkpt lat="45.4582" lon="5.23185">
        <ele>562.9892578</ele>
        <time>2010-06-27T08:33:48Z</time>
      </trkpt>
      <trkpt lat="45.45819" lon="5.23192">
        <ele>562.5085449</ele>
        <time>2010-06-27T08:33:51Z</time>
      </trkpt>
      <trkpt lat="45.45818" lon="5.23218">
        <ele>562.5085449</ele>
        <time>2010-06-27T08:34:00Z</time>
      </trkpt>
      <trkpt lat="45.45818" lon="5.23245">
        <ele>563.4699707</ele>
        <time>2010-06-27T08:34:08Z</time>
      </trkpt>
      <trkpt lat="45.45818" lon="5.23263">
        <ele>562.9892578</ele>
        <time>2010-06-27T08:34:13Z</time>
      </trkpt>
      <trkpt lat="45.45816" lon="5.23295">
        <ele>564.4311523</ele>
        <time>2010-06-27T08:34:22Z</time>
      </trkpt>
      <trkpt lat="45.45816" lon="5.23312">
        <ele>565.3925781</ele>
        <time>2010-06-27T08:34:27Z</time>
      </trkpt>
      <trkpt lat="45.45816" lon="5.23336">
        <ele>566.8344727</ele>
        <time>2010-06-27T08:34:34Z</time>
      </trkpt>
      <trkpt lat="45.45816" lon="5.23365">
        <ele>568.2763672</ele>
        <time>2010-06-27T08:34:42Z</time>
      </trkpt>
      <trkpt lat="45.45814" lon="5.23385">
        <ele>570.6796875</ele>
        <time>2010-06-27T08:34:48Z</time>
      </trkpt>
      <trkpt lat="45.4581" lon="5.23413">
        <ele>571.6408691</ele>
        <time>2010-06-27T08:34:56Z</time>
      </trkpt>
      <trkpt lat="45.45807" lon="5.23438">
        <ele>572.1218262</ele>
        <time>2010-06-27T08:35:04Z</time>
      </trkpt>
      <trkpt lat="45.45806" lon="5.23441">
        <ele>572.1218262</ele>
        <time>2010-06-27T08:35:05Z</time>
      </trkpt>
      <trkpt lat="45.45794" lon="5.2346">
        <ele>573.083252</ele>
        <time>2010-06-27T08:35:13Z</time>
      </trkpt>
      <trkpt lat="45.45788" lon="5.23474">
        <ele>574.0444336</ele>
        <time>2010-06-27T08:35:20Z</time>
      </trkpt>
      <trkpt lat="45.45779" lon="5.23493">
        <ele>575.0058594</ele>
        <time>2010-06-27T08:35:28Z</time>
      </trkpt>
      <trkpt lat="45.45777" lon="5.23501">
        <ele>574.5251465</ele>
        <time>2010-06-27T08:35:31Z</time>
      </trkpt>
      <trkpt lat="45.45782" lon="5.23517">
        <ele>571.6408691</ele>
        <time>2010-06-27T08:35:38Z</time>
      </trkpt>
      <trkpt lat="45.45795" lon="5.23536">
        <ele>569.237793</ele>
        <time>2010-06-27T08:35:44Z</time>
      </trkpt>
      <trkpt lat="45.45798" lon="5.23541">
        <ele>568.7570801</ele>
        <time>2010-06-27T08:35:45Z</time>
      </trkpt>
      <trkpt lat="45.45805" lon="5.23563">
        <ele>567.3151855</ele>
        <time>2010-06-27T08:35:48Z</time>
      </trkpt>
      <trkpt lat="45.45816" lon="5.23596">
        <ele>565.3925781</ele>
        <time>2010-06-27T08:35:53Z</time>
      </trkpt>
      <trkpt lat="45.45818" lon="5.23603">
        <ele>564.9118652</ele>
        <time>2010-06-27T08:35:54Z</time>
      </trkpt>
      <trkpt lat="45.45831" lon="5.23644">
        <ele>564.4311523</ele>
        <time>2010-06-27T08:36:01Z</time>
      </trkpt>
      <trkpt lat="45.45832" lon="5.23647">
        <ele>564.4311523</ele>
        <time>2010-06-27T08:36:02Z</time>
      </trkpt>
      <trkpt lat="45.45836" lon="5.23658">
        <ele>567.3151855</ele>
        <time>2010-06-27T08:36:07Z</time>
      </trkpt>
      <trkpt lat="45.45839" lon="5.23666">
        <ele>568.7570801</ele>
        <time>2010-06-27T08:36:14Z</time>
      </trkpt>
      <trkpt lat="45.45842" lon="5.23671">
        <ele>567.3151855</ele>
        <time>2010-06-27T08:36:27Z</time>
      </trkpt>
      <trkpt lat="45.45844" lon="5.23671">
        <ele>567.7956543</ele>
        <time>2010-06-27T08:36:32Z</time>
      </trkpt>
      <trkpt lat="45.45848" lon="5.23677">
        <ele>566.3537598</ele>
        <time>2010-06-27T08:36:39Z</time>
      </trkpt>
      <trkpt lat="45.45849" lon="5.23679">
        <ele>566.3537598</ele>
        <time>2010-06-27T08:36:40Z</time>
      </trkpt>
      <trkpt lat="45.45854" lon="5.23706">
        <ele>566.3537598</ele>
        <time>2010-06-27T08:36:51Z</time>
      </trkpt>
      <trkpt lat="45.45857" lon="5.23729">
        <ele>565.3925781</ele>
        <time>2010-06-27T08:36:59Z</time>
      </trkpt>
      <trkpt lat="45.45857" lon="5.2375">
        <ele>563.4699707</ele>
        <time>2010-06-27T08:37:06Z</time>
      </trkpt>
      <trkpt lat="45.45853" lon="5.23769">
        <ele>562.9892578</ele>
        <time>2010-06-27T08:37:11Z</time>
      </trkpt>
      <trkpt lat="45.45857" lon="5.23787">
        <ele>562.9892578</ele>
        <time>2010-06-27T08:37:17Z</time>
      </trkpt>
      <trkpt lat="45.45858" lon="5.23799">
        <ele>562.5085449</ele>
        <time>2010-06-27T08:37:21Z</time>
      </trkpt>
      <trkpt lat="45.45857" lon="5.23804">
        <ele>562.0280762</ele>
        <time>2010-06-27T08:37:23Z</time>
      </trkpt>
      <trkpt lat="45.45858" lon="5.23808">
        <ele>561.0666504</ele>
        <time>2010-06-27T08:37:25Z</time>
      </trkpt>
      <trkpt lat="45.4586" lon="5.23821">
        <ele>560.5859375</ele>
        <time>2010-06-27T08:37:29Z</time>
      </trkpt>
      <trkpt lat="45.45861" lon="5.23829">
        <ele>559.6247559</ele>
        <time>2010-06-27T08:37:32Z</time>
      </trkpt>
      <trkpt lat="45.45864" lon="5.23839">
        <ele>559.144043</ele>
        <time>2010-06-27T08:37:35Z</time>
      </trkpt>
      <trkpt lat="45.45868" lon="5.23852">
        <ele>558.1828613</ele>
        <time>2010-06-27T08:37:40Z</time>
      </trkpt>
      <trkpt lat="45.45869" lon="5.23855">
        <ele>557.2214355</ele>
        <time>2010-06-27T08:37:42Z</time>
      </trkpt>
      <trkpt lat="45.45872" lon="5.23865">
        <ele>556.2600098</ele>
        <time>2010-06-27T08:37:48Z</time>
      </trkpt>
      <trkpt lat="45.45878" lon="5.23873">
        <ele>557.7021484</ele>
        <time>2010-06-27T08:37:55Z</time>
      </trkpt>
      <trkpt lat="45.4588" lon="5.23879">
        <ele>561.0666504</ele>
        <time>2010-06-27T08:37:59Z</time>
      </trkpt>
      <trkpt lat="45.45885" lon="5.2389">
        <ele>565.3925781</ele>
        <time>2010-06-27T08:38:07Z</time>
      </trkpt>
      <trkpt lat="45.45887" lon="5.23903">
        <ele>570.6796875</ele>
        <time>2010-06-27T08:38:15Z</time>
      </trkpt>
      <trkpt lat="45.45887" lon="5.23911">
        <ele>573.083252</ele>
        <time>2010-06-27T08:38:20Z</time>
      </trkpt>
      <trkpt lat="45.45891" lon="5.23919">
        <ele>575.0058594</ele>
        <time>2010-06-27T08:38:24Z</time>
      </trkpt>
      <trkpt lat="45.45903" lon="5.23937">
        <ele>575.0058594</ele>
        <time>2010-06-27T08:38:33Z</time>
      </trkpt>
      <trkpt lat="45.45921" lon="5.23953">
        <ele>574.0444336</ele>
        <time>2010-06-27T08:38:42Z</time>
      </trkpt>
      <trkpt lat="45.45934" lon="5.23966">
        <ele>575.4863281</ele>
        <time>2010-06-27T08:38:48Z</time>
      </trkpt>
      <trkpt lat="45.45947" lon="5.23979">
        <ele>579.331543</ele>
        <time>2010-06-27T08:38:54Z</time>
      </trkpt>
      <trkpt lat="45.45955" lon="5.23984">
        <ele>579.8122559</ele>
        <time>2010-06-27T08:38:58Z</time>
      </trkpt>
      <trkpt lat="45.45974" lon="5.24009">
        <ele>572.1218262</ele>
        <time>2010-06-27T08:39:06Z</time>
      </trkpt>
      <trkpt lat="45.45993" lon="5.2403">
        <ele>573.5639648</ele>
        <time>2010-06-27T08:39:15Z</time>
      </trkpt>
      <trkpt lat="45.46009" lon="5.24043">
        <ele>573.083252</ele>
        <time>2010-06-27T08:39:22Z</time>
      </trkpt>
      <trkpt lat="45.46022" lon="5.24054">
        <ele>574.0444336</ele>
        <time>2010-06-27T08:39:28Z</time>
      </trkpt>
      <trkpt lat="45.46039" lon="5.24069">
        <ele>577.4091797</ele>
        <time>2010-06-27T08:39:36Z</time>
      </trkpt>
      <trkpt lat="45.46055" lon="5.24079">
        <ele>579.8122559</ele>
        <time>2010-06-27T08:39:43Z</time>
      </trkpt>
      <trkpt lat="45.46068" lon="5.24089">
        <ele>583.1767578</ele>
        <time>2010-06-27T08:39:50Z</time>
      </trkpt>
      <trkpt lat="45.46086" lon="5.24101">
        <ele>584.6188965</ele>
        <time>2010-06-27T08:39:58Z</time>
      </trkpt>
      <trkpt lat="45.46109" lon="5.24121">
        <ele>586.060791</ele>
        <time>2010-06-27T08:40:09Z</time>
      </trkpt>
      <trkpt lat="45.46124" lon="5.24144">
        <ele>583.6574707</ele>
        <time>2010-06-27T08:40:18Z</time>
      </trkpt>
      <trkpt lat="45.46138" lon="5.24167">
        <ele>586.5415039</ele>
        <time>2010-06-27T08:40:27Z</time>
      </trkpt>
      <trkpt lat="45.46153" lon="5.24176">
        <ele>584.6188965</ele>
        <time>2010-06-27T08:40:34Z</time>
      </trkpt>
      <trkpt lat="45.46167" lon="5.24186">
        <ele>582.6962891</ele>
        <time>2010-06-27T08:40:41Z</time>
      </trkpt>
      <trkpt lat="45.46174" lon="5.24188">
        <ele>581.7348633</ele>
        <time>2010-06-27T08:40:45Z</time>
      </trkpt>
      <trkpt lat="45.46178" lon="5.24187">
        <ele>582.2155762</ele>
        <time>2010-06-27T08:40:47Z</time>
      </trkpt>
      <trkpt lat="45.46184" lon="5.24189">
        <ele>586.060791</ele>
        <time>2010-06-27T08:40:51Z</time>
      </trkpt>
      <trkpt lat="45.46191" lon="5.24189">
        <ele>585.0996094</ele>
        <time>2010-06-27T08:40:57Z</time>
      </trkpt>
      <trkpt lat="45.46197" lon="5.24188">
        <ele>586.060791</ele>
        <time>2010-06-27T08:41:05Z</time>
      </trkpt>
      <trkpt lat="45.462" lon="5.24188">
        <ele>589.90625</ele>
        <time>2010-06-27T08:41:11Z</time>
      </trkpt>
      <trkpt lat="45.46204" lon="5.24187">
        <ele>590.3869629</ele>
        <time>2010-06-27T08:41:17Z</time>
      </trkpt>
      <trkpt lat="45.46209" lon="5.24185">
        <ele>590.3869629</ele>
        <time>2010-06-27T08:41:26Z</time>
      </trkpt>
      <trkpt lat="45.46218" lon="5.24187">
        <ele>591.3481445</ele>
        <time>2010-06-27T08:41:33Z</time>
      </trkpt>
      <trkpt lat="45.46223" lon="5.24185">
        <ele>590.3869629</ele>
        <time>2010-06-27T08:41:36Z</time>
      </trkpt>
      <trkpt lat="45.46228" lon="5.24187">
        <ele>588.9450684</ele>
        <time>2010-06-27T08:41:41Z</time>
      </trkpt>
      <trkpt lat="45.46232" lon="5.24199">
        <ele>588.4643555</ele>
        <time>2010-06-27T08:41:46Z</time>
      </trkpt>
      <trkpt lat="45.46236" lon="5.24201">
        <ele>587.5026855</ele>
        <time>2010-06-27T08:41:49Z</time>
      </trkpt>
      <trkpt lat="45.4624" lon="5.2422">
        <ele>584.1381836</ele>
        <time>2010-06-27T08:41:55Z</time>
      </trkpt>
      <trkpt lat="45.46244" lon="5.2424">
        <ele>582.2155762</ele>
        <time>2010-06-27T08:42:01Z</time>
      </trkpt>
      <trkpt lat="45.46244" lon="5.24256">
        <ele>580.2929688</ele>
        <time>2010-06-27T08:42:07Z</time>
      </trkpt>
      <trkpt lat="45.46246" lon="5.24279">
        <ele>576.4477539</ele>
        <time>2010-06-27T08:42:14Z</time>
      </trkpt>
      <trkpt lat="45.46247" lon="5.24294">
        <ele>573.083252</ele>
        <time>2010-06-27T08:42:19Z</time>
      </trkpt>
      <trkpt lat="45.46248" lon="5.24307">
        <ele>571.1604004</ele>
        <time>2010-06-27T08:42:22Z</time>
      </trkpt>
      <trkpt lat="45.46254" lon="5.24337">
        <ele>568.2763672</ele>
        <time>2010-06-27T08:42:27Z</time>
      </trkpt>
      <trkpt lat="45.46259" lon="5.24357">
        <ele>566.3537598</ele>
        <time>2010-06-27T08:42:31Z</time>
      </trkpt>
      <trkpt lat="45.46257" lon="5.24381">
        <ele>563.9504395</ele>
        <time>2010-06-27T08:42:36Z</time>
      </trkpt>
      <trkpt lat="45.46264" lon="5.24412">
        <ele>560.5859375</ele>
        <time>2010-06-27T08:42:42Z</time>
      </trkpt>
      <trkpt lat="45.46274" lon="5.24432">
        <ele>558.6633301</ele>
        <time>2010-06-27T08:42:47Z</time>
      </trkpt>
      <trkpt lat="45.46297" lon="5.24473">
        <ele>566.3537598</ele>
        <time>2010-06-27T08:42:54Z</time>
      </trkpt>
      <trkpt lat="45.46304" lon="5.2449">
        <ele>567.3151855</ele>
        <time>2010-06-27T08:42:58Z</time>
      </trkpt>
      <trkpt lat="45.46316" lon="5.24514">
        <ele>569.7185059</ele>
        <time>2010-06-27T08:43:05Z</time>
      </trkpt>
      <trkpt lat="45.46335" lon="5.24548">
        <ele>574.0444336</ele>
        <time>2010-06-27T08:43:15Z</time>
      </trkpt>
      <trkpt lat="45.46336" lon="5.24554">
        <ele>572.1218262</ele>
        <time>2010-06-27T08:43:17Z</time>
      </trkpt>
      <trkpt lat="45.4633" lon="5.2458">
        <ele>569.7185059</ele>
        <time>2010-06-27T08:43:24Z</time>
      </trkpt>
      <trkpt lat="45.46319" lon="5.24608">
        <ele>568.2763672</ele>
        <time>2010-06-27T08:43:31Z</time>
      </trkpt>
      <trkpt lat="45.46305" lon="5.24635">
        <ele>572.1218262</ele>
        <time>2010-06-27T08:43:38Z</time>
      </trkpt>
      <trkpt lat="45.46293" lon="5.24662">
        <ele>574.5251465</ele>
        <time>2010-06-27T08:43:45Z</time>
      </trkpt>
      <trkpt lat="45.46291" lon="5.24698">
        <ele>577.4091797</ele>
        <time>2010-06-27T08:43:53Z</time>
      </trkpt>
      <trkpt lat="45.46284" lon="5.24731">
        <ele>580.2929688</ele>
        <time>2010-06-27T08:44:00Z</time>
      </trkpt>
      <trkpt lat="45.46278" lon="5.24755">
        <ele>582.2155762</ele>
        <time>2010-06-27T08:44:06Z</time>
      </trkpt>
      <trkpt lat="45.46281" lon="5.24803">
        <ele>584.6188965</ele>
        <time>2010-06-27T08:44:18Z</time>
      </trkpt>
      <trkpt lat="45.46272" lon="5.24834">
        <ele>582.6962891</ele>
        <time>2010-06-27T08:44:27Z</time>
      </trkpt>
      <trkpt lat="45.46266" lon="5.24843">
        <ele>583.1767578</ele>
        <time>2010-06-27T08:44:30Z</time>
      </trkpt>
      <trkpt lat="45.46265" lon="5.24857">
        <ele>583.1767578</ele>
        <time>2010-06-27T08:44:35Z</time>
      </trkpt>
      <trkpt lat="45.46266" lon="5.24861">
        <ele>582.6962891</ele>
        <time>2010-06-27T08:44:37Z</time>
      </trkpt>
      <trkpt lat="45.46264" lon="5.24868">
        <ele>579.331543</ele>
        <time>2010-06-27T08:44:42Z</time>
      </trkpt>
      <trkpt lat="45.46259" lon="5.2487">
        <ele>577.4091797</ele>
        <time>2010-06-27T08:44:46Z</time>
      </trkpt>
      <trkpt lat="45.46256" lon="5.24877">
        <ele>576.4477539</ele>
        <time>2010-06-27T08:44:50Z</time>
      </trkpt>
      <trkpt lat="45.4625" lon="5.24888">
        <ele>575.4863281</ele>
        <time>2010-06-27T08:44:57Z</time>
      </trkpt>
      <trkpt lat="45.46245" lon="5.24896">
        <ele>575.0058594</ele>
        <time>2010-06-27T08:45:04Z</time>
      </trkpt>
      <trkpt lat="45.46242" lon="5.24897">
        <ele>575.0058594</ele>
        <time>2010-06-27T08:45:06Z</time>
      </trkpt>
      <trkpt lat="45.46231" lon="5.24897">
        <ele>574.5251465</ele>
        <time>2010-06-27T08:45:12Z</time>
      </trkpt>
      <trkpt lat="45.4623" lon="5.24897">
        <ele>573.5639648</ele>
        <time>2010-06-27T08:45:13Z</time>
      </trkpt>
      <trkpt lat="45.46227" lon="5.24896">
        <ele>573.5639648</ele>
        <time>2010-06-27T08:45:17Z</time>
      </trkpt>
      <trkpt lat="45.46215" lon="5.24904">
        <ele>577.4091797</ele>
        <time>2010-06-27T08:45:25Z</time>
      </trkpt>
      <trkpt lat="45.46212" lon="5.24908">
        <ele>577.4091797</ele>
        <time>2010-06-27T08:45:29Z</time>
      </trkpt>
      <trkpt lat="45.462" lon="5.24914">
        <ele>579.331543</ele>
        <time>2010-06-27T08:45:35Z</time>
      </trkpt>
      <trkpt lat="45.46196" lon="5.24912">
        <ele>579.8122559</ele>
        <time>2010-06-27T08:45:38Z</time>
      </trkpt>
      <trkpt lat="45.46192" lon="5.24906">
        <ele>581.7348633</ele>
        <time>2010-06-27T08:45:41Z</time>
      </trkpt>
      <trkpt lat="45.46186" lon="5.24898">
        <ele>586.060791</ele>
        <time>2010-06-27T08:45:48Z</time>
      </trkpt>
      <trkpt lat="45.46178" lon="5.24893">
        <ele>587.9833984</ele>
        <time>2010-06-27T08:45:52Z</time>
      </trkpt>
      <trkpt lat="45.46165" lon="5.24889">
        <ele>588.4643555</ele>
        <time>2010-06-27T08:45:57Z</time>
      </trkpt>
      <trkpt lat="45.46155" lon="5.24891">
        <ele>587.9833984</ele>
        <time>2010-06-27T08:46:01Z</time>
      </trkpt>
      <trkpt lat="45.46136" lon="5.24903">
        <ele>588.4643555</ele>
        <time>2010-06-27T08:46:08Z</time>
      </trkpt>
      <trkpt lat="45.46134" lon="5.24903">
        <ele>588.4643555</ele>
        <time>2010-06-27T08:46:09Z</time>
      </trkpt>
      <trkpt lat="45.4612" lon="5.24916">
        <ele>591.3481445</ele>
        <time>2010-06-27T08:46:17Z</time>
      </trkpt>
      <trkpt lat="45.46119" lon="5.24918">
        <ele>591.3481445</ele>
        <time>2010-06-27T08:46:18Z</time>
      </trkpt>
      <trkpt lat="45.46112" lon="5.24924">
        <ele>592.3095703</ele>
        <time>2010-06-27T08:46:23Z</time>
      </trkpt>
      <trkpt lat="45.46107" lon="5.24924">
        <ele>592.7902832</ele>
        <time>2010-06-27T08:46:27Z</time>
      </trkpt>
      <trkpt lat="45.46103" lon="5.24924">
        <ele>593.270752</ele>
        <time>2010-06-27T08:46:33Z</time>
      </trkpt>
      <trkpt lat="45.46096" lon="5.24928">
        <ele>595.6740723</ele>
        <time>2010-06-27T08:46:39Z</time>
      </trkpt>
      <trkpt lat="45.46095" lon="5.24931">
        <ele>597.5966797</ele>
        <time>2010-06-27T08:46:46Z</time>
      </trkpt>
      <trkpt lat="45.46092" lon="5.24936">
        <ele>599.0385742</ele>
        <time>2010-06-27T08:46:53Z</time>
      </trkpt>
      <trkpt lat="45.46089" lon="5.24942">
        <ele>599.0385742</ele>
        <time>2010-06-27T08:47:01Z</time>
      </trkpt>
      <trkpt lat="45.46089" lon="5.24951">
        <ele>599.5192871</ele>
        <time>2010-06-27T08:47:09Z</time>
      </trkpt>
      <trkpt lat="45.46088" lon="5.24953">
        <ele>599.5192871</ele>
        <time>2010-06-27T08:47:11Z</time>
      </trkpt>
      <trkpt lat="45.46082" lon="5.24957">
        <ele>599.0385742</ele>
        <time>2010-06-27T08:47:20Z</time>
      </trkpt>
      <trkpt lat="45.46081" lon="5.2496">
        <ele>599.5192871</ele>
        <time>2010-06-27T08:47:22Z</time>
      </trkpt>
      <trkpt lat="45.46079" lon="5.24964">
        <ele>598.5578613</ele>
        <time>2010-06-27T08:47:25Z</time>
      </trkpt>
      <trkpt lat="45.46074" lon="5.24967">
        <ele>597.5966797</ele>
        <time>2010-06-27T08:47:29Z</time>
      </trkpt>
      <trkpt lat="45.46067" lon="5.24977">
        <ele>597.1159668</ele>
        <time>2010-06-27T08:47:36Z</time>
      </trkpt>
      <trkpt lat="45.46065" lon="5.24978">
        <ele>597.1159668</ele>
        <time>2010-06-27T08:47:39Z</time>
      </trkpt>
      <trkpt lat="45.46048" lon="5.24974">
        <ele>597.5966797</ele>
        <time>2010-06-27T08:47:48Z</time>
      </trkpt>
      <trkpt lat="45.46032" lon="5.24983">
        <ele>594.2321777</ele>
        <time>2010-06-27T08:47:56Z</time>
      </trkpt>
      <trkpt lat="45.46004" lon="5.24991">
        <ele>592.7902832</ele>
        <time>2010-06-27T08:48:04Z</time>
      </trkpt>
      <trkpt lat="45.45975" lon="5.25">
        <ele>591.3481445</ele>
        <time>2010-06-27T08:48:11Z</time>
      </trkpt>
      <trkpt lat="45.45971" lon="5.25002">
        <ele>590.8674316</ele>
        <time>2010-06-27T08:48:12Z</time>
      </trkpt>
      <trkpt lat="45.45943" lon="5.25027">
        <ele>587.5026855</ele>
        <time>2010-06-27T08:48:20Z</time>
      </trkpt>
      <trkpt lat="45.45938" lon="5.25034">
        <ele>586.5415039</ele>
        <time>2010-06-27T08:48:22Z</time>
      </trkpt>
      <trkpt lat="45.45923" lon="5.25053">
        <ele>586.5415039</ele>
        <time>2010-06-27T08:48:27Z</time>
      </trkpt>
      <trkpt lat="45.45918" lon="5.25061">
        <ele>587.0219727</ele>
        <time>2010-06-27T08:48:29Z</time>
      </trkpt>
      <trkpt lat="45.45915" lon="5.2507">
        <ele>586.5415039</ele>
        <time>2010-06-27T08:48:37Z</time>
      </trkpt>
      <trkpt lat="45.45916" lon="5.25077">
        <ele>586.060791</ele>
        <time>2010-06-27T08:49:11Z</time>
      </trkpt>
      <trkpt lat="45.45916" lon="5.25081">
        <ele>586.060791</ele>
        <time>2010-06-27T08:49:21Z</time>
      </trkpt>
      <trkpt lat="45.45918" lon="5.25085">
        <ele>585.0996094</ele>
        <time>2010-06-27T08:49:23Z</time>
      </trkpt>
      <trkpt lat="45.45922" lon="5.2509">
        <ele>585.5800781</ele>
        <time>2010-06-27T08:49:28Z</time>
      </trkpt>
      <trkpt lat="45.45925" lon="5.25105">
        <ele>584.6188965</ele>
        <time>2010-06-27T08:49:37Z</time>
      </trkpt>
      <trkpt lat="45.45933" lon="5.2513">
        <ele>586.5415039</ele>
        <time>2010-06-27T08:49:49Z</time>
      </trkpt>
      <trkpt lat="45.45941" lon="5.25155">
        <ele>587.9833984</ele>
        <time>2010-06-27T08:50:01Z</time>
      </trkpt>
      <trkpt lat="45.45943" lon="5.25167">
        <ele>586.5415039</ele>
        <time>2010-06-27T08:50:09Z</time>
      </trkpt>
      <trkpt lat="45.45944" lon="5.25182">
        <ele>585.5800781</ele>
        <time>2010-06-27T08:50:16Z</time>
      </trkpt>
      <trkpt lat="45.45949" lon="5.25204">
        <ele>584.6188965</ele>
        <time>2010-06-27T08:50:24Z</time>
      </trkpt>
      <trkpt lat="45.45951" lon="5.25213">
        <ele>584.6188965</ele>
        <time>2010-06-27T08:50:28Z</time>
      </trkpt>
      <trkpt lat="45.45954" lon="5.25222">
        <ele>583.1767578</ele>
        <time>2010-06-27T08:50:32Z</time>
      </trkpt>
      <trkpt lat="45.45956" lon="5.25229">
        <ele>581.7348633</ele>
        <time>2010-06-27T08:50:35Z</time>
      </trkpt>
      <trkpt lat="45.45961" lon="5.25244">
        <ele>579.331543</ele>
        <time>2010-06-27T08:50:42Z</time>
      </trkpt>
      <trkpt lat="45.45966" lon="5.25267">
        <ele>580.2929688</ele>
        <time>2010-06-27T08:50:50Z</time>
      </trkpt>
      <trkpt lat="45.45969" lon="5.25285">
        <ele>577.4091797</ele>
        <time>2010-06-27T08:50:57Z</time>
      </trkpt>
      <trkpt lat="45.45978" lon="5.25308">
        <ele>575.4863281</ele>
        <time>2010-06-27T08:51:05Z</time>
      </trkpt>
      <trkpt lat="45.45981" lon="5.25315">
        <ele>575.0058594</ele>
        <time>2010-06-27T08:51:11Z</time>
      </trkpt>
      <trkpt lat="45.45989" lon="5.25331">
        <ele>572.6025391</ele>
        <time>2010-06-27T08:51:17Z</time>
      </trkpt>
      <trkpt lat="45.45991" lon="5.25341">
        <ele>571.1604004</ele>
        <time>2010-06-27T08:51:22Z</time>
      </trkpt>
      <trkpt lat="45.45991" lon="5.25343">
        <ele>571.1604004</ele>
        <time>2010-06-27T08:51:23Z</time>
      </trkpt>
      <trkpt lat="45.45995" lon="5.25355">
        <ele>568.7570801</ele>
        <time>2010-06-27T08:51:28Z</time>
      </trkpt>
      <trkpt lat="45.46001" lon="5.2537">
        <ele>565.3925781</ele>
        <time>2010-06-27T08:51:33Z</time>
      </trkpt>
      <trkpt lat="45.46004" lon="5.25385">
        <ele>564.4311523</ele>
        <time>2010-06-27T08:51:37Z</time>
      </trkpt>
      <trkpt lat="45.46006" lon="5.25388">
        <ele>563.9504395</ele>
        <time>2010-06-27T08:51:38Z</time>
      </trkpt>
      <trkpt lat="45.46008" lon="5.25403">
        <ele>561.0666504</ele>
        <time>2010-06-27T08:51:44Z</time>
      </trkpt>
      <trkpt lat="45.46012" lon="5.25421">
        <ele>559.144043</ele>
        <time>2010-06-27T08:51:49Z</time>
      </trkpt>
      <trkpt lat="45.46018" lon="5.25441">
        <ele>557.7021484</ele>
        <time>2010-06-27T08:51:54Z</time>
      </trkpt>
      <trkpt lat="45.46022" lon="5.2546">
        <ele>556.2600098</ele>
        <time>2010-06-27T08:51:59Z</time>
      </trkpt>
      <trkpt lat="45.46037" lon="5.25482">
        <ele>555.298584</ele>
        <time>2010-06-27T08:52:06Z</time>
      </trkpt>
      <trkpt lat="45.46049" lon="5.25504">
        <ele>554.3374023</ele>
        <time>2010-06-27T08:52:11Z</time>
      </trkpt>
      <trkpt lat="45.46056" lon="5.25533">
        <ele>552.8952637</ele>
        <time>2010-06-27T08:52:17Z</time>
      </trkpt>
      <trkpt lat="45.46053" lon="5.25577">
        <ele>554.8178711</ele>
        <time>2010-06-27T08:52:23Z</time>
      </trkpt>
      <trkpt lat="45.46056" lon="5.25619">
        <ele>566.8344727</ele>
        <time>2010-06-27T08:52:30Z</time>
      </trkpt>
      <trkpt lat="45.46062" lon="5.25645">
        <ele>576.4477539</ele>
        <time>2010-06-27T08:52:36Z</time>
      </trkpt>
      <trkpt lat="45.46071" lon="5.25671">
        <ele>578.8510742</ele>
        <time>2010-06-27T08:52:42Z</time>
      </trkpt>
      <trkpt lat="45.46071" lon="5.25686">
        <ele>579.8122559</ele>
        <time>2010-06-27T08:52:45Z</time>
      </trkpt>
      <trkpt lat="45.46069" lon="5.257">
        <ele>581.2543945</ele>
        <time>2010-06-27T08:52:48Z</time>
      </trkpt>
      <trkpt lat="45.46072" lon="5.25724">
        <ele>582.2155762</ele>
        <time>2010-06-27T08:52:53Z</time>
      </trkpt>
      <trkpt lat="45.46074" lon="5.25733">
        <ele>582.2155762</ele>
        <time>2010-06-27T08:52:55Z</time>
      </trkpt>
      <trkpt lat="45.46067" lon="5.25751">
        <ele>587.5026855</ele>
        <time>2010-06-27T08:53:00Z</time>
      </trkpt>
      <trkpt lat="45.46056" lon="5.25753">
        <ele>590.8674316</ele>
        <time>2010-06-27T08:53:04Z</time>
      </trkpt>
      <trkpt lat="45.46027" lon="5.25772">
        <ele>591.8288574</ele>
        <time>2010-06-27T08:53:12Z</time>
      </trkpt>
      <trkpt lat="45.45995" lon="5.25785">
        <ele>592.7902832</ele>
        <time>2010-06-27T08:53:21Z</time>
      </trkpt>
      <trkpt lat="45.45992" lon="5.25785">
        <ele>593.270752</ele>
        <time>2010-06-27T08:53:22Z</time>
      </trkpt>
      <trkpt lat="45.45978" lon="5.25786">
        <ele>596.635498</ele>
        <time>2010-06-27T08:53:28Z</time>
      </trkpt>
      <trkpt lat="45.45972" lon="5.25783">
        <ele>597.5966797</ele>
        <time>2010-06-27T08:53:32Z</time>
      </trkpt>
      <trkpt lat="45.45967" lon="5.25782">
        <ele>600</ele>
        <time>2010-06-27T08:53:36Z</time>
      </trkpt>
      <trkpt lat="45.45962" lon="5.2578">
        <ele>603.364502</ele>
        <time>2010-06-27T08:53:40Z</time>
      </trkpt>
      <trkpt lat="45.45951" lon="5.2578">
        <ele>612.0166016</ele>
        <time>2010-06-27T08:53:50Z</time>
      </trkpt>
      <trkpt lat="45.45946" lon="5.25783">
        <ele>616.3422852</ele>
        <time>2010-06-27T08:53:56Z</time>
      </trkpt>
      <trkpt lat="45.45933" lon="5.25778">
        <ele>615.3811035</ele>
        <time>2010-06-27T08:54:02Z</time>
      </trkpt>
      <trkpt lat="45.45929" lon="5.25777">
        <ele>616.822998</ele>
        <time>2010-06-27T08:54:04Z</time>
      </trkpt>
      <trkpt lat="45.45926" lon="5.25778">
        <ele>618.2648926</ele>
        <time>2010-06-27T08:54:06Z</time>
      </trkpt>
      <trkpt lat="45.45919" lon="5.25775">
        <ele>618.7456055</ele>
        <time>2010-06-27T08:54:10Z</time>
      </trkpt>
      <trkpt lat="45.45913" lon="5.25772">
        <ele>620.1877441</ele>
        <time>2010-06-27T08:54:14Z</time>
      </trkpt>
      <trkpt lat="45.45909" lon="5.25769">
        <ele>621.6296387</ele>
        <time>2010-06-27T08:54:17Z</time>
      </trkpt>
      <trkpt lat="45.45899" lon="5.2576">
        <ele>622.1103516</ele>
        <time>2010-06-27T08:54:23Z</time>
      </trkpt>
      <trkpt lat="45.45889" lon="5.25746">
        <ele>621.6296387</ele>
        <time>2010-06-27T08:54:27Z</time>
      </trkpt>
      <trkpt lat="45.45879" lon="5.25731">
        <ele>621.6296387</ele>
        <time>2010-06-27T08:54:32Z</time>
      </trkpt>
      <trkpt lat="45.45873" lon="5.25719">
        <ele>623.0717773</ele>
        <time>2010-06-27T08:54:39Z</time>
      </trkpt>
      <trkpt lat="45.45858" lon="5.25704">
        <ele>623.0717773</ele>
        <time>2010-06-27T08:54:46Z</time>
      </trkpt>
      <trkpt lat="45.45847" lon="5.25695">
        <ele>621.1491699</ele>
        <time>2010-06-27T08:54:49Z</time>
      </trkpt>
      <trkpt lat="45.45837" lon="5.25693">
        <ele>621.1491699</ele>
        <time>2010-06-27T08:54:54Z</time>
      </trkpt>
      <trkpt lat="45.45816" lon="5.25679">
        <ele>620.1877441</ele>
        <time>2010-06-27T08:55:00Z</time>
      </trkpt>
      <trkpt lat="45.45808" lon="5.25671">
        <ele>619.7070313</ele>
        <time>2010-06-27T08:55:02Z</time>
      </trkpt>
      <trkpt lat="45.45781" lon="5.2565">
        <ele>618.7456055</ele>
        <time>2010-06-27T08:55:06Z</time>
      </trkpt>
      <trkpt lat="45.45761" lon="5.25639">
        <ele>619.2263184</ele>
        <time>2010-06-27T08:55:09Z</time>
      </trkpt>
      <trkpt lat="45.45734" lon="5.25639">
        <ele>616.3422852</ele>
        <time>2010-06-27T08:55:16Z</time>
      </trkpt>
      <trkpt lat="45.45709" lon="5.25666">
        <ele>610.5744629</ele>
        <time>2010-06-27T08:55:21Z</time>
      </trkpt>
      <trkpt lat="45.45697" lon="5.25675">
        <ele>608.1713867</ele>
        <time>2010-06-27T08:55:23Z</time>
      </trkpt>
      <trkpt lat="45.45659" lon="5.2569">
        <ele>601.4418945</ele>
        <time>2010-06-27T08:55:29Z</time>
      </trkpt>
      <trkpt lat="45.45648" lon="5.25694">
        <ele>599.5192871</ele>
        <time>2010-06-27T08:55:31Z</time>
      </trkpt>
      <trkpt lat="45.45611" lon="5.25709">
        <ele>596.1547852</ele>
        <time>2010-06-27T08:55:39Z</time>
      </trkpt>
      <trkpt lat="45.45598" lon="5.25711">
        <ele>595.6740723</ele>
        <time>2010-06-27T08:55:43Z</time>
      </trkpt>
      <trkpt lat="45.45586" lon="5.25704">
        <ele>596.1547852</ele>
        <time>2010-06-27T08:55:48Z</time>
      </trkpt>
      <trkpt lat="45.45569" lon="5.25695">
        <ele>597.1159668</ele>
        <time>2010-06-27T08:55:54Z</time>
      </trkpt>
      <trkpt lat="45.45554" lon="5.25692">
        <ele>600</ele>
        <time>2010-06-27T08:56:00Z</time>
      </trkpt>
      <trkpt lat="45.45527" lon="5.25686">
        <ele>603.8452148</ele>
        <time>2010-06-27T08:56:09Z</time>
      </trkpt>
      <trkpt lat="45.45503" lon="5.25682">
        <ele>606.729248</ele>
        <time>2010-06-27T08:56:17Z</time>
      </trkpt>
      <trkpt lat="45.45489" lon="5.25681">
        <ele>608.1713867</ele>
        <time>2010-06-27T08:56:22Z</time>
      </trkpt>
      <trkpt lat="45.45478" lon="5.25682">
        <ele>608.1713867</ele>
        <time>2010-06-27T08:56:26Z</time>
      </trkpt>
      <trkpt lat="45.45471" lon="5.25685">
        <ele>606.2485352</ele>
        <time>2010-06-27T08:56:31Z</time>
      </trkpt>
      <trkpt lat="45.45471" lon="5.25684">
        <ele>606.2485352</ele>
        <time>2010-06-27T08:56:33Z</time>
      </trkpt>
      <trkpt lat="45.45466" lon="5.25698">
        <ele>606.729248</ele>
        <time>2010-06-27T08:56:39Z</time>
      </trkpt>
      <trkpt lat="45.45468" lon="5.25715">
        <ele>606.729248</ele>
        <time>2010-06-27T08:56:45Z</time>
      </trkpt>
      <trkpt lat="45.45469" lon="5.25729">
        <ele>604.8066406</ele>
        <time>2010-06-27T08:56:51Z</time>
      </trkpt>
      <trkpt lat="45.45477" lon="5.25748">
        <ele>599.0385742</ele>
        <time>2010-06-27T08:56:56Z</time>
      </trkpt>
      <trkpt lat="45.45479" lon="5.25749">
        <ele>598.0773926</ele>
        <time>2010-06-27T08:56:58Z</time>
      </trkpt>
      <trkpt lat="45.45484" lon="5.25762">
        <ele>594.2321777</ele>
        <time>2010-06-27T08:57:02Z</time>
      </trkpt>
      <trkpt lat="45.45488" lon="5.2578">
        <ele>591.3481445</ele>
        <time>2010-06-27T08:57:08Z</time>
      </trkpt>
      <trkpt lat="45.4549" lon="5.25783">
        <ele>590.3869629</ele>
        <time>2010-06-27T08:57:09Z</time>
      </trkpt>
      <trkpt lat="45.45496" lon="5.25796">
        <ele>588.9450684</ele>
        <time>2010-06-27T08:57:14Z</time>
      </trkpt>
      <trkpt lat="45.45501" lon="5.25809">
        <ele>587.5026855</ele>
        <time>2010-06-27T08:57:19Z</time>
      </trkpt>
      <trkpt lat="45.45504" lon="5.2584">
        <ele>587.0219727</ele>
        <time>2010-06-27T08:57:27Z</time>
      </trkpt>
      <trkpt lat="45.45505" lon="5.25868">
        <ele>588.4643555</ele>
        <time>2010-06-27T08:57:33Z</time>
      </trkpt>
      <trkpt lat="45.45487" lon="5.25881">
        <ele>589.4255371</ele>
        <time>2010-06-27T08:57:38Z</time>
      </trkpt>
      <trkpt lat="45.4546" lon="5.25889">
        <ele>587.9833984</ele>
        <time>2010-06-27T08:57:45Z</time>
      </trkpt>
      <trkpt lat="45.45453" lon="5.25884">
        <ele>587.9833984</ele>
        <time>2010-06-27T08:57:52Z</time>
      </trkpt>
      <trkpt lat="45.45451" lon="5.25885">
        <ele>587.0219727</ele>
        <time>2010-06-27T08:57:58Z</time>
      </trkpt>
      <trkpt lat="45.45434" lon="5.25878">
        <ele>587.9833984</ele>
        <time>2010-06-27T08:58:07Z</time>
      </trkpt>
      <trkpt lat="45.45418" lon="5.2588">
        <ele>587.9833984</ele>
        <time>2010-06-27T08:58:15Z</time>
      </trkpt>
      <trkpt lat="45.45407" lon="5.25886">
        <ele>587.9833984</ele>
        <time>2010-06-27T08:58:21Z</time>
      </trkpt>
      <trkpt lat="45.45398" lon="5.25896">
        <ele>591.3481445</ele>
        <time>2010-06-27T08:58:27Z</time>
      </trkpt>
      <trkpt lat="45.45385" lon="5.25909">
        <ele>595.1933594</ele>
        <time>2010-06-27T08:58:33Z</time>
      </trkpt>
      <trkpt lat="45.45382" lon="5.25912">
        <ele>595.6740723</ele>
        <time>2010-06-27T08:58:36Z</time>
      </trkpt>
      <trkpt lat="45.45372" lon="5.25938">
        <ele>598.5578613</ele>
        <time>2010-06-27T08:58:43Z</time>
      </trkpt>
      <trkpt lat="45.45372" lon="5.25942">
        <ele>599.0385742</ele>
        <time>2010-06-27T08:58:44Z</time>
      </trkpt>
      <trkpt lat="45.45365" lon="5.2596">
        <ele>599.5192871</ele>
        <time>2010-06-27T08:58:49Z</time>
      </trkpt>
      <trkpt lat="45.45363" lon="5.25966">
        <ele>599.0385742</ele>
        <time>2010-06-27T08:58:52Z</time>
      </trkpt>
      <trkpt lat="45.45357" lon="5.25967">
        <ele>598.5578613</ele>
        <time>2010-06-27T08:58:56Z</time>
      </trkpt>
      <trkpt lat="45.45351" lon="5.25967">
        <ele>598.5578613</ele>
        <time>2010-06-27T08:59:00Z</time>
      </trkpt>
      <trkpt lat="45.45344" lon="5.25966">
        <ele>599.0385742</ele>
        <time>2010-06-27T08:59:03Z</time>
      </trkpt>
      <trkpt lat="45.45332" lon="5.25958">
        <ele>600</ele>
        <time>2010-06-27T08:59:07Z</time>
      </trkpt>
      <trkpt lat="45.45329" lon="5.25956">
        <ele>600.4807129</ele>
        <time>2010-06-27T08:59:08Z</time>
      </trkpt>
      <trkpt lat="45.45316" lon="5.2595">
        <ele>602.4030762</ele>
        <time>2010-06-27T08:59:15Z</time>
      </trkpt>
      <trkpt lat="45.45308" lon="5.25947">
        <ele>601.4418945</ele>
        <time>2010-06-27T08:59:18Z</time>
      </trkpt>
      <trkpt lat="45.45298" lon="5.25952">
        <ele>602.8837891</ele>
        <time>2010-06-27T08:59:23Z</time>
      </trkpt>
      <trkpt lat="45.4529" lon="5.25961">
        <ele>604.3261719</ele>
        <time>2010-06-27T08:59:27Z</time>
      </trkpt>
      <trkpt lat="45.45279" lon="5.25976">
        <ele>603.8452148</ele>
        <time>2010-06-27T08:59:32Z</time>
      </trkpt>
      <trkpt lat="45.45272" lon="5.25985">
        <ele>603.8452148</ele>
        <time>2010-06-27T08:59:36Z</time>
      </trkpt>
      <trkpt lat="45.45268" lon="5.26004">
        <ele>600.4807129</ele>
        <time>2010-06-27T08:59:41Z</time>
      </trkpt>
      <trkpt lat="45.45272" lon="5.26019">
        <ele>598.0773926</ele>
        <time>2010-06-27T08:59:47Z</time>
      </trkpt>
      <trkpt lat="45.45274" lon="5.26029">
        <ele>595.6740723</ele>
        <time>2010-06-27T08:59:51Z</time>
      </trkpt>
      <trkpt lat="45.45274" lon="5.26037">
        <ele>595.6740723</ele>
        <time>2010-06-27T08:59:53Z</time>
      </trkpt>
      <trkpt lat="45.45271" lon="5.2606">
        <ele>595.6740723</ele>
        <time>2010-06-27T09:00:00Z</time>
      </trkpt>
      <trkpt lat="45.45271" lon="5.26064">
        <ele>595.6740723</ele>
        <time>2010-06-27T09:00:01Z</time>
      </trkpt>
      <trkpt lat="45.45265" lon="5.26089">
        <ele>601.4418945</ele>
        <time>2010-06-27T09:00:06Z</time>
      </trkpt>
      <trkpt lat="45.45266" lon="5.26109">
        <ele>598.0773926</ele>
        <time>2010-06-27T09:00:12Z</time>
      </trkpt>
      <trkpt lat="45.45264" lon="5.26116">
        <ele>599.0385742</ele>
        <time>2010-06-27T09:00:14Z</time>
      </trkpt>
      <trkpt lat="45.45268" lon="5.26132">
        <ele>596.635498</ele>
        <time>2010-06-27T09:00:18Z</time>
      </trkpt>
      <trkpt lat="45.45263" lon="5.26165">
        <ele>595.1933594</ele>
        <time>2010-06-27T09:00:26Z</time>
      </trkpt>
      <trkpt lat="45.45265" lon="5.26176">
        <ele>595.6740723</ele>
        <time>2010-06-27T09:00:30Z</time>
      </trkpt>
      <trkpt lat="45.4526" lon="5.26183">
        <ele>594.7126465</ele>
        <time>2010-06-27T09:00:34Z</time>
      </trkpt>
      <trkpt lat="45.45256" lon="5.26184">
        <ele>593.270752</ele>
        <time>2010-06-27T09:00:37Z</time>
      </trkpt>
      <trkpt lat="45.45251" lon="5.26181">
        <ele>592.3095703</ele>
        <time>2010-06-27T09:00:43Z</time>
      </trkpt>
      <trkpt lat="45.45246" lon="5.26183">
        <ele>592.3095703</ele>
        <time>2010-06-27T09:00:49Z</time>
      </trkpt>
      <trkpt lat="45.45237" lon="5.26181">
        <ele>591.3481445</ele>
        <time>2010-06-27T09:00:53Z</time>
      </trkpt>
      <trkpt lat="45.45231" lon="5.26168">
        <ele>590.8674316</ele>
        <time>2010-06-27T09:00:58Z</time>
      </trkpt>
      <trkpt lat="45.45222" lon="5.26166">
        <ele>591.3481445</ele>
        <time>2010-06-27T09:01:03Z</time>
      </trkpt>
      <trkpt lat="45.45217" lon="5.26175">
        <ele>591.8288574</ele>
        <time>2010-06-27T09:01:08Z</time>
      </trkpt>
      <trkpt lat="45.45216" lon="5.26179">
        <ele>593.270752</ele>
        <time>2010-06-27T09:01:10Z</time>
      </trkpt>
      <trkpt lat="45.45199" lon="5.26198">
        <ele>592.7902832</ele>
        <time>2010-06-27T09:01:22Z</time>
      </trkpt>
      <trkpt lat="45.45198" lon="5.26199">
        <ele>592.3095703</ele>
        <time>2010-06-27T09:01:23Z</time>
      </trkpt>
      <trkpt lat="45.45193" lon="5.26213">
        <ele>593.7514648</ele>
        <time>2010-06-27T09:01:29Z</time>
      </trkpt>
      <trkpt lat="45.45179" lon="5.26236">
        <ele>595.1933594</ele>
        <time>2010-06-27T09:01:39Z</time>
      </trkpt>
      <trkpt lat="45.45169" lon="5.26243">
        <ele>595.1933594</ele>
        <time>2010-06-27T09:01:44Z</time>
      </trkpt>
      <trkpt lat="45.45163" lon="5.26261">
        <ele>595.1933594</ele>
        <time>2010-06-27T09:01:51Z</time>
      </trkpt>
      <trkpt lat="45.45164" lon="5.26264">
        <ele>594.7126465</ele>
        <time>2010-06-27T09:01:52Z</time>
      </trkpt>
      <trkpt lat="45.45177" lon="5.26288">
        <ele>594.2321777</ele>
        <time>2010-06-27T09:02:02Z</time>
      </trkpt>
      <trkpt lat="45.45188" lon="5.26318">
        <ele>594.2321777</ele>
        <time>2010-06-27T09:02:11Z</time>
      </trkpt>
      <trkpt lat="45.45195" lon="5.26359">
        <ele>595.1933594</ele>
        <time>2010-06-27T09:02:19Z</time>
      </trkpt>
      <trkpt lat="45.45199" lon="5.26397">
        <ele>595.6740723</ele>
        <time>2010-06-27T09:02:27Z</time>
      </trkpt>
      <trkpt lat="45.45203" lon="5.26434">
        <ele>596.1547852</ele>
        <time>2010-06-27T09:02:37Z</time>
      </trkpt>
      <trkpt lat="45.45208" lon="5.26467">
        <ele>596.1547852</ele>
        <time>2010-06-27T09:02:46Z</time>
      </trkpt>
      <trkpt lat="45.4521" lon="5.26474">
        <ele>595.6740723</ele>
        <time>2010-06-27T09:02:48Z</time>
      </trkpt>
      <trkpt lat="45.45221" lon="5.26503">
        <ele>595.1933594</ele>
        <time>2010-06-27T09:02:55Z</time>
      </trkpt>
      <trkpt lat="45.45227" lon="5.26523">
        <ele>594.7126465</ele>
        <time>2010-06-27T09:03:01Z</time>
      </trkpt>
      <trkpt lat="45.45229" lon="5.26549">
        <ele>594.2321777</ele>
        <time>2010-06-27T09:03:07Z</time>
      </trkpt>
      <trkpt lat="45.45218" lon="5.2657">
        <ele>591.3481445</ele>
        <time>2010-06-27T09:03:12Z</time>
      </trkpt>
      <trkpt lat="45.45204" lon="5.26604">
        <ele>590.3869629</ele>
        <time>2010-06-27T09:03:19Z</time>
      </trkpt>
      <trkpt lat="45.45195" lon="5.2663">
        <ele>590.3869629</ele>
        <time>2010-06-27T09:03:25Z</time>
      </trkpt>
      <trkpt lat="45.45184" lon="5.26658">
        <ele>590.3869629</ele>
        <time>2010-06-27T09:03:31Z</time>
      </trkpt>
      <trkpt lat="45.45172" lon="5.26692">
        <ele>589.90625</ele>
        <time>2010-06-27T09:03:39Z</time>
      </trkpt>
      <trkpt lat="45.45166" lon="5.26704">
        <ele>589.4255371</ele>
        <time>2010-06-27T09:03:42Z</time>
      </trkpt>
      <trkpt lat="45.45158" lon="5.26703">
        <ele>590.3869629</ele>
        <time>2010-06-27T09:03:46Z</time>
      </trkpt>
      <trkpt lat="45.45151" lon="5.26687">
        <ele>588.9450684</ele>
        <time>2010-06-27T09:03:51Z</time>
      </trkpt>
      <trkpt lat="45.45145" lon="5.26677">
        <ele>588.4643555</ele>
        <time>2010-06-27T09:03:54Z</time>
      </trkpt>
      <trkpt lat="45.45141" lon="5.26657">
        <ele>587.0219727</ele>
        <time>2010-06-27T09:03:59Z</time>
      </trkpt>
      <trkpt lat="45.45136" lon="5.26638">
        <ele>586.5415039</ele>
        <time>2010-06-27T09:04:03Z</time>
      </trkpt>
      <trkpt lat="45.45125" lon="5.26627">
        <ele>588.4643555</ele>
        <time>2010-06-27T09:04:08Z</time>
      </trkpt>
      <trkpt lat="45.45098" lon="5.2662">
        <ele>592.3095703</ele>
        <time>2010-06-27T09:04:16Z</time>
      </trkpt>
      <trkpt lat="45.45084" lon="5.26611">
        <ele>594.7126465</ele>
        <time>2010-06-27T09:04:20Z</time>
      </trkpt>
      <trkpt lat="45.45065" lon="5.26619">
        <ele>593.270752</ele>
        <time>2010-06-27T09:04:26Z</time>
      </trkpt>
      <trkpt lat="45.45058" lon="5.26623">
        <ele>592.3095703</ele>
        <time>2010-06-27T09:04:28Z</time>
      </trkpt>
      <trkpt lat="45.45054" lon="5.26628">
        <ele>589.4255371</ele>
        <time>2010-06-27T09:04:30Z</time>
      </trkpt>
      <trkpt lat="45.45035" lon="5.26633">
        <ele>586.060791</ele>
        <time>2010-06-27T09:04:36Z</time>
      </trkpt>
      <trkpt lat="45.45027" lon="5.26634">
        <ele>585.5800781</ele>
        <time>2010-06-27T09:04:38Z</time>
      </trkpt>
      <trkpt lat="45.45" lon="5.26633">
        <ele>586.060791</ele>
        <time>2010-06-27T09:04:44Z</time>
      </trkpt>
      <trkpt lat="45.44979" lon="5.26619">
        <ele>581.7348633</ele>
        <time>2010-06-27T09:04:51Z</time>
      </trkpt>
      <trkpt lat="45.44961" lon="5.26603">
        <ele>581.2543945</ele>
        <time>2010-06-27T09:04:56Z</time>
      </trkpt>
      <trkpt lat="45.44935" lon="5.26595">
        <ele>580.2929688</ele>
        <time>2010-06-27T09:05:03Z</time>
      </trkpt>
      <trkpt lat="45.44901" lon="5.26593">
        <ele>575.967041</ele>
        <time>2010-06-27T09:05:12Z</time>
      </trkpt>
      <trkpt lat="45.44882" lon="5.266">
        <ele>572.6025391</ele>
        <time>2010-06-27T09:05:18Z</time>
      </trkpt>
      <trkpt lat="45.44859" lon="5.2661">
        <ele>566.3537598</ele>
        <time>2010-06-27T09:05:26Z</time>
      </trkpt>
      <trkpt lat="45.44846" lon="5.2661">
        <ele>565.3925781</ele>
        <time>2010-06-27T09:05:30Z</time>
      </trkpt>
      <trkpt lat="45.44832" lon="5.26622">
        <ele>562.9892578</ele>
        <time>2010-06-27T09:05:36Z</time>
      </trkpt>
      <trkpt lat="45.44823" lon="5.26647">
        <ele>558.6633301</ele>
        <time>2010-06-27T09:05:43Z</time>
      </trkpt>
      <trkpt lat="45.44809" lon="5.26683">
        <ele>554.3374023</ele>
        <time>2010-06-27T09:05:49Z</time>
      </trkpt>
      <trkpt lat="45.44791" lon="5.2671">
        <ele>552.4145508</ele>
        <time>2010-06-27T09:05:55Z</time>
      </trkpt>
      <trkpt lat="45.44772" lon="5.26727">
        <ele>547.1274414</ele>
        <time>2010-06-27T09:06:01Z</time>
      </trkpt>
      <trkpt lat="45.4476" lon="5.26736">
        <ele>544.7242432</ele>
        <time>2010-06-27T09:06:06Z</time>
      </trkpt>
      <trkpt lat="45.44746" lon="5.26748">
        <ele>540.3983154</ele>
        <time>2010-06-27T09:06:13Z</time>
      </trkpt>
      <trkpt lat="45.4473" lon="5.26762">
        <ele>537.5142822</ele>
        <time>2010-06-27T09:06:19Z</time>
      </trkpt>
      <trkpt lat="45.44725" lon="5.2677">
        <ele>536.5531006</ele>
        <time>2010-06-27T09:06:21Z</time>
      </trkpt>
      <trkpt lat="45.44724" lon="5.26769">
        <ele>536.0723877</ele>
        <time>2010-06-27T09:06:23Z</time>
      </trkpt>
      <trkpt lat="45.44715" lon="5.26781">
        <ele>532.7077637</ele>
        <time>2010-06-27T09:06:29Z</time>
      </trkpt>
      <trkpt lat="45.44703" lon="5.26801">
        <ele>531.7463379</ele>
        <time>2010-06-27T09:06:35Z</time>
      </trkpt>
      <trkpt lat="45.447" lon="5.26806">
        <ele>533.1883545</ele>
        <time>2010-06-27T09:06:41Z</time>
      </trkpt>
      <trkpt lat="45.44694" lon="5.26818">
        <ele>533.6689453</ele>
        <time>2010-06-27T09:06:47Z</time>
      </trkpt>
      <trkpt lat="45.4469" lon="5.26819">
        <ele>533.1883545</ele>
        <time>2010-06-27T09:06:55Z</time>
      </trkpt>
      <trkpt lat="45.44686" lon="5.26819">
        <ele>533.6689453</ele>
        <time>2010-06-27T09:07:04Z</time>
      </trkpt>
      <trkpt lat="45.44686" lon="5.2682">
        <ele>534.1496582</ele>
        <time>2010-06-27T09:07:08Z</time>
      </trkpt>
      <trkpt lat="45.44672" lon="5.26824">
        <ele>535.5915527</ele>
        <time>2010-06-27T09:07:15Z</time>
      </trkpt>
      <trkpt lat="45.44659" lon="5.26827">
        <ele>535.5915527</ele>
        <time>2010-06-27T09:07:20Z</time>
      </trkpt>
      <trkpt lat="45.44642" lon="5.26822">
        <ele>537.5142822</ele>
        <time>2010-06-27T09:07:28Z</time>
      </trkpt>
      <trkpt lat="45.44626" lon="5.26827">
        <ele>538.9562988</ele>
        <time>2010-06-27T09:07:35Z</time>
      </trkpt>
      <trkpt lat="45.44619" lon="5.26833">
        <ele>538.9562988</ele>
        <time>2010-06-27T09:07:38Z</time>
      </trkpt>
      <trkpt lat="45.44609" lon="5.26838">
        <ele>539.9176025</ele>
        <time>2010-06-27T09:07:43Z</time>
      </trkpt>
      <trkpt lat="45.44597" lon="5.26845">
        <ele>540.8789063</ele>
        <time>2010-06-27T09:07:47Z</time>
      </trkpt>
      <trkpt lat="45.44583" lon="5.26854">
        <ele>540.8789063</ele>
        <time>2010-06-27T09:07:51Z</time>
      </trkpt>
      <trkpt lat="45.44566" lon="5.26871">
        <ele>540.8789063</ele>
        <time>2010-06-27T09:07:56Z</time>
      </trkpt>
      <trkpt lat="45.44563" lon="5.26875">
        <ele>540.8789063</ele>
        <time>2010-06-27T09:07:57Z</time>
      </trkpt>
      <trkpt lat="45.44541" lon="5.2691">
        <ele>537.5142822</ele>
        <time>2010-06-27T09:08:04Z</time>
      </trkpt>
      <trkpt lat="45.4453" lon="5.26925">
        <ele>536.5531006</ele>
        <time>2010-06-27T09:08:09Z</time>
      </trkpt>
      <trkpt lat="45.44524" lon="5.26937">
        <ele>535.1109619</ele>
        <time>2010-06-27T09:08:15Z</time>
      </trkpt>
      <trkpt lat="45.44522" lon="5.26939">
        <ele>534.6303711</ele>
        <time>2010-06-27T09:08:16Z</time>
      </trkpt>
      <trkpt lat="45.44506" lon="5.26959">
        <ele>531.2657471</ele>
        <time>2010-06-27T09:08:23Z</time>
      </trkpt>
      <trkpt lat="45.445" lon="5.26954">
        <ele>530.3044434</ele>
        <time>2010-06-27T09:08:30Z</time>
      </trkpt>
      <trkpt lat="45.445" lon="5.2695">
        <ele>530.3044434</ele>
        <time>2010-06-27T09:08:32Z</time>
      </trkpt>
      <trkpt lat="45.44498" lon="5.26945">
        <ele>531.7463379</ele>
        <time>2010-06-27T09:08:36Z</time>
      </trkpt>
      <trkpt lat="45.44495" lon="5.2694">
        <ele>532.2270508</ele>
        <time>2010-06-27T09:08:40Z</time>
      </trkpt>
      <trkpt lat="45.44488" lon="5.2693">
        <ele>533.6689453</ele>
        <time>2010-06-27T09:08:46Z</time>
      </trkpt>
      <trkpt lat="45.44482" lon="5.2692">
        <ele>534.6303711</ele>
        <time>2010-06-27T09:08:51Z</time>
      </trkpt>
      <trkpt lat="45.44475" lon="5.26912">
        <ele>535.1109619</ele>
        <time>2010-06-27T09:08:57Z</time>
      </trkpt>
      <trkpt lat="45.44465" lon="5.26909">
        <ele>531.7463379</ele>
        <time>2010-06-27T09:09:05Z</time>
      </trkpt>
      <trkpt lat="45.44458" lon="5.26906">
        <ele>532.2270508</ele>
        <time>2010-06-27T09:09:11Z</time>
      </trkpt>
      <trkpt lat="45.44445" lon="5.26901">
        <ele>534.1496582</ele>
        <time>2010-06-27T09:09:20Z</time>
      </trkpt>
      <trkpt lat="45.44438" lon="5.26899">
        <ele>534.1496582</ele>
        <time>2010-06-27T09:09:24Z</time>
      </trkpt>
      <trkpt lat="45.44426" lon="5.26893">
        <ele>536.0723877</ele>
        <time>2010-06-27T09:09:33Z</time>
      </trkpt>
      <trkpt lat="45.44411" lon="5.26885">
        <ele>538.9562988</ele>
        <time>2010-06-27T09:09:44Z</time>
      </trkpt>
      <trkpt lat="45.444" lon="5.26884">
        <ele>538.475708</ele>
        <time>2010-06-27T09:09:49Z</time>
      </trkpt>
      <trkpt lat="45.44383" lon="5.26886">
        <ele>536.5531006</ele>
        <time>2010-06-27T09:09:55Z</time>
      </trkpt>
      <trkpt lat="45.44369" lon="5.26889">
        <ele>538.9562988</ele>
        <time>2010-06-27T09:10:01Z</time>
      </trkpt>
      <trkpt lat="45.44349" lon="5.26889">
        <ele>543.7628174</ele>
        <time>2010-06-27T09:10:08Z</time>
      </trkpt>
      <trkpt lat="45.44337" lon="5.2688">
        <ele>547.1274414</ele>
        <time>2010-06-27T09:10:14Z</time>
      </trkpt>
      <trkpt lat="45.44328" lon="5.26874">
        <ele>548.0888672</ele>
        <time>2010-06-27T09:10:19Z</time>
      </trkpt>
      <trkpt lat="45.44327" lon="5.26873">
        <ele>548.0888672</ele>
        <time>2010-06-27T09:10:20Z</time>
      </trkpt>
      <trkpt lat="45.44306" lon="5.26867">
        <ele>547.6081543</ele>
        <time>2010-06-27T09:10:31Z</time>
      </trkpt>
      <trkpt lat="45.44298" lon="5.26863">
        <ele>548.5693359</ele>
        <time>2010-06-27T09:10:36Z</time>
      </trkpt>
      <trkpt lat="45.44277" lon="5.26863">
        <ele>548.5693359</ele>
        <time>2010-06-27T09:10:46Z</time>
      </trkpt>
      <trkpt lat="45.44255" lon="5.26866">
        <ele>546.1662598</ele>
        <time>2010-06-27T09:10:56Z</time>
      </trkpt>
      <trkpt lat="45.44235" lon="5.2687">
        <ele>542.8015137</ele>
        <time>2010-06-27T09:11:03Z</time>
      </trkpt>
      <trkpt lat="45.44216" lon="5.26873">
        <ele>541.3594971</ele>
        <time>2010-06-27T09:11:09Z</time>
      </trkpt>
      <trkpt lat="45.44201" lon="5.26877">
        <ele>540.3983154</ele>
        <time>2010-06-27T09:11:13Z</time>
      </trkpt>
      <trkpt lat="45.44178" lon="5.26884">
        <ele>538.9562988</ele>
        <time>2010-06-27T09:11:19Z</time>
      </trkpt>
      <trkpt lat="45.44158" lon="5.2688">
        <ele>537.0336914</ele>
        <time>2010-06-27T09:11:24Z</time>
      </trkpt>
      <trkpt lat="45.44136" lon="5.26869">
        <ele>532.2270508</ele>
        <time>2010-06-27T09:11:30Z</time>
      </trkpt>
      <trkpt lat="45.4412" lon="5.26864">
        <ele>530.7851563</ele>
        <time>2010-06-27T09:11:34Z</time>
      </trkpt>
      <trkpt lat="45.44113" lon="5.26861">
        <ele>527.901001</ele>
        <time>2010-06-27T09:11:36Z</time>
      </trkpt>
      <trkpt lat="45.44093" lon="5.26853">
        <ele>522.1331787</ele>
        <time>2010-06-27T09:11:43Z</time>
      </trkpt>
      <trkpt lat="45.44061" lon="5.26853">
        <ele>515.4040527</ele>
        <time>2010-06-27T09:11:50Z</time>
      </trkpt>
      <trkpt lat="45.44038" lon="5.26855">
        <ele>511.5587158</ele>
        <time>2010-06-27T09:11:56Z</time>
      </trkpt>
      <trkpt lat="45.44014" lon="5.26858">
        <ele>507.2327881</ele>
        <time>2010-06-27T09:12:02Z</time>
      </trkpt>
      <trkpt lat="45.43989" lon="5.26857">
        <ele>505.3101807</ele>
        <time>2010-06-27T09:12:09Z</time>
      </trkpt>
      <trkpt lat="45.43981" lon="5.26857">
        <ele>503.8681641</ele>
        <time>2010-06-27T09:12:11Z</time>
      </trkpt>
      <trkpt lat="45.43959" lon="5.26871">
        <ele>501.4648438</ele>
        <time>2010-06-27T09:12:16Z</time>
      </trkpt>
      <trkpt lat="45.43944" lon="5.26891">
        <ele>500.0229492</ele>
        <time>2010-06-27T09:12:20Z</time>
      </trkpt>
      <trkpt lat="45.43903" lon="5.26919">
        <ele>495.6968994</ele>
        <time>2010-06-27T09:12:27Z</time>
      </trkpt>
      <trkpt lat="45.43867" lon="5.26944">
        <ele>493.774292</ele>
        <time>2010-06-27T09:12:33Z</time>
      </trkpt>
      <trkpt lat="45.43859" lon="5.26964">
        <ele>493.2935791</ele>
        <time>2010-06-27T09:12:37Z</time>
      </trkpt>
      <trkpt lat="45.43859" lon="5.26989">
        <ele>493.2935791</ele>
        <time>2010-06-27T09:12:42Z</time>
      </trkpt>
      <trkpt lat="45.43844" lon="5.27009">
        <ele>491.8516846</ele>
        <time>2010-06-27T09:12:47Z</time>
      </trkpt>
      <trkpt lat="45.43826" lon="5.27016">
        <ele>489.9290771</ele>
        <time>2010-06-27T09:12:50Z</time>
      </trkpt>
      <trkpt lat="45.43768" lon="5.27018">
        <ele>485.6030273</ele>
        <time>2010-06-27T09:12:57Z</time>
      </trkpt>
      <trkpt lat="45.43752" lon="5.27021">
        <ele>483.6804199</ele>
        <time>2010-06-27T09:12:59Z</time>
      </trkpt>
      <trkpt lat="45.43716" lon="5.27041">
        <ele>480.315918</ele>
        <time>2010-06-27T09:13:05Z</time>
      </trkpt>
      <trkpt lat="45.43695" lon="5.27055">
        <ele>477.4318848</ele>
        <time>2010-06-27T09:13:09Z</time>
      </trkpt>
      <trkpt lat="45.43656" lon="5.27053">
        <ele>474.0672607</ele>
        <time>2010-06-27T09:13:14Z</time>
      </trkpt>
      <trkpt lat="45.4362" lon="5.27021">
        <ele>473.1060791</ele>
        <time>2010-06-27T09:13:19Z</time>
      </trkpt>
      <trkpt lat="45.43612" lon="5.27002">
        <ele>473.1060791</ele>
        <time>2010-06-27T09:13:21Z</time>
      </trkpt>
      <trkpt lat="45.43603" lon="5.2698">
        <ele>473.1060791</ele>
        <time>2010-06-27T09:13:24Z</time>
      </trkpt>
      <trkpt lat="45.4358" lon="5.26953">
        <ele>470.2219238</ele>
        <time>2010-06-27T09:13:30Z</time>
      </trkpt>
      <trkpt lat="45.43569" lon="5.26948">
        <ele>468.7800293</ele>
        <time>2010-06-27T09:13:34Z</time>
      </trkpt>
      <trkpt lat="45.43559" lon="5.26954">
        <ele>468.2993164</ele>
        <time>2010-06-27T09:13:40Z</time>
      </trkpt>
      <trkpt lat="45.43559" lon="5.26954">
        <ele>467.8187256</ele>
        <time>2010-06-27T09:14:03Z</time>
      </trkpt>
    </trkseg>
  </trk>
</gpx>